Date StartTime U_cm/s V_cm/s W_cm/s Ustd_cm/s Vstd_cm/s Wstd_cm/s Uvar_(cm/s)^2 Vvar_(cm/s)^2 Wvar_(cm/s)^2 KE_(m/s)^2 TurbulentKE_(m/s)^2 HorizWindSpeed_cm/s FrictionSpeec_cm/s DragCoef SpeedOfSound_m/s SonicTemperature_C Pressure_mb 
07/14/2013  00:00:00      -67.525       23.454       -4.765       44.562       28.777       28.082     1985.765      828.103      788.614        0.437        0.180       71.483       27.409        0.147      345.206       22.570      863.378
07/14/2013  00:01:00     -142.139       59.076      -33.150       41.340       58.915       30.858     1709.006     3470.984      952.220        1.546        0.307      153.926       12.530        0.007      345.235       22.620      863.381
07/14/2013  00:02:00      -57.855       43.335       -8.465       41.747       30.665       20.127     1742.833      940.330      405.077        0.419        0.154       72.285       22.896        0.100      345.062       22.326      863.393
07/14/2013  00:03:00      -46.737       62.138        6.998       54.541       80.474       37.375     2974.726     6476.035     1396.906        0.847        0.542       77.753       46.270        0.354      345.071       22.340      863.389
07/14/2013  00:04:00      -57.833       69.910      -11.163       44.682      126.868       37.205     1996.510    16095.461     1384.236        1.391        0.974       90.730       32.774        0.130      345.259       22.660      863.377
07/14/2013  00:05:00      -85.903       89.145      -12.134       37.167       51.205       23.478     1381.402     2621.993      551.196        1.001        0.228      123.798       23.775        0.037      345.219       22.593      863.387
07/14/2013  00:06:00     -104.976      146.460      -24.530       44.468       70.513       28.953     1977.393     4972.120      838.266        2.043        0.389      180.196       26.875        0.022      345.292       22.717      863.393
07/14/2013  00:07:00     -135.336      141.963      -24.465       69.480       71.282       36.310     4827.533     5081.059     1318.450        2.515        0.561      196.136       35.908        0.034      345.298       22.725      863.397
07/14/2013  00:08:00     -125.484      148.087      -24.393       55.096       44.894       39.318     3035.549     2015.433     1545.940        2.243        0.330      194.103       35.030        0.033      345.279       22.693      863.420
07/14/2013  00:09:00     -135.764      132.203      -35.703       35.060       32.911       21.863     1229.236     1083.163      477.987        1.999        0.140      189.498       18.897        0.010      345.311       22.749      863.427
07/14/2013  00:10:00      -86.238       87.364      -23.431       20.234       37.178       17.865      409.415     1382.219      319.163        0.886        0.106      122.758        7.917        0.004      345.238       22.625      863.424
07/14/2013  00:11:00      -45.873        9.887       -8.280       46.951       77.667       24.342     2204.440     6032.214      592.533        0.555        0.441       46.927       18.613        0.157      345.249       22.642      863.413
07/14/2013  00:12:00      -49.628      -34.734      -22.861       39.817       31.721       24.898     1585.381     1006.237      619.922        0.370        0.161       60.576       14.802        0.060      345.284       22.705      863.414
07/14/2013  00:13:00      -52.467      -30.771       -2.072       33.706       27.462       16.771     1136.099      754.149      281.265        0.294        0.109       60.824       15.340        0.064      345.170       22.509      863.417
07/14/2013  00:14:00     -116.720      -29.053      -10.411       29.022       31.330       16.476      842.249      981.592      271.445        0.834        0.105      120.282        5.078        0.002      345.193       22.549      863.417
07/14/2013  00:15:00      -63.104       26.582       -5.361       27.324       31.295       14.769      746.626      979.383      218.111        0.333        0.097       68.475       12.956        0.036      345.109       22.405      863.412
07/14/2013  00:16:00      -82.966       59.221      -14.086       20.836       29.684       14.224      434.140      881.135      202.312        0.605        0.076      101.933       12.692        0.016      345.279       22.695      863.401
07/14/2013  00:17:00     -100.078       65.140      -19.007       25.074       31.979       19.360      628.689     1022.661      374.796        0.832        0.101      119.410       17.317        0.021      345.208       22.574      863.408
07/14/2013  00:18:00      -61.073       61.454      -12.081       31.794       26.048       15.536     1010.859      678.514      241.379        0.479        0.097       86.640       12.101        0.020      345.186       22.536      863.404
07/14/2013  00:19:00     -123.450      128.998      -30.419       49.638       58.113       29.331     2463.903     3377.095      860.304        1.975        0.335      178.551       31.362        0.031      345.311       22.750      863.402
07/14/2013  00:20:00     -101.018      119.656      -26.628       39.169       44.678       20.875     1534.221     1996.138      435.769        1.460        0.198      156.596       22.953        0.021      345.376       22.861      863.396
07/14/2013  00:21:00      -96.398      112.030      -21.854       35.663       44.676       23.076     1271.818     1995.909      532.521        1.306        0.190      147.794       24.996        0.029      345.442       22.973      863.394
07/14/2013  00:22:00     -121.605        1.792      -11.340       46.680       37.796       21.930     2179.038     1428.557      480.935        0.950        0.204      121.619       22.842        0.035      345.192       22.547      863.399
07/14/2013  00:23:00     -150.165       17.110      -24.549       36.108       50.684       24.935     1303.812     2568.895      621.744        1.397        0.225      151.137       18.162        0.014      345.115       22.415      863.404
07/14/2013  00:24:00     -105.005       66.191      -19.862       32.019       42.576       21.313     1025.231     1812.745      454.224        0.955        0.165      124.127       17.577        0.020      345.176       22.519      863.404
07/14/2013  00:25:00      -75.690       71.612      -17.142       30.120       42.567       15.585      907.209     1811.972      242.890        0.706        0.148      104.198       16.518        0.025      345.138       22.454      863.405
07/14/2013  00:26:00      -82.341       87.871      -18.125       24.454       31.506       19.239      597.990      992.608      370.138        0.839        0.098      120.422       15.056        0.016      345.057       22.317      863.409
07/14/2013  00:27:00      -88.037       71.274      -14.381       34.451       39.108       24.017     1186.883     1529.447      576.812        0.816        0.165      113.272       18.720        0.027      345.005       22.226      863.410
07/14/2013  00:28:00      -56.548       19.369       -5.671       34.547       38.819       17.252     1193.517     1506.897      297.620        0.330        0.150       59.773       19.489        0.106      345.030       22.271      863.406
07/14/2013  00:29:00      -52.145       12.584       -9.548       20.060       27.419       11.866      402.401      751.828      140.798        0.213        0.065       53.641        9.905        0.034      344.981       22.186      863.417
07/14/2013  00:30:00     -105.286       69.460      -22.953       41.781       64.809       26.494     1745.630     4200.198      701.912        1.154        0.332      126.134       29.053        0.053      345.137       22.452      863.417
07/14/2013  00:31:00      -88.295       50.939      -14.356       33.207       44.330       23.360     1102.724     1965.166      545.707        0.710        0.181      101.935       19.792        0.038      345.098       22.387      863.427
07/14/2013  00:32:00      -78.336       84.024       -4.936       48.184       36.986       37.546     2321.715     1367.989     1409.727        0.916        0.255      114.876       28.549        0.062      345.078       22.352      863.432
07/14/2013  00:33:00      -87.460       32.776      -17.141       27.737       30.133       19.996      769.346      908.004      399.836        0.555        0.104       93.400       16.406        0.031      345.202       22.563      863.442
07/14/2013  00:34:00      -40.298       20.702       -2.376       31.249       41.793       23.409      976.483     1746.638      547.999        0.266        0.164       45.305       17.163        0.144      345.175       22.517      863.447
07/14/2013  00:35:00      -92.114      -26.561       -0.713       43.853       35.036       13.113     1923.105     1227.531      171.951        0.626        0.166       95.867        8.237        0.007      345.137       22.451      863.458
07/14/2013  00:36:00     -126.831      -34.282      -12.508       25.118       19.005       14.173      630.918      361.193      200.877        0.931        0.060      131.382        9.326        0.005      344.972       22.169      863.460
07/14/2013  00:37:00     -139.526      -39.547       -5.881       54.187       33.228       20.320     2936.177     1104.127      412.904        1.276        0.223      145.023       15.324        0.011      344.902       22.050      863.451
07/14/2013  00:38:00     -150.641      -23.549      -10.845       41.267       46.922       27.698     1702.993     2201.645      767.169        1.402        0.234      152.470       20.093        0.017      344.839       21.943      863.448
07/14/2013  00:39:00     -122.472      -11.140      -16.433       27.611       22.524       16.920      762.372      507.344      286.283        0.847        0.078      122.978       12.586        0.010      344.872       22.000      863.436
07/14/2013  00:40:00     -106.186       -5.396      -11.839       33.702       23.436       24.424     1135.836      549.235      596.515        0.686        0.114      106.323       20.510        0.037      344.845       21.953      863.435
07/14/2013  00:41:00     -113.306      -15.624      -14.611       37.611       29.258       14.191     1414.597      856.051      201.375        0.788        0.124      114.378        8.404        0.005      344.917       22.076      863.427
07/14/2013  00:42:00     -121.415      -58.354      -11.752       61.454       35.675       27.860     3776.646     1272.709      776.174        1.205        0.291      134.710       12.513        0.009      344.892       22.033      863.419
07/14/2013  00:43:00     -114.591      -11.264        2.740       60.342       47.265       32.463     3641.134     2233.950     1053.845        1.010        0.346      115.144       19.410        0.028      344.753       21.794      863.405
07/14/2013  00:44:00     -180.596      -45.291      -13.527       64.909       57.272       34.282     4213.134     3280.138     1175.287        2.176        0.433      186.189       30.895        0.028      344.852       21.963      863.390
07/14/2013  00:45:00     -123.973      -51.459       -5.480       49.757       39.619       27.804     2475.735     1569.654      773.065        1.143        0.241      134.229       24.337        0.033      344.868       21.993      863.377
07/14/2013  00:46:00     -126.219      -41.056      -10.829       37.429       48.895       18.496     1400.913     2390.713      342.091        1.093        0.207      132.728       14.284        0.012      344.832       21.930      863.372
07/14/2013  00:47:00     -166.852      -32.966      -20.647       26.815       27.811       17.217      719.069      773.477      296.421        1.557        0.089      170.078        9.686        0.003      344.832       21.930      863.375
07/14/2013  00:48:00     -123.975      -55.886       -3.327       68.021       40.570       22.639     4626.871     1645.891      512.544        1.264        0.339      135.989       18.437        0.018      344.773       21.829      863.376
07/14/2013  00:49:00     -128.273       17.135       -4.464       37.536       24.906       18.938     1408.944      620.311      358.632        0.958        0.119      129.413       20.477        0.025      344.819       21.909      863.375
07/14/2013  00:50:00      -92.440       12.942       -6.107       31.680       22.449       18.561     1003.609      503.980      344.493        0.530        0.093       93.342       16.530        0.031      344.749       21.788      863.379
07/14/2013  00:51:00     -117.050        8.336       -9.249       45.933       45.498       21.923     2109.860     2070.109      480.630        0.926        0.233      117.347       16.489        0.020      344.872       21.999      863.394
07/14/2013  00:52:00      -51.770       18.196       -6.555       24.373       27.087       16.763      594.053      733.733      280.998        0.233        0.080       54.874       14.571        0.071      344.785       21.852      863.412
07/14/2013  00:53:00      -53.944       -8.185       -4.903       30.030       31.861       15.058      901.791     1015.133      226.757        0.257        0.107       54.562        6.910        0.016      344.842       21.948      863.424
07/14/2013  00:54:00      -78.328      -16.615       -6.674       53.182       22.029       17.493     2828.328      485.275      306.000        0.504        0.181       80.071       21.776        0.074      344.822       21.913      863.440
07/14/2013  00:55:00      -55.514       13.713      -11.868       27.739       25.042       18.523      769.460      627.087      343.099        0.257        0.087       57.183       17.108        0.090      344.841       21.947      863.442
07/14/2013  00:56:00      -97.547       32.220       -9.844       61.327       24.743       26.735     3760.968      612.240      714.771        0.787        0.254      102.731       22.633        0.049      344.927       22.093      863.441
07/14/2013  00:57:00     -114.749       16.761      -14.189       39.781       28.441       14.413     1582.524      808.903      207.740        0.812        0.130      115.966        6.842        0.003      344.967       22.164      863.435
07/14/2013  00:58:00      -67.378       14.057       -3.056       19.528       13.665        9.575      381.352      186.732       91.685        0.270        0.033       68.829        7.223        0.011      344.891       22.032      863.434
07/14/2013  00:59:00      -61.285       -3.577       -5.076       18.528       28.097       16.224      343.304      789.417      263.227        0.259        0.070       61.389       14.481        0.056      344.922       22.085      863.433
07/14/2013  01:00:00      -80.555       30.452       -7.362       79.301       26.663       19.838     6288.641      710.894      393.531        0.743        0.370       86.119       30.188        0.123      344.886       22.021      863.429
07/14/2013  01:01:00      -89.956       29.821      -11.693       44.771       40.756       27.745     2004.432     1661.068      769.781        0.678        0.222       94.770       20.072        0.045      344.921       22.083      863.411
07/14/2013  01:02:00     -122.658        2.748       -9.959       67.773       53.053       29.540     4593.220     2814.644      872.625        1.171        0.414      122.689       33.262        0.074      344.744       21.780      863.403
07/14/2013  01:03:00     -137.943       -9.176       -8.824       63.022       53.864       27.945     3971.739     2901.334      780.912        1.342        0.383      138.248       27.266        0.039      344.786       21.850      863.396
07/14/2013  01:04:00     -149.759        3.374       -9.356       33.997       45.835       27.619     1155.801     2100.881      762.817        1.327        0.201      149.797       22.661        0.023      344.818       21.906      863.387
07/14/2013  01:05:00     -125.961      -22.183      -13.519       46.163       37.546       17.625     2131.006     1409.706      310.643        1.020        0.193      127.899       17.839        0.019      344.822       21.914      863.397
07/14/2013  01:06:00      -85.399       -3.812        1.692       35.404       44.212       18.553     1253.439     1954.658      344.211        0.543        0.178       85.484       14.818        0.030      344.679       21.668      863.401
07/14/2013  01:07:00      -79.650      -35.957       -1.440       70.831       49.330       20.027     5017.089     2433.436      401.086        0.774        0.393       87.390       20.915        0.057      344.794       21.867      863.415
07/14/2013  01:08:00      -65.343      -31.805        2.573       36.334       27.510       21.305     1320.186      756.803      453.917        0.391        0.127       72.672       11.619        0.026      344.685       21.680      863.423
07/14/2013  01:09:00      -89.531      -38.532       -1.480       29.966       35.264       21.798      897.987     1243.531      475.159        0.606        0.131       97.471       18.643        0.037      344.699       21.701      863.438
07/14/2013  01:10:00      -12.577       -3.667        7.750       22.688       19.659        8.445      514.730      386.472       71.326        0.060        0.049       13.101        8.332        0.404      344.584       21.507      863.441
07/14/2013  01:11:00      -64.569       -5.234       -9.478       26.595       21.116        8.178      707.287      445.893       66.879        0.275        0.061       64.781       10.286        0.025      344.687       21.684      863.452
07/14/2013  01:12:00      -75.769      -41.322       -0.793       31.205       27.542       16.056      973.770      758.561      257.804        0.472        0.100       86.305       14.732        0.029      344.591       21.518      863.463
07/14/2013  01:13:00      -44.688      -22.787        5.483       40.022       34.474       20.800     1601.786     1188.453      432.627        0.288        0.161       50.162       19.093        0.145      344.545       21.439      863.458
07/14/2013  01:14:00      -81.814       17.652      -10.433       25.350       34.067       14.615      642.635     1160.553      213.590        0.456        0.101       83.697       14.348        0.029      344.492       21.349      863.460
07/14/2013  01:15:00      -72.642      -20.249       -1.723       21.533       19.126       11.722      463.657      365.816      137.407        0.333        0.048       75.411        9.012        0.014      344.537       21.425      863.467
07/14/2013  01:16:00      -53.799       -6.542       -1.432       29.132       12.443       13.957      848.646      154.832      194.802        0.207        0.060       54.195       17.523        0.105      344.603       21.539      863.481
07/14/2013  01:17:00      -61.116      -26.062       -2.131       38.503       22.741       16.739     1482.510      517.160      280.201        0.335        0.114       66.441       20.085        0.091      344.572       21.484      863.497
07/14/2013  01:18:00      -74.756       10.973       -9.088       35.338       29.986       15.027     1248.794      899.162      225.818        0.408        0.119       75.557        6.156        0.007      344.612       21.554      863.506
07/14/2013  01:19:00      -43.087       71.240       -2.429       35.624       39.728       22.537     1269.083     1578.342      507.915        0.515        0.168       83.257       18.334        0.048      344.496       21.357      863.505
07/14/2013  01:20:00     -115.175       48.864      -18.418       40.691       51.233       23.236     1655.784     2624.859      539.919        1.041        0.241      125.112       20.935        0.028      344.595       21.526      863.501
07/14/2013  01:21:00      -59.903        9.702      -19.508       29.236       37.551       20.057      854.726     1410.060      402.294        0.336        0.133       60.684       18.910        0.097      344.543       21.438      863.496
07/14/2013  01:22:00        8.150       25.784       -3.943       15.594       37.607       14.195      243.170     1414.285      201.508        0.130        0.093       27.042       16.268        0.362      344.472       21.316      863.482
07/14/2013  01:23:00        5.993       82.968       -7.229       27.607       32.954       17.687      762.127     1085.934      312.845        0.457        0.108       83.185       19.996        0.058      344.482       21.331      863.467
07/14/2013  01:24:00      -32.772       62.734      -14.131       22.316       25.344       13.000      497.991      642.337      169.010        0.326        0.065       70.778       11.212        0.025      344.430       21.245      863.457
07/14/2013  01:25:00      -43.062       34.451       -0.951       17.385       44.359       18.612      302.241     1967.751      346.394        0.283        0.131       55.147       16.997        0.095      344.412       21.213      863.458
07/14/2013  01:26:00      -56.186       11.339      -12.131       14.646       14.897        8.409      214.506      221.927       70.717        0.197        0.025       57.319        4.486        0.006      344.481       21.326      863.463
07/14/2013  01:27:00      -61.328      -21.261       -2.385       15.861       18.001       13.781      251.566      324.029      189.927        0.249        0.038       64.909       12.186        0.035      344.499       21.360      863.452
07/14/2013  01:28:00      -28.734      -24.113       -7.018       20.105       15.602       10.293      404.206      243.434      105.947        0.110        0.038       37.512        9.523        0.064      344.531       21.417      863.447
07/14/2013  01:29:00      -24.692       -2.011       -1.228       12.863       10.622        9.001      165.457      112.835       81.027        0.049        0.018       24.774        4.921        0.039      344.543       21.439      863.450
07/14/2013  01:30:00      -26.271       -6.161        6.359       24.893       21.387       20.331      619.638      457.398      413.359        0.113        0.075       26.983       21.079        0.610      344.527       21.409      863.451
07/14/2013  01:31:00      -11.321      -18.839        0.740       12.746       16.133        7.823      162.456      260.282       61.206        0.048        0.024       21.979        6.732        0.094      344.482       21.332      863.455
07/14/2013  01:32:00       -4.319      -45.698       -0.314       24.735       20.074       13.554      611.801      402.965      183.718        0.165        0.060       45.902       14.096        0.094      344.491       21.347      863.467
07/14/2013  01:33:00      -44.753      -31.734        0.410       27.833       24.492       12.564      774.670      599.854      157.843        0.227        0.077       54.862       12.258        0.050      344.427       21.238      863.473
07/14/2013  01:34:00       -0.619       -9.175        3.734       25.098       15.331       12.624      629.886      235.026      159.360        0.056        0.051        9.196       14.158        2.370      344.277       20.981      863.464
07/14/2013  01:35:00      -31.409       -8.960       -7.097       22.064       14.797        7.851      486.800      218.953       61.643        0.094        0.038       32.661        5.433        0.028      344.456       21.287      863.464
07/14/2013  01:36:00        8.731        6.010       -1.756       32.160       26.336       13.333     1034.274      693.570      177.781        0.101        0.095       10.599        6.472        0.373      344.435       21.253      863.455
07/14/2013  01:37:00       -6.735        0.463        8.474        9.552       19.974       11.610       91.248      398.948      134.796        0.037        0.031        6.751        9.998        2.193      344.235       20.910      863.464
07/14/2013  01:38:00        4.560      -56.008       -8.533       13.294       13.273       11.333      176.739      176.178      128.433        0.186        0.024       56.193        9.321        0.028      344.354       21.114      863.471
07/14/2013  01:39:00      -17.108       -7.225        9.090       14.808       21.617       12.176      219.277      467.297      148.256        0.063        0.042       18.571       11.103        0.357      344.339       21.088      863.477
07/14/2013  01:40:00       -6.110        0.444        6.460        7.735        9.570        3.895       59.829       91.576       15.173        0.012        0.008        6.126        2.820        0.212      344.218       20.882      863.471
07/14/2013  01:41:00        5.781      -16.497       -2.207        6.684        5.578        4.941       44.674       31.119       24.416        0.021        0.005       17.481        3.659        0.044      344.292       21.004      863.471
07/14/2013  01:42:00       11.232      -20.509       -3.600        9.521       10.799        4.899       90.652      116.627       24.005        0.040        0.012       23.383        3.143        0.018      344.349       21.106      863.469
07/14/2013  01:43:00       14.785      -18.806        5.520        8.405       10.465        5.413       70.644      109.521       29.304        0.041        0.010       23.922        3.991        0.028      344.340       21.090      863.473
07/14/2013  01:44:00        0.677      -29.262       -0.991       12.158       12.249        7.552      147.822      150.045       57.038        0.061        0.018       29.269        5.050        0.030      344.292       21.009      863.475
07/14/2013  01:45:00      -14.339      -30.500       -2.423        9.076       11.969        5.968       82.380      143.257       35.621        0.070        0.013       33.702        3.557        0.011      344.376       21.149      863.471
07/14/2013  01:46:00      -10.714      -31.531        2.447       18.214       16.490       11.814      331.761      271.931      139.579        0.093        0.037       33.302        4.656        0.020      344.331       21.074      863.472
07/14/2013  01:47:00       -3.966      -42.138       -4.249       15.357       16.914       15.332      235.853      286.075      235.064        0.128        0.038       42.324        5.750        0.018      344.251       20.938      863.472
07/14/2013  01:48:00       -4.009      -28.322      -11.157       15.272       17.838        8.788      233.249      318.194       77.231        0.079        0.031       28.605        8.234        0.083      344.214       20.872      863.479
07/14/2013  01:49:00      -35.717       -1.967        2.920       26.323       17.920       11.395      692.879      321.135      129.846        0.122        0.057       35.771       10.063        0.079      344.184       20.823      863.487
07/14/2013  01:50:00        1.854       -3.738        3.821       24.490       35.141       15.656      599.784     1234.856      245.123        0.106        0.104        4.173       22.712       29.629      344.119       20.711      863.487
07/14/2013  01:51:00      -49.034      -63.776       -3.137       29.845       22.008       15.866      890.697      484.340      251.726        0.405        0.081       80.447       13.385        0.028      344.202       20.855      863.495
07/14/2013  01:52:00      -98.407      -80.092      -12.716       25.880       36.508       16.241      669.750     1332.866      263.780        0.926        0.113      126.881       12.122        0.009      344.521       21.399      863.497
07/14/2013  01:53:00      -62.820      -39.448       -2.688       55.278       37.734       20.325     3055.630     1423.865      413.106        0.520        0.245       74.179       23.081        0.097      344.358       21.122      863.507
07/14/2013  01:54:00      -98.270     -109.645       -8.254       60.324       44.230       21.855     3638.945     1956.303      477.654        1.391        0.304      147.238       21.916        0.022      344.356       21.117      863.511
07/14/2013  01:55:00      -71.658      -50.934        3.910       59.303       39.036       20.449     3516.892     1523.806      418.171        0.660        0.273       87.915       24.753        0.079      344.259       20.949      863.511
07/14/2013  01:56:00      -90.983     -103.743       -3.529       49.402       58.259       21.720     2440.525     3394.103      471.755        1.268        0.315      137.987       24.151        0.031      344.288       20.999      863.501
07/14/2013  01:57:00     -120.745      -89.478       -0.466       59.136       70.156       31.700     3497.041     4921.854     1004.908        1.600        0.471      150.286       34.253        0.052      344.244       20.923      863.503
07/14/2013  01:58:00      -96.114     -113.996        5.570       59.422       76.518       35.806     3530.919     5854.946     1282.069        1.646        0.533      149.107       32.583        0.048      344.228       20.895      863.524
07/14/2013  01:59:00      -62.457      -97.908       -1.438       47.564       61.233       28.475     2262.376     3749.492      810.843        1.015        0.341      116.133       34.351        0.087      344.262       20.956      863.539
07/14/2013  02:00:00      -81.481      -92.372        8.332       57.435       57.665       31.668     3298.760     3325.309     1002.864        1.143        0.381      123.174       25.179        0.042      344.181       20.817      863.555
07/14/2013  02:01:00      -51.033      -53.722        5.321       40.459       37.386       21.028     1636.937     1397.729      442.158        0.450        0.174       74.098       19.182        0.067      344.105       20.690      863.577
07/14/2013  02:02:00      -12.690      -33.409        1.939       27.793       37.535       22.110      772.441     1408.848      488.835        0.198        0.134       35.738        6.407        0.032      344.075       20.637      863.605
07/14/2013  02:03:00        4.210      -30.992       15.175       26.084       41.000       21.550      680.399     1681.038      464.384        0.202        0.141       31.276       25.153        0.647      343.977       20.471      863.622
07/14/2013  02:04:00      -27.890      -40.100       -2.580       39.708       55.962       32.260     1576.737     3131.777     1040.689        0.407        0.287       48.846       35.829        0.538      344.086       20.656      863.631
07/14/2013  02:05:00       23.076      -10.078       20.220       25.774       26.757       26.570      664.298      715.957      705.981        0.156        0.104       25.181       25.203        1.002      343.956       20.434      863.638
07/14/2013  02:06:00       15.829       10.823       12.693       25.341       18.058       29.599      642.168      326.084      876.124        0.119        0.092       19.176       16.645        0.753      343.781       20.134      863.650
07/14/2013  02:07:00      -18.030       16.181      -11.749       19.863       18.375       13.551      394.523      337.626      183.643        0.082        0.046       24.226       10.707        0.195      343.664       19.936      863.657
07/14/2013  02:08:00      -10.248      -27.213        5.914       18.412       22.363       16.294      338.993      500.085      265.503        0.099        0.055       29.079       16.841        0.335      343.942       20.410      863.647
07/14/2013  02:09:00       29.392       15.054       20.566       17.557       14.253       19.913      308.241      203.142      396.515        0.121        0.045       33.022       15.739        0.227      343.811       20.185      863.643
07/14/2013  02:10:00       18.309       30.727       -6.172       12.623        9.238        5.657      159.352       85.343       32.004        0.080        0.014       35.768        3.573        0.010      343.744       20.072      863.651
07/14/2013  02:11:00      -56.258       -3.234      -13.058       32.443       31.384       17.668     1052.567      984.969      312.151        0.285        0.117       56.351       11.098        0.039      343.944       20.413      863.646
07/14/2013  02:12:00      -12.975      -49.056        3.169       27.901       16.708       11.248      778.482      279.163      126.510        0.188        0.059       50.743        8.893        0.031      343.903       20.344      863.638
07/14/2013  02:13:00      -27.530      -36.561       10.483       25.697       27.161       14.890      660.357      737.736      221.719        0.191        0.081       45.767       10.943        0.057      343.936       20.399      863.633
07/14/2013  02:14:00      -68.612      -15.303       -2.394       33.108       18.038       15.333     1096.167      325.377      235.094        0.330        0.083       70.298       18.521        0.069      343.933       20.396      863.645
07/14/2013  02:15:00      -11.627      -32.810        5.837       14.760       19.103       12.660      217.859      364.915      160.277        0.099        0.037       34.810        9.831        0.080      343.890       20.321      863.652
07/14/2013  02:16:00      -22.572      -57.065        0.776       25.468       33.573       15.809      648.607     1127.136      249.932        0.290        0.101       61.367       16.446        0.072      343.906       20.346      863.659
07/14/2013  02:17:00      -35.097     -100.413       -7.296       40.540       30.530       21.003     1643.503      932.068      441.135        0.719        0.151      106.370       15.520        0.021      343.869       20.286      863.655
07/14/2013  02:18:00      -98.555     -115.047      -10.688       34.535       36.050       22.561     1192.651     1299.577      509.011        1.303        0.150      151.489       12.923        0.007      343.820       20.202      863.672
07/14/2013  02:19:00      -63.644      -80.486        1.801       41.833       43.065       28.632     1749.962     1854.603      819.803        0.748        0.221      102.609       20.546        0.040      343.821       20.202      863.670
07/14/2013  02:20:00      -73.986      -50.462        1.268       49.841       22.477       16.849     2484.154      505.220      283.894        0.565        0.164       89.557       16.992        0.036      343.775       20.124      863.662
07/14/2013  02:21:00      -28.025      -16.085        4.170       46.615       28.850       21.454     2172.952      832.348      460.294        0.226        0.173       32.313       22.291        0.476      343.730       20.047      863.667
07/14/2013  02:22:00       -5.295      -29.719        6.950       31.758       27.550       16.189     1008.579      759.003      262.083        0.149        0.101       30.187       11.112        0.136      343.748       20.076      863.670
07/14/2013  02:23:00      -36.692      -31.092       -4.570       41.414       22.045       18.586     1715.118      485.993      345.455        0.244        0.127       48.094       20.124        0.175      343.809       20.184      863.677
07/14/2013  02:24:00      -67.611      -29.090       -4.739       28.333       20.546       15.156      802.778      422.142      229.719        0.345        0.073       73.603        5.134        0.005      343.730       20.049      863.671
07/14/2013  02:25:00      -61.234      -29.405        1.442       25.027       38.207       17.384      626.359     1459.777      302.208        0.350        0.119       67.928       13.410        0.039      343.738       20.060      863.678
07/14/2013  02:26:00      -21.505      -56.446       12.212       25.407       25.105       19.622      645.539      630.275      385.021        0.273        0.083       60.404       16.314        0.073      343.702       19.999      863.669
07/14/2013  02:27:00      -70.207      -53.737       -0.163       46.074       36.940       18.770     2122.793     1364.566      352.312        0.583        0.192       88.412       19.746        0.050      343.752       20.086      863.649
07/14/2013  02:28:00     -102.234      -53.613       -1.023       42.122       31.104       18.247     1774.291      967.436      332.945        0.820        0.154      115.439       13.330        0.013      343.673       19.950      863.641
07/14/2013  02:29:00      -78.843       11.712       -7.910       40.604       39.736       22.001     1648.721     1578.926      484.023        0.506        0.186       79.708       19.867        0.062      343.375       19.443      863.649
07/14/2013  02:30:00     -111.458        7.005       -5.944       65.164       26.452       19.570     4246.317      699.697      382.984        0.892        0.266      111.678       25.986        0.054      343.173       19.099      863.657
07/14/2013  02:31:00      -79.037      -13.386        2.561       52.720       29.730       24.415     2779.450      883.872      596.098        0.535        0.213       80.162       26.998        0.113      343.098       18.971      863.664
07/14/2013  02:32:00     -118.759      -14.488       -1.094       52.577       36.356       21.962     2764.376     1321.783      482.320        0.944        0.228      119.640       25.474        0.045      343.174       19.101      863.661
07/14/2013  02:33:00      -98.010      -55.416        2.682       39.600       34.782       21.054     1568.125     1209.783      443.291        0.795        0.161      112.592       16.784        0.022      343.315       19.340      863.656
07/14/2013  02:34:00      -77.322      -61.708       -4.446       38.947       30.821       19.534     1516.891      949.904      381.590        0.633        0.142       98.927       15.545        0.025      343.338       19.380      863.656
07/14/2013  02:35:00      -86.796      -85.021        0.633       48.010       37.275       20.267     2304.987     1389.406      410.747        0.943        0.205      121.500       19.089        0.025      343.335       19.374      863.655
07/14/2013  02:36:00     -104.420      -87.080       -0.053       63.509       44.389       33.729     4033.451     1970.379     1137.612        1.281        0.357      135.965       33.473        0.061      343.391       19.469      863.646
07/14/2013  02:37:00     -126.451      -86.939       -1.583       53.464       51.449       26.889     2858.450     2647.030      723.023        1.489        0.311      153.454       26.453        0.030      343.363       19.420      863.638
07/14/2013  02:38:00     -114.667      -85.678       -5.028       42.706       38.722       23.927     1823.782     1499.413      572.483        1.220        0.195      143.141       24.012        0.028      343.305       19.323      863.648
07/14/2013  02:39:00      -81.311        5.003        9.386       46.951       36.523       20.646     2204.408     1333.947      426.241        0.534        0.198       81.464       22.137        0.074      343.216       19.171      863.656
07/14/2013  02:40:00     -121.058       45.848      -14.777       42.740       24.212       22.274     1826.719      586.244      496.138        0.994        0.145      129.449       21.711        0.028      342.894       18.622      863.655
07/14/2013  02:41:00      -93.271       42.897      -21.981       26.415       55.070       16.828      697.758     3032.685      283.174        0.752        0.201      102.663        6.422        0.004      342.942       18.707      863.651
07/14/2013  02:42:00      -51.828      -22.254       -3.938       28.971       28.474       23.436      839.331      810.759      549.255        0.270        0.110       56.404       19.758        0.123      342.958       18.735      863.662
07/14/2013  02:43:00      -54.492      -38.818       -6.969       49.055       23.810       20.870     2406.350      566.932      435.561        0.397        0.170       66.904       24.345        0.132      342.913       18.656      863.658
07/14/2013  02:44:00      -81.832      -16.627       -3.614       28.651       26.947       15.309      820.893      726.152      234.364        0.438        0.089       83.504       16.951        0.041      342.844       18.538      863.662
07/14/2013  02:45:00      -91.154      -52.667       -5.422       22.245       22.111       17.223      494.857      488.892      296.630        0.620        0.064      105.275       12.693        0.015      342.822       18.501      863.676
07/14/2013  02:46:00      -96.279        0.718        1.470       52.474       42.628       28.628     2753.519     1817.105      819.559        0.733        0.270       96.282       31.185        0.105      342.769       18.411      863.685
07/14/2013  02:47:00     -101.277      -24.822       -5.111       37.218       29.549       18.966     1385.173      873.134      359.712        0.676        0.131      104.274       19.038        0.033      342.745       18.370      863.690
07/14/2013  02:48:00      -94.873      -45.782        4.195       28.029       22.062       18.403      785.624      486.740      338.685        0.636        0.081      105.342       17.467        0.027      342.793       18.453      863.696
07/14/2013  02:49:00      -76.784      -39.467       -4.816       16.756       14.291       12.379      280.751      204.223      153.232        0.406        0.032       86.333        7.676        0.008      342.866       18.575      863.678
07/14/2013  02:50:00      -73.278      -37.534       -3.369       29.799       18.564       16.964      888.004      344.636      287.791        0.415        0.076       82.331       14.905        0.033      342.872       18.587      863.670
07/14/2013  02:51:00      -54.260      -31.445        7.060       34.539       19.045       15.983     1192.933      362.704      255.450        0.290        0.091       62.713       19.756        0.099      342.918       18.664      863.665
07/14/2013  02:52:00      -83.313      -40.730        3.332       38.800       28.185       15.592     1505.435      794.413      243.118        0.558        0.127       92.736       19.201        0.043      342.988       18.784      863.654
07/14/2013  02:53:00      -81.652      -62.276        0.732       39.792       34.909       23.599     1583.426     1218.672      556.894        0.695        0.168      102.691       22.979        0.050      342.963       18.741      863.646
07/14/2013  02:54:00     -167.419      -46.452      -17.047       36.999       32.256       19.411     1368.903     1040.428      376.800        1.663        0.139      173.744       17.851        0.011      342.762       18.398      863.645
07/14/2013  02:55:00     -132.594      -42.993       -6.324       25.527       21.241       17.621      651.624      451.191      310.495        1.044        0.071      139.390       13.408        0.009      342.633       18.179      863.638
07/14/2013  02:56:00      -97.792      -21.591      -10.273       32.305       24.769       16.981     1043.630      613.500      288.350        0.604        0.097      100.147       13.407        0.018      342.657       18.221      863.633
07/14/2013  02:57:00      -38.583      -28.311        0.388       35.494       29.871       18.203     1259.809      892.274      331.344        0.239        0.124       47.855       21.867        0.209      342.695       18.285      863.651
07/14/2013  02:58:00      -90.923      -60.488       -8.123       21.811       18.416       14.763      475.709      339.153      217.942        0.651        0.052      109.206        6.406        0.003      342.929       18.684      863.662
07/14/2013  02:59:00      -51.368      -34.329        5.753       40.106       26.968       17.090     1608.479      727.253      292.072        0.324        0.131       61.783       13.528        0.048      342.927       18.679      863.669
07/14/2013  03:00:00      -86.644      -36.833       -1.588       39.075       25.206       16.880     1526.821      635.343      284.938        0.566        0.122       94.148       20.794        0.049      342.909       18.648      863.673
07/14/2013  03:01:00     -110.357      -34.684      -11.657       16.199       17.251       11.807      262.401      297.590      139.399        0.711        0.035      115.679        2.205        0.000      342.779       18.427      863.673
07/14/2013  03:02:00      -89.194      -32.568       -3.717       21.824       34.269       15.108      476.302     1174.351      228.248        0.545        0.094       94.954       16.672        0.031      342.646       18.200      863.670
07/14/2013  03:03:00      -23.734      -29.836        6.535       30.237       20.119       13.831      914.294      404.769      191.308        0.150        0.076       38.125       14.156        0.138      342.590       18.107      863.659
07/14/2013  03:04:00      -71.585      -41.933        0.573       28.675       17.697       14.602      822.228      313.171      213.227        0.412        0.067       82.962       11.787        0.020      342.621       18.159      863.655
07/14/2013  03:05:00      -85.898      -24.022       -6.623       16.721       19.125        9.197      279.587      365.782       84.589        0.436        0.036       89.194        7.621        0.007      342.592       18.110      863.652
07/14/2013  03:06:00      -80.764        4.128       -7.404       17.419       13.123        9.940      303.417      172.207       98.802        0.358        0.029       80.869        5.621        0.005      342.636       18.183      863.645
07/14/2013  03:07:00      -76.450       -3.753       -6.198       16.235       16.460       10.042      263.577      270.922      100.848        0.327        0.032       76.542        8.318        0.012      342.671       18.242      863.648
07/14/2013  03:08:00      -42.609       16.979       -5.606       27.924       29.318       13.380      779.774      859.571      179.027        0.198        0.091       45.868       14.505        0.100      342.590       18.106      863.645
07/14/2013  03:09:00      -53.393       47.589      -10.972       28.163       18.800       13.735      793.161      353.438      188.654        0.329        0.067       71.523       13.487        0.036      342.947       18.713      863.646
07/14/2013  03:10:00      -41.206       31.783       -6.994       14.051       17.299        6.666      197.442      299.268       44.437        0.165        0.027       52.039        8.237        0.025      343.403       19.491      863.652
07/14/2013  03:11:00      -18.440      -28.018        0.802       32.491       20.065       16.266     1055.669      402.593      264.597        0.142        0.086       33.541       16.143        0.232      342.858       18.561      863.669
07/14/2013  03:12:00      -44.137      -56.337        1.272       49.296       24.439       24.202     2430.139      597.241      585.734        0.437        0.181       71.568       26.710        0.139      342.607       18.135      863.675
07/14/2013  03:13:00      -65.622      -41.555       -2.708       23.714       17.986       12.216      562.366      323.479      149.234        0.354        0.052       77.673        8.142        0.011      342.604       18.129      863.673
07/14/2013  03:14:00      -76.025      -15.229      -10.966       12.769       19.219        9.638      163.037      369.363       92.890        0.338        0.031       77.536        7.580        0.010      342.850       18.548      863.670
07/14/2013  03:15:00     -106.663        5.557      -13.135       24.577       14.320       10.922      604.043      205.049      119.280        0.625        0.046      106.808       11.391        0.011      342.605       18.133      863.656
07/14/2013  03:16:00     -142.662      -12.011      -18.526       21.635       20.435       15.406      468.053      417.592      237.333        1.098        0.056      143.167       10.653        0.006      342.419       17.815      863.662
07/14/2013  03:17:00     -125.126      -42.507       -6.709       32.648       28.648       16.604     1065.891      820.716      275.684        0.983        0.108      132.149       15.731        0.014      342.412       17.803      863.673
07/14/2013  03:18:00     -107.583      -29.690       -1.077       32.866       23.878       18.641     1080.163      570.170      347.503        0.723        0.100      111.605       18.337        0.027      342.476       17.911      863.665
07/14/2013  03:19:00      -78.419      -38.285        0.175       18.344       12.408        8.959      336.513      153.965       80.267        0.409        0.029       87.265        4.379        0.003      342.644       18.199      863.666
07/14/2013  03:20:00      -59.297      -24.299       -8.157        9.848       13.636        8.236       96.988      185.929       67.834        0.226        0.018       64.083        6.008        0.009      342.897       18.628      863.666
07/14/2013  03:21:00      -87.050      -37.647      -10.473       22.664       12.656        7.656      513.648      160.175       58.616        0.492        0.037       94.842        7.293        0.006      342.974       18.760      863.670
07/14/2013  03:22:00     -123.093      -81.263      -10.761       41.832       39.576       23.596     1749.913     1566.223      556.766        1.287        0.194      147.497        8.830        0.004      342.567       18.067      863.682
07/14/2013  03:23:00     -148.114      -31.412      -12.619       29.680       25.977       14.057      880.929      674.814      197.590        1.242        0.088      151.409        9.412        0.004      342.449       17.865      863.694
07/14/2013  03:24:00      -90.629      -12.608       -1.906       39.414       20.667       20.519     1553.469      427.133      421.047        0.539        0.120       91.502       21.825        0.057      342.347       17.694      863.699
07/14/2013  03:25:00      -79.565      -42.719        3.477       52.548       22.501       15.214     2761.334      506.294      231.457        0.583        0.175       90.308       22.683        0.063      342.583       18.094      863.706
07/14/2013  03:26:00      -77.462       -4.150       -1.504       54.515       43.674       22.453     2971.833     1907.378      504.130        0.570        0.269       77.573       20.546        0.070      342.545       18.030      863.717
07/14/2013  03:27:00      -89.127      -34.177       -1.624       86.159       33.339       27.949     7423.399     1111.522      781.146        0.921        0.466       95.456       35.910        0.142      342.757       18.391      863.715
07/14/2013  03:28:00      -36.707       -4.483        8.473       56.386       22.275       22.541     3179.398      496.195      508.104        0.281        0.209       36.979       29.718        0.646      342.595       18.113      863.709
07/14/2013  03:29:00      -60.734       -5.692       -0.006       30.313       22.167       14.739      918.869      491.373      217.235        0.267        0.081       61.000       15.845        0.067      342.544       18.027      863.713
07/14/2013  03:30:00      -84.213       -8.024      -13.110       18.680       14.097       11.232      348.936      198.722      126.148        0.400        0.034       84.595        8.954        0.011      342.468       17.900      863.719
07/14/2013  03:31:00      -91.995      -15.838       -7.947       38.113       23.083       15.542     1452.612      532.828      241.544        0.550        0.111       93.349       15.475        0.027      342.381       17.751      863.711
07/14/2013  03:32:00      -62.830       -8.238       -0.174       38.035       26.297       19.226     1446.644      691.529      369.632        0.326        0.125       63.368       19.254        0.092      342.359       17.714      863.719
07/14/2013  03:33:00      -83.666      -13.104       -7.373       32.496       20.836       18.299     1056.005      434.140      334.843        0.453        0.091       84.686       17.466        0.043      342.366       17.723      863.721
07/14/2013  03:34:00      -80.766       -4.366       -6.838       48.781       34.484       21.671     2379.605     1189.177      469.612        0.531        0.202       80.884       20.075        0.062      342.450       17.867      863.715
07/14/2013  03:35:00     -133.871       18.888       -8.874       35.862       26.041       20.591     1286.052      678.115      423.973        1.037        0.119      135.197       20.897        0.024      342.477       17.915      863.719
07/14/2013  03:36:00     -101.469       -0.583       -6.444       33.271       21.195       13.876     1106.992      449.216      192.534        0.604        0.087      101.471       10.593        0.011      342.450       17.869      863.716
07/14/2013  03:37:00      -89.052      -39.709       -3.759       19.709       25.426       11.882      388.457      646.486      141.188        0.535        0.059       97.504        7.737        0.006      342.374       17.738      863.703
07/14/2013  03:38:00      -75.899      -25.996       -1.403       25.800       22.065       15.895      665.646      486.845      252.637        0.392        0.070       80.227       14.814        0.034      342.270       17.562      863.711
07/14/2013  03:39:00      -45.107      -26.589        2.941       30.999       28.794       14.133      960.951      829.088      199.747        0.237        0.099       52.361       10.866        0.043      342.417       17.811      863.710
07/14/2013  03:40:00      -86.029        5.300       -5.416       16.338       19.239        8.732      266.923      370.126       76.250        0.409        0.036       86.192        6.294        0.005      342.242       17.514      863.706
07/14/2013  03:41:00      -50.532      -24.620       -2.831       16.940       15.534       13.553      286.977      241.292      183.672        0.194        0.036       56.211       10.113        0.032      342.323       17.651      863.710
07/14/2013  03:42:00      -26.397      -21.729        6.862       21.108       13.906        9.483      445.529      193.390       89.932        0.097        0.036       34.190        9.743        0.081      342.295       17.604      863.715
07/14/2013  03:43:00      -48.629      -26.606        5.415       35.478       19.330       14.203     1258.663      373.656      201.732        0.247        0.092       55.431       13.906        0.063      342.348       17.694      863.710
07/14/2013  03:44:00       -9.065      -29.052       10.352       28.256       20.979       14.156      798.414      440.120      200.399        0.124        0.072       30.434       12.013        0.156      342.362       17.717      863.701
07/14/2013  03:45:00      -96.303      -40.881       -5.962       22.362       20.634       12.554      500.059      425.770      157.599        0.603        0.054      104.621       11.031        0.011      342.266       17.554      863.716
07/14/2013  03:46:00      -32.158      -37.755        8.500       34.394       24.218       21.722     1182.920      586.491      471.858        0.239        0.112       49.594       22.169        0.200      342.266       17.555      863.712
07/14/2013  03:47:00      -49.546      -45.262        9.598       40.032       29.375       21.444     1602.532      862.900      459.839        0.376        0.146       67.108       24.337        0.132      342.371       17.733      863.706
07/14/2013  03:48:00      -58.152      -53.968        7.385       42.675       27.406       23.100     1821.146      751.071      533.625        0.473        0.155       79.337       24.499        0.095      342.287       17.592      863.715
07/14/2013  03:49:00      -53.321      -59.066       11.783       40.008       35.767       25.567     1600.677     1279.295      653.665        0.500        0.177       79.573       24.443        0.094      342.268       17.559      863.726
07/14/2013  03:50:00      -80.087      -80.465        0.970       39.978       37.635       26.816     1598.201     1416.378      719.109        0.831        0.187      113.527       21.304        0.035      342.298       17.610      863.726
07/14/2013  03:51:00      -73.114      -67.589        5.274       52.673       39.215       30.980     2774.432     1537.813      959.778        0.761        0.264       99.569       27.601        0.077      342.336       17.674      863.733
07/14/2013  03:52:00      -93.955      -83.600       -2.726       55.373       42.545       25.406     3066.207     1810.062      645.466        1.067        0.276      125.764       28.539        0.051      342.325       17.656      863.749
07/14/2013  03:53:00     -106.387     -106.359       -2.722       53.186       51.014       28.343     2828.709     2602.445      803.341        1.443        0.312      150.434       29.891        0.039      342.281       17.580      863.746
07/14/2013  03:54:00      -78.378      -85.986       -8.802       64.066       34.434       25.435     4104.512     1185.725      646.929        0.977        0.297      116.347       18.482        0.025      342.382       17.752      863.745
07/14/2013  03:55:00      -66.370      -67.597        6.980       51.239       45.932       33.506     2625.399     2109.785     1122.681        0.744        0.293       94.733       29.126        0.095      342.418       17.813      863.753
07/14/2013  03:56:00      -70.621      -62.942       12.232       63.381       45.638       31.076     4017.206     2082.803      965.720        0.808        0.353       94.599       30.122        0.101      342.335       17.672      863.747
07/14/2013  03:57:00      -60.617      -49.784        1.378       34.500       30.224       24.054     1190.265      913.502      578.605        0.442        0.134       78.440       20.133        0.066      342.208       17.456      863.740
07/14/2013  03:58:00      -75.828      -40.335        4.806       54.518       28.108       19.272     2972.180      790.079      371.397        0.577        0.207       85.888       21.883        0.065      342.185       17.416      863.744
07/14/2013  03:59:00      -63.374      -57.761       -1.098       35.028       29.527       18.362     1226.955      871.865      337.147        0.489        0.122       85.747       17.022        0.039      342.177       17.403      863.755
07/14/2013  04:00:00      -79.393      -77.330        5.169       46.929       46.390       32.296     2202.337     2152.000     1043.008        0.885        0.270      110.830       29.163        0.069      342.134       17.330      863.754
07/14/2013  04:01:00     -179.915      -92.351        0.040       55.709       45.527       30.757     3103.503     2072.704      945.996        2.351        0.306      202.233       26.717        0.017      342.101       17.273      863.764
07/14/2013  04:02:00      -81.613      -45.858        4.934       60.098       46.570       24.520     3611.826     2168.755      601.223        0.758        0.319       93.615       22.471        0.058      342.086       17.250      863.767
07/14/2013  04:03:00      -56.639      -61.458        5.043       42.962       38.263       26.690     1845.741     1464.087      712.368        0.552        0.201       83.577       26.847        0.103      342.113       17.294      863.761
07/14/2013  04:04:00      -82.786      -88.380       -1.389       55.350       46.538       29.086     3063.647     2165.812      845.971        1.037        0.304      121.097       27.694        0.052      342.159       17.374      863.761
07/14/2013  04:05:00     -120.158      -88.407        7.759       86.466       59.623       35.705     7476.444     3554.862     1274.877        1.731        0.615      149.177       40.220        0.073      342.101       17.273      863.752
07/14/2013  04:06:00     -120.833      -82.691        2.237       59.247       45.802       26.965     3510.205     2097.845      727.104        1.389        0.317      146.418       22.339        0.023      342.102       17.278      863.736
07/14/2013  04:07:00     -129.904      -57.048      -11.784       37.384       48.768       23.280     1397.561     2378.300      541.979        1.229        0.216      141.879       17.766        0.016      342.063       17.209      863.731
07/14/2013  04:08:00     -120.652       -5.464        3.266       52.357       38.722       29.791     2741.246     1499.365      887.497        0.986        0.256      120.776       27.121        0.050      341.831       16.817      863.723
07/14/2013  04:09:00     -143.553      -49.302       -3.866       52.753       42.030       30.259     2782.832     1766.481      915.586        1.426        0.273      151.783       29.712        0.038      341.805       16.772      863.707
07/14/2013  04:10:00     -139.870      -31.855       -1.949       61.557       48.943       28.972     3789.237     2395.416      839.393        1.380        0.351      143.452       30.232        0.044      341.846       16.841      863.691
07/14/2013  04:11:00     -101.469      -59.612       -3.434       52.833       43.302       26.191     2791.320     1875.095      685.970        0.961        0.268      117.684       26.909        0.052      341.846       16.842      863.683
07/14/2013  04:12:00      -96.890      -58.066       -3.053       54.866       43.362       24.121     3010.323     1880.287      581.806        0.912        0.274      112.957       11.752        0.011      341.860       16.867      863.689
07/14/2013  04:13:00     -123.550      -53.121       -2.725       52.936       46.275       26.482     2802.210     2141.402      701.270        1.187        0.282      134.486       28.011        0.043      341.831       16.817      863.698
07/14/2013  04:14:00      -98.519      -41.313       -3.051       43.134       38.094       23.761     1860.584     1451.134      564.575        0.765        0.194      106.830       23.101        0.047      341.830       16.816      863.702
07/14/2013  04:15:00     -142.187      -45.580        1.684       66.201       45.713       27.672     4382.562     2089.678      765.758        1.477        0.362      149.314       35.813        0.058      341.825       16.804      863.720
07/14/2013  04:16:00     -162.536      -51.522       -4.588       48.512       50.375       26.084     2353.424     2537.661      680.362        1.733        0.279      170.506       23.969        0.020      341.794       16.753      863.708
07/14/2013  04:17:00     -153.146      -62.292      -15.836       31.857       39.036       21.838     1014.842     1523.813      476.893        1.530        0.151      165.330       12.154        0.005      341.839       16.830      863.713
07/14/2013  04:18:00     -116.320      -56.212       -4.016       34.446       28.771       20.768     1186.539      827.746      431.318        0.958        0.122      129.190       19.568        0.023      341.839       16.829      863.717
07/14/2013  04:19:00     -101.086      -26.979       -0.835       30.146       29.281       18.717      908.757      857.372      350.312        0.653        0.106      104.625       17.492        0.028      341.822       16.801      863.713
07/14/2013  04:20:00     -127.929      -56.683        7.088       50.938       40.845       28.317     2594.664     1668.318      801.857        1.235        0.253      139.924       28.088        0.040      341.765       16.705      863.717
07/14/2013  04:21:00     -116.012      -74.030        0.770       41.576       35.726       25.850     1728.529     1276.336      668.231        1.131        0.184      137.620       21.354        0.024      341.827       16.810      863.718
07/14/2013  04:22:00     -131.315      -70.529        1.483       34.254       27.541       18.142     1173.327      758.494      329.146        1.224        0.113      149.057       18.506        0.015      341.833       16.819      863.723
07/14/2013  04:23:00      -78.242      -56.857       -0.760       60.758       25.118       19.176     3691.570      630.896      367.728        0.702        0.235       96.719       25.174        0.068      341.842       16.835      863.746
07/14/2013  04:24:00      -84.123      -31.846       -8.127       42.558       26.548       16.053     1811.225      704.796      257.714        0.546        0.139       89.949       17.333        0.037      341.882       16.903      863.756
07/14/2013  04:25:00      -96.273      -20.209       -4.892       18.673       28.286       16.216      348.692      800.106      262.954        0.556        0.071       98.371       11.775        0.014      341.796       16.757      863.771
07/14/2013  04:26:00      -67.561      -38.667        2.094       38.651       25.335       17.491     1493.902      641.876      305.938        0.425        0.122       77.843       19.409        0.062      341.809       16.780      863.775
07/14/2013  04:27:00      -45.799      -24.094       13.624       38.385       26.314       17.407     1473.395      692.432      302.995        0.267        0.123       51.750       19.799        0.146      341.800       16.763      863.763
07/14/2013  04:28:00      -71.636      -43.735       -0.540       43.943       32.534       17.231     1930.969     1058.437      296.924        0.516        0.164       83.931       22.387        0.071      341.805       16.772      863.762
07/14/2013  04:29:00      -84.433      -39.511       -2.238       36.792       40.042       16.167     1353.665     1603.382      261.366        0.596        0.161       93.221       18.919        0.041      341.822       16.802      863.767
07/14/2013  04:30:00      -82.341      -55.314        3.779       31.866       25.980       16.704     1015.431      674.937      279.020        0.591        0.098       99.195       14.795        0.022      341.852       16.852      863.764
07/14/2013  04:31:00     -114.603      -25.268       -9.049       23.760       24.505       14.194      564.526      600.512      201.479        0.761        0.068      117.355       10.987        0.009      341.781       16.731      863.765
07/14/2013  04:32:00     -114.619      -28.778       -1.100       31.980       27.049       18.892     1022.709      731.670      356.897        0.804        0.106      118.177       17.139        0.021      341.725       16.636      863.766
07/14/2013  04:33:00      -98.093      -41.957        4.222       34.916       31.562       22.118     1219.106      996.138      489.196        0.705        0.135      106.689       17.042        0.026      341.666       16.538      863.763
07/14/2013  04:34:00      -55.130      -50.421        3.515       43.089       22.738       19.600     1856.704      517.018      384.142        0.418        0.138       74.710       21.610        0.084      341.755       16.688      863.761
07/14/2013  04:35:00      -78.699      -38.988       -9.675       17.641       13.382       12.247      311.215      179.084      149.993        0.422        0.032       87.827        5.545        0.004      341.768       16.710      863.779
07/14/2013  04:36:00      -96.309      -31.452       -2.892       20.332       20.681       16.007      413.372      427.709      256.226        0.568        0.055      101.315       10.630        0.011      341.735       16.654      863.784
07/14/2013  04:37:00      -78.680      -37.899       -6.897       31.330       21.859       15.914      981.576      477.824      253.268        0.469        0.086       87.332       10.363        0.014      341.704       16.602      863.784
07/14/2013  04:38:00      -58.985      -19.849        0.908       28.025       16.261       15.415      785.426      264.410      237.616        0.258        0.064       62.236       15.542        0.062      341.700       16.595      863.801
07/14/2013  04:39:00      -35.774      -29.560        3.539       24.945       14.465       12.034      622.263      209.229      144.806        0.157        0.049       46.406        8.339        0.032      341.769       16.710      863.815
07/14/2013  04:40:00      -50.844      -49.546       -1.987       35.099       24.805       15.343     1231.942      615.265      235.400        0.356        0.104       70.992       13.688        0.037      341.779       16.728      863.820
07/14/2013  04:41:00      -92.945      -88.323       -8.856       29.135       25.363       15.963      848.840      643.282      254.825        0.913        0.087      128.218       18.184        0.020      341.763       16.701      863.829
07/14/2013  04:42:00      -91.320      -53.499       -2.925       33.593       26.761       17.060     1128.467      716.125      291.038        0.667        0.107      105.838       11.894        0.013      341.821       16.799      863.834
07/14/2013  04:43:00      -99.040      -63.905       -0.832       40.488       28.238       19.513     1639.275      797.391      380.767        0.835        0.141      117.867       16.998        0.021      341.837       16.827      863.838
07/14/2013  04:44:00      -65.230      -51.183        2.068       50.372       29.516       22.934     2537.322      871.172      525.947        0.541        0.197       82.913       25.985        0.098      341.695       16.586      863.838
07/14/2013  04:45:00      -98.547      -37.692       -0.314       28.330       32.912       17.365      802.575     1083.187      301.539        0.666        0.109      105.510       16.089        0.023      341.728       16.643      863.828
07/14/2013  04:46:00      -33.036      -46.567        6.257       25.957       21.724       17.605      673.774      471.946      309.925        0.238        0.073       57.095       13.714        0.058      341.692       16.581      863.825
07/14/2013  04:47:00      -27.238      -24.329        5.208       27.820       17.751       12.081      773.963      315.100      145.944        0.130        0.062       36.522       11.807        0.105      341.771       16.714      863.825
07/14/2013  04:48:00      -56.460      -34.139        1.716       51.488       25.031       17.359     2651.056      626.575      301.340        0.397        0.179       65.979       21.212        0.103      341.727       16.641      863.832
07/14/2013  04:49:00      -61.099      -39.462        4.545       44.156       25.417       18.560     1949.756      646.000      344.479        0.412        0.147       72.734       19.839        0.074      341.689       16.577      863.837
07/14/2013  04:50:00      -71.386      -31.821       -0.499       30.320       14.475       13.514      919.308      209.527      182.629        0.371        0.066       78.157       14.426        0.034      341.609       16.441      863.848
07/14/2013  04:51:00     -101.799      -52.408       -6.969       16.457       17.552       10.277      270.849      308.083      105.622        0.692        0.034      114.497        5.712        0.002      341.731       16.649      863.850
07/14/2013  04:52:00      -78.749      -41.992       -2.165       25.410       19.493       12.181      645.652      379.983      148.367        0.457        0.059       89.246       11.479        0.017      341.684       16.569      863.847
07/14/2013  04:53:00      -92.275      -37.586       -0.198       28.031       17.970       13.811      785.747      322.928      190.731        0.561        0.065       99.636        9.467        0.009      341.591       16.409      863.849
07/14/2013  04:54:00      -87.975      -25.299        3.966       20.213       16.304       12.544      408.553      265.821      157.362        0.461        0.042       91.541       11.582        0.016      341.598       16.423      863.856
07/14/2013  04:55:00      -79.821      -24.897        0.371       16.637       20.051       11.889      276.804      402.051      141.360        0.391        0.041       83.613        9.113        0.012      341.644       16.500      863.861
07/14/2013  04:56:00      -64.142      -47.843       -0.864       24.293       21.444       14.298      590.160      459.841      204.446        0.383        0.063       80.020       12.646        0.025      341.697       16.590      863.854
07/14/2013  04:57:00      -85.016      -38.994       -2.701       30.581       21.469       15.574      935.195      460.906      242.546        0.520        0.082       93.532       15.216        0.026      341.621       16.461      863.858
07/14/2013  04:58:00     -125.328      -50.042       -0.316       29.893       26.410       17.292      893.597      697.494      298.998        1.005        0.095      134.950       14.255        0.011      341.568       16.371      863.872
07/14/2013  04:59:00     -127.104      -18.680       -3.990       28.825       23.277       18.155      830.863      541.817      329.616        0.911        0.085      128.470       16.830        0.017      341.418       16.116      863.882
07/14/2013  05:00:00     -108.954      -11.992       -4.903       40.820       30.591       20.552     1666.270      935.836      422.390        0.753        0.151      109.612       20.743        0.036      341.295       15.908      863.893
07/14/2013  05:01:00     -105.898      -19.832       -4.072       21.744       22.284       14.941      472.782      496.598      223.237        0.641        0.060      107.739       10.084        0.009      341.342       15.988      863.900
07/14/2013  05:02:00      -86.729      -24.819       -5.117       28.656       17.895       15.939      821.167      320.232      254.054        0.478        0.070       90.211       17.809        0.039      341.387       16.066      863.905
07/14/2013  05:03:00     -103.736      -37.021      -13.581       20.704       31.296       13.667      428.657      979.469      186.792        0.696        0.080      110.144       10.609        0.009      341.565       16.367      863.918
07/14/2013  05:04:00      -20.927      -37.439        3.740       40.262       27.456       23.153     1621.051      753.810      536.083        0.238        0.146       42.891       19.396        0.204      341.467       16.199      863.932
07/14/2013  05:05:00     -101.620      -67.992       -6.249       62.050       40.624       25.730     3850.182     1650.314      662.018        1.057        0.308      122.268       27.295        0.050      341.372       16.037      863.934
07/14/2013  05:06:00     -123.913      -48.324       -1.084       35.997       39.488       20.511     1295.777     1559.266      420.693        1.048        0.164      133.002       17.591        0.017      341.343       15.989      863.943
07/14/2013  05:07:00     -103.601      -45.852        6.885       28.552       31.697       20.447      815.196     1004.673      418.087        0.756        0.112      113.294       17.311        0.023      341.437       16.149      863.952
07/14/2013  05:08:00      -83.372      -69.225        0.426       28.713       28.827       19.098      824.414      830.991      364.752        0.688        0.101      108.365       12.665        0.014      341.559       16.354      863.955
07/14/2013  05:09:00     -113.184      -67.033        2.173       42.239       34.636       23.413     1784.123     1199.619      548.167        1.042        0.177      131.545       23.480        0.032      341.561       16.357      863.951
07/14/2013  05:10:00      -66.434      -42.916        8.372       63.957       40.042       23.974     4090.558     1603.342      574.761        0.630        0.313       79.090       28.345        0.128      341.540       16.324      863.964
07/14/2013  05:11:00      -91.926      -74.130        3.315       50.997       35.189       26.301     2600.694     1238.279      691.737        0.924        0.227      118.091       28.146        0.057      341.511       16.275      863.972
07/14/2013  05:12:00     -120.675      -78.940       -2.436       43.592       36.359       22.982     1900.272     1321.994      528.190        1.227        0.188      144.202       22.824        0.025      341.544       16.328      863.972
07/14/2013  05:13:00     -109.485      -66.026       -0.019       61.479       41.588       25.750     3779.709     1729.575      663.047        1.126        0.309      127.853       30.608        0.057      341.536       16.317      863.971
07/14/2013  05:14:00     -102.831      -78.215       -4.810       29.853       31.860       19.053      891.228     1015.034      363.015        0.949        0.113      129.196       13.370        0.011      341.578       16.388      863.975
07/14/2013  05:15:00      -93.411      -52.948       -4.708       40.278       34.169       17.727     1622.321     1167.521      314.240        0.733        0.155      107.373       16.062        0.022      341.572       16.377      863.980
07/14/2013  05:16:00      -94.598      -49.138       -2.782       41.928       38.460       18.469     1757.993     1479.188      341.117        0.747        0.179      106.598       15.296        0.021      341.540       16.323      863.988
07/14/2013  05:17:00      -75.958      -62.254       -1.554       47.943       29.703       19.947     2298.561      882.273      397.885        0.661        0.179       98.210       17.072        0.030      341.488       16.235      864.001
07/14/2013  05:18:00      -79.625      -74.093       -5.006       41.753       33.449       25.099     1743.275     1118.808      629.937        0.767        0.175      108.765       26.804        0.061      341.561       16.357      864.010
07/14/2013  05:19:00      -44.986      -61.350       -2.199       39.257       36.583       22.328     1541.084     1338.303      498.547        0.458        0.169       76.076       22.253        0.086      341.576       16.384      864.017
07/14/2013  05:20:00      -71.587      -63.471        3.945       53.972       37.103       28.841     2912.948     1376.664      831.823        0.714        0.256       95.673       29.372        0.094      341.529       16.303      864.018
07/14/2013  05:21:00      -95.737      -76.125        6.587       53.299       45.988       31.207     2840.807     2114.935      973.854        1.047        0.296      122.313       31.713        0.067      341.556       16.349      864.022
07/14/2013  05:22:00      -95.395      -65.716        2.533       39.873       29.377       24.217     1589.873      863.017      586.465        0.823        0.152      115.840       22.846        0.039      341.465       16.196      864.031
07/14/2013  05:23:00     -123.688      -96.541       -2.014       40.733       35.881       30.451     1659.209     1287.416      927.257        1.425        0.194      156.904       19.986        0.016      341.380       16.051      864.028
07/14/2013  05:24:00     -118.039     -108.834       -3.867       40.836       37.268       24.442     1667.590     1388.913      597.409        1.472        0.183      160.556       23.909        0.022      341.422       16.123      864.028
07/14/2013  05:25:00      -81.259      -77.174        0.647       39.513       32.078       20.869     1561.250     1028.976      435.507        0.779        0.151      112.066       21.377        0.036      341.425       16.128      864.048
07/14/2013  05:26:00      -76.315      -68.949        9.789       55.357       34.121       32.407     3064.362     1164.257     1050.215        0.798        0.264      102.849       35.167        0.117      341.421       16.122      864.047
07/14/2013  05:27:00      -61.429      -74.947       10.518       57.556       45.664       33.622     3312.694     2085.168     1130.461        0.801        0.326       96.906       34.552        0.127      341.414       16.108      864.059
07/14/2013  05:28:00      -90.688      -97.945        2.195       58.884       39.311       31.745     3467.280     1545.334     1007.744        1.192        0.301      133.483       35.101        0.069      341.372       16.039      864.074
07/14/2013  05:29:00      -82.328      -62.916        0.261       45.346       33.045       27.669     2056.286     1091.976      765.591        0.732        0.196      103.617       27.405        0.070      341.362       16.023      864.068
07/14/2013  05:30:00      -91.184      -62.459       -5.081       20.566       16.729       12.975      422.970      279.843      168.362        0.656        0.044      110.524        4.552        0.002      341.385       16.060      864.066
07/14/2013  05:31:00     -100.618      -47.534       -2.540       24.070       29.715       18.588      579.380      883.009      345.513        0.710        0.090      111.281       12.814        0.013      341.369       16.034      864.081
07/14/2013  05:32:00      -82.682      -37.560        2.549       37.497       23.011       18.130     1406.051      529.496      328.691        0.526        0.113       90.813       19.215        0.045      341.299       15.916      864.075
07/14/2013  05:33:00      -69.228      -45.171        1.439       40.876       25.809       22.234     1670.864      666.122      494.362        0.483        0.142       82.661       23.124        0.078      341.341       15.986      864.073
07/14/2013  05:34:00     -100.938      -28.044       -3.398       21.438       21.818       14.739      459.585      476.024      217.249        0.607        0.058      104.761       12.602        0.014      341.321       15.952      864.085
07/14/2013  05:35:00     -101.675      -21.302       -4.865       31.428       20.185       15.340      987.750      407.424      235.328        0.622        0.082      103.883       15.679        0.023      341.206       15.757      864.103
07/14/2013  05:36:00      -79.643      -22.215        1.029       38.720       20.090       18.585     1499.200      403.612      345.418        0.454        0.112       82.683       18.876        0.052      341.099       15.577      864.099
07/14/2013  05:37:00      -84.080      -19.568        0.298       38.716       22.761       18.694     1498.937      518.044      349.470        0.491        0.118       86.327       18.867        0.048      341.042       15.481      864.098
07/14/2013  05:38:00     -101.701      -42.935        6.147       31.438       25.204       18.815      988.351      635.234      354.014        0.710        0.099      110.392       15.671        0.020      341.156       15.674      864.094
07/14/2013  05:39:00      -78.457      -25.624        4.234       32.895       30.291       17.695     1082.092      917.564      313.104        0.457        0.116       82.535       11.833        0.021      341.197       15.743      864.102
07/14/2013  05:40:00      -85.439      -17.665       -2.119       27.312       21.612       14.718      745.946      467.073      216.621        0.452        0.071       87.246       13.687        0.025      341.239       15.814      864.098
07/14/2013  05:41:00      -70.935      -16.702       -3.793       16.874       15.496       10.220      284.732      240.122      104.451        0.298        0.031       72.875        7.321        0.010      341.163       15.685      864.087
07/14/2013  05:42:00      -59.340      -38.686        2.607       24.977       11.748       12.270      623.848      138.019      150.553        0.297        0.046       70.837       11.328        0.026      341.190       15.730      864.094
07/14/2013  05:43:00      -78.067      -43.722        0.962       19.970       18.726       15.381      398.814      350.659      236.563        0.450        0.049       89.476       10.995        0.015      341.146       15.657      864.099
07/14/2013  05:44:00     -111.291      -30.536       -8.213       21.654       18.898       14.282      468.881      357.152      203.984        0.721        0.052      115.404       10.855        0.009      341.102       15.583      864.087
07/14/2013  05:45:00     -100.662      -43.783       -2.876       22.358       18.660       12.095      499.869      348.208      146.280        0.653        0.050      109.772        8.077        0.005      341.072       15.533      864.085
07/14/2013  05:46:00      -57.538      -40.493        0.871       33.585       18.685       13.076     1127.920      349.132      170.988        0.330        0.082       70.358       14.943        0.045      341.148       15.660      864.087
07/14/2013  05:47:00      -24.942      -32.015        5.317       21.787       21.158       14.429      474.681      447.671      208.185        0.140        0.057       40.584       14.376        0.125      341.177       15.709      864.086
07/14/2013  05:48:00      -13.858      -16.496       11.195       18.319       14.494       11.376      335.599      210.071      129.408        0.063        0.034       21.544       11.438        0.282      341.177       15.708      864.083
07/14/2013  05:49:00      -44.766      -20.452        0.093       31.027       17.656       11.438      962.652      311.746      130.837        0.191        0.070       49.216       13.433        0.075      341.122       15.615      864.088
07/14/2013  05:50:00      -30.570      -33.711        5.780       32.680       21.676       14.463     1067.996      469.835      209.178        0.193        0.087       45.507       13.874        0.093      341.170       15.696      864.093
07/14/2013  05:51:00      -38.826      -33.960        7.383       33.474       20.418       16.598     1120.479      416.881      275.493        0.226        0.091       51.582       16.152        0.098      341.162       15.685      864.107
07/14/2013  05:52:00      -39.999      -47.999        1.776       37.395       33.569       15.568     1398.415     1126.846      242.367        0.334        0.138       62.481       16.166        0.067      341.227       15.794      864.129
07/14/2013  05:53:00      -48.799      -48.540        3.053       33.142       30.133       18.255     1098.417      907.987      333.260        0.354        0.117       68.830       17.428        0.064      341.227       15.794      864.145
07/14/2013  05:54:00      -43.688      -32.524        9.105       31.314       28.733       20.676      980.590      825.596      427.503        0.264        0.112       54.465       19.617        0.130      341.175       15.704      864.164
07/14/2013  05:55:00       -2.975      -24.682       12.670       31.339       29.030       20.549      982.102      842.767      422.248        0.151        0.112       24.860       16.298        0.430      341.243       15.821      864.178
07/14/2013  05:56:00      -44.666      -30.939        6.271       30.107       23.733       21.285      906.460      563.245      453.061        0.246        0.096       54.335       17.468        0.103      341.209       15.762      864.180
07/14/2013  05:57:00      -46.263      -37.726        8.219       31.419       23.581       18.369      987.143      556.061      337.410        0.276        0.094       59.696       16.178        0.073      341.211       15.766      864.192
07/14/2013  05:58:00      -67.264      -77.310       -0.140       37.127       31.725       19.647     1378.403     1006.455      385.994        0.664        0.139      102.476       19.165        0.035      341.293       15.906      864.189
07/14/2013  05:59:00     -113.062      -75.870       -3.539       33.273       29.385       21.808     1107.067      863.500      475.609        1.050        0.122      136.160       10.633        0.006      341.242       15.820      864.194
07/14/2013  06:00:00      -95.223      -76.010       -0.741       51.090       33.824       23.359     2610.189     1144.058      545.635        0.957        0.215      121.840       24.121        0.039      341.224       15.790      864.208
07/14/2013  06:01:00      -86.653      -76.581        2.981       60.123       43.072       35.799     3614.756     1855.221     1281.595        1.007        0.338      115.643       33.758        0.085      341.187       15.726      864.224
07/14/2013  06:02:00     -146.279     -123.930       -4.672       50.137       56.152       31.846     2513.709     3153.008     1014.182        2.173        0.334      191.719       30.087        0.025      341.169       15.693      864.243
07/14/2013  06:03:00      -98.535      -90.689       -2.799       54.093       46.148       33.797     2926.029     2129.616     1142.240        1.207        0.310      133.916       31.523        0.055      341.141       15.650      864.257
07/14/2013  06:04:00      -98.084      -77.848       -1.170       46.208       51.164       24.113     2135.224     2617.798      581.422        1.051        0.267      125.223       20.864        0.028      341.156       15.672      864.257
07/14/2013  06:05:00     -155.175     -110.848       -2.460       53.903       36.060       32.327     2905.487     1300.318     1045.059        2.081        0.263      190.700       30.510        0.026      341.162       15.683      864.250
07/14/2013  06:06:00     -118.652      -74.580       -0.370       49.466       49.131       35.810     2446.873     2413.879     1282.388        1.289        0.307      140.145       30.608        0.048      341.127       15.623      864.247
07/14/2013  06:07:00     -125.424     -101.483       -3.752       57.207       50.348       35.504     3272.597     2534.937     1260.531        1.655        0.353      161.338       33.681        0.044      341.171       15.698      864.239
07/14/2013  06:08:00     -133.766      -87.588        0.897       36.316       34.175       24.604     1318.863     1167.935      605.343        1.433        0.155      159.891       22.090        0.019      341.174       15.705      864.243
07/14/2013  06:09:00     -113.156      -64.316        2.044       46.710       36.608       24.635     2181.782     1340.139      606.889        1.054        0.206      130.157       26.606        0.042      341.176       15.707      864.249
07/14/2013  06:10:00      -92.400      -68.224        1.897       52.115       32.792       26.137     2715.984     1075.300      683.122        0.883        0.224      114.858       27.274        0.056      341.223       15.786      864.266
07/14/2013  06:11:00     -114.640      -88.624        1.989       65.717       40.114       27.233     4318.702     1609.151      741.611        1.383        0.333      144.902       28.977        0.040      341.212       15.768      864.277
07/14/2013  06:12:00      -60.818      -49.352        5.651       49.245       44.799       33.265     2425.109     2006.995     1106.541        0.585        0.277       78.323       31.569        0.162      341.218       15.778      864.283
07/14/2013  06:13:00     -124.252      -71.525        2.560       41.412       31.814       24.540     1714.951     1012.142      602.196        1.194        0.166      143.368       23.980        0.028      341.232       15.803      864.296
07/14/2013  06:14:00      -88.027      -56.543       -3.994       48.362       37.723       25.993     2338.862     1422.997      675.650        0.770        0.222      104.623       24.178        0.053      341.235       15.807      864.302
07/14/2013  06:15:00      -76.630      -32.614       -2.371       47.373       38.402       24.215     2244.240     1474.713      586.388        0.562        0.215       83.281       23.917        0.082      341.265       15.858      864.306
07/14/2013  06:16:00     -122.624      -60.648        1.715       58.199       37.817       25.714     3387.154     1430.131      661.232        1.210        0.274      136.802       31.787        0.054      341.274       15.872      864.316
07/14/2013  06:17:00     -121.534      -35.423        4.272       49.623       35.916       23.850     2462.463     1289.992      568.833        1.018        0.216      126.591       27.532        0.047      341.287       15.896      864.319
07/14/2013  06:18:00     -135.736      -57.798       -2.136       30.596       36.212       22.799      936.125     1311.283      519.799        1.227        0.138      147.529       14.940        0.010      341.295       15.909      864.320
07/14/2013  06:19:00     -124.239      -32.932       -1.264       42.037       25.585       19.724     1767.103      654.617      389.028        0.967        0.141      128.530       18.121        0.020      341.319       15.950      864.320
07/14/2013  06:20:00     -147.738      -41.928       -2.756       57.347       34.083       24.271     3288.642     1161.665      589.084        1.431        0.252      153.572       28.848        0.035      341.395       16.077      864.321
07/14/2013  06:21:00     -112.059      -46.796       -4.472       50.607       33.716       20.995     2561.102     1136.759      440.785        0.945        0.207      121.438       15.480        0.016      341.414       16.112      864.333
07/14/2013  06:22:00     -144.384      -17.609       -8.487       31.631       29.107       24.087     1000.541      847.242      580.186        1.183        0.121      145.454       18.433        0.016      341.462       16.191      864.344
07/14/2013  06:23:00      -54.068      -18.312        5.917       35.630       29.010       22.569     1269.519      841.557      509.375        0.296        0.131       57.085       22.050        0.149      341.423       16.123      864.363
07/14/2013  06:24:00      -83.943      -36.112       -0.949       28.369       29.049       14.501      804.792      843.858      210.282        0.510        0.093       91.381       14.608        0.026      341.481       16.222      864.367
07/14/2013  06:25:00      -77.884      -59.475       -9.297       25.449       30.163       17.145      647.663      909.778      293.966        0.577        0.093       97.996       13.511        0.019      341.466       16.198      864.369
07/14/2013  06:26:00      -70.350      -35.889        1.865       28.460       23.049       17.512      809.963      531.258      306.655        0.394        0.082       78.975       17.868        0.051      341.486       16.230      864.368
07/14/2013  06:27:00      -85.434       -6.539       -0.271       26.388       23.725       14.249      696.304      562.889      203.020        0.440        0.073       85.684        9.873        0.013      341.470       16.205      864.367
07/14/2013  06:28:00      -97.968      -36.802       -1.337       20.788       24.134       14.929      432.151      582.454      222.881        0.610        0.062      104.652       13.585        0.017      341.537       16.320      864.381
07/14/2013  06:29:00      -85.692      -18.543       -1.650       28.239       20.289       13.344      797.452      411.660      178.066        0.454        0.069       87.675       14.208        0.026      341.522       16.293      864.381
07/14/2013  06:30:00      -95.466      -10.112       -5.509       31.656       20.101       15.289     1002.082      404.050      233.749        0.544        0.082       96.000       17.396        0.033      341.477       16.216      864.377
07/14/2013  06:31:00     -103.335       -4.521       -3.441       33.289       24.978       18.257     1108.145      623.881      333.304        0.639        0.103      103.434       18.781        0.033      341.427       16.131      864.386
07/14/2013  06:32:00      -94.979      -24.608        3.712       49.763       40.155       23.071     2476.367     1612.404      532.284        0.713        0.231       98.115       24.027        0.060      341.482       16.224      864.389
07/14/2013  06:33:00     -118.415      -35.173       -4.738       36.488       31.922       20.000     1331.383     1018.995      399.988        0.902        0.138      123.528       19.252        0.024      341.414       16.110      864.389
07/14/2013  06:34:00     -129.359      -40.440       -6.615       44.568       31.611       24.529     1986.316      999.267      601.659        1.100        0.179      135.532       25.967        0.037      341.399       16.084      864.397
07/14/2013  06:35:00     -113.821      -30.686       -8.410       63.217       48.963       19.773     3996.368     2397.422      390.962        1.037        0.339      117.885       18.256        0.024      341.373       16.041      864.395
07/14/2013  06:36:00      -98.826      -18.749       -1.353       34.495       29.853       21.610     1189.921      891.189      466.990        0.633        0.127      100.589       14.631        0.021      341.334       15.973      864.409
07/14/2013  06:37:00      -93.168      -27.383       -2.437       27.207       21.487       11.804      740.247      461.676      139.326        0.539        0.067       97.109        8.767        0.008      341.371       16.036      864.413
07/14/2013  06:38:00      -82.760      -34.002        3.306       42.128       29.365       20.298     1774.809      862.328      412.007        0.553        0.152       89.472       14.743        0.027      341.453       16.175      864.421
07/14/2013  06:39:00      -65.846      -60.641        3.077       32.838       42.185       18.029     1078.366     1779.561      325.063        0.560        0.159       89.516       18.143        0.041      341.410       16.102      864.418
07/14/2013  06:40:00      -82.132      -28.048       -3.795       28.703       21.603       13.810      823.855      466.701      190.724        0.451        0.074       86.789       10.479        0.015      341.485       16.229      864.425
07/14/2013  06:41:00      -94.856      -29.904        5.817       27.135       36.518       18.918      736.326     1333.535      357.900        0.618        0.121       99.458       15.432        0.024      341.434       16.143      864.414
07/14/2013  06:42:00      -75.390      -26.570       -0.943       44.699       32.427       16.163     1998.043     1051.522      261.252        0.485        0.166       79.935       10.010        0.016      341.503       16.260      864.416
07/14/2013  06:43:00      -94.377      -57.429       -1.537       48.856       37.867       24.803     2386.915     1433.929      615.166        0.832        0.222      110.476       17.389        0.025      341.526       16.299      864.406
07/14/2013  06:44:00     -118.456      -85.031       -1.530       56.730       42.665       26.500     3218.292     1820.322      702.239        1.350        0.287      145.815       26.549        0.033      341.440       16.152      864.404
07/14/2013  06:45:00     -106.626      -66.044        6.177       73.091       38.412       25.567     5342.282     1475.514      653.692        1.162        0.374      125.423       30.058        0.057      341.497       16.249      864.390
07/14/2013  06:46:00     -127.013      -94.100       -8.067       52.884       37.998       29.821     2796.719     1443.837      889.271        1.509        0.256      158.073       30.379        0.037      341.494       16.244      864.388
07/14/2013  06:47:00      -67.552      -64.739        0.828       49.656       43.894       31.757     2465.765     1926.654     1008.501        0.708        0.270       93.565       32.909        0.124      341.620       16.459      864.377
07/14/2013  06:48:00      -53.179      -52.211       -1.748       32.599       27.968       20.445     1062.708      782.208      418.016        0.391        0.113       74.525       12.092        0.026      341.604       16.433      864.369
07/14/2013  06:49:00      -76.450        5.108        4.177       32.909       25.483       17.602     1082.974      649.401      309.827        0.396        0.102       76.620       15.477        0.041      341.605       16.433      864.369
07/14/2013  06:50:00      -91.846      -12.868       -1.551       39.738       29.090       19.374     1579.126      846.247      375.364        0.570        0.140       92.743       14.555        0.025      341.575       16.382      864.374
07/14/2013  06:51:00     -129.245        2.034       -4.755       40.169       27.022       26.018     1613.531      730.211      676.955        0.988        0.151      129.261       23.498        0.033      341.584       16.397      864.396
07/14/2013  06:52:00     -158.440      -23.482      -18.598       26.135       21.800       13.812      683.021      475.254      190.780        1.367        0.067      160.170        7.508        0.002      341.624       16.466      864.413
07/14/2013  06:53:00     -105.235      -27.944       -5.355       29.445       29.307       16.413      866.979      858.902      269.378        0.694        0.100      108.882       10.355        0.009      341.680       16.561      864.432
07/14/2013  06:54:00     -113.677      -59.689       -5.740       34.307       45.390       16.214     1176.971     2060.211      262.881        1.001        0.175      128.395       11.254        0.008      341.667       16.541      864.433
07/14/2013  06:55:00     -112.369      -12.470       -1.905       23.879       20.237       17.062      570.204      409.549      291.101        0.703        0.064      113.058       15.235        0.018      341.701       16.598      864.434
07/14/2013  06:56:00     -100.798       -6.407       -1.742       36.014       20.190       19.547     1297.038      407.649      382.100        0.615        0.104      101.002       18.534        0.034      341.732       16.649      864.429
07/14/2013  06:57:00      -67.470        1.371        3.439       31.750       32.045       14.202     1008.089     1026.865      201.703        0.340        0.112       67.484       14.582        0.047      341.781       16.731      864.428
07/14/2013  06:58:00      -55.865        7.101       -0.019       21.574       23.845       15.475      465.456      568.592      239.472        0.222        0.064       56.314       12.159        0.047      341.868       16.879      864.433
07/14/2013  06:59:00      -23.733       -1.155       18.928       34.494       18.720       19.622     1189.840      350.444      385.012        0.142        0.096       23.761       21.287        0.803      342.361       17.719      864.436
07/14/2013  07:00:00       18.012      -10.231       10.430       32.648       34.077       24.205     1065.898     1161.260      585.870        0.167        0.141       20.715       16.961        0.670      341.832       16.818      864.448
07/14/2013  07:01:00      -13.166       -3.901      -11.461       21.049       16.065       13.740      443.074      258.088      188.790        0.060        0.044       13.732        9.925        0.522      341.862       16.870      864.454
07/14/2013  07:02:00       -8.884        1.109        2.115       11.607       11.441       10.372      134.726      130.901      107.585        0.023        0.019        8.953        3.475        0.151      342.225       17.484      864.463
07/14/2013  07:03:00       22.922        1.690       -6.411       19.787       18.328       21.013      391.528      335.907      441.559        0.087        0.058       22.985        7.201        0.098      341.810       16.781      864.474
07/14/2013  07:04:00        5.486      -30.018      -10.668       33.360       40.569       27.146     1112.917     1645.880      736.925        0.227        0.175       30.516       14.937        0.240      341.774       16.720      864.479
07/14/2013  07:05:00       20.803      -75.247      -18.634       29.349       32.470       25.471      861.361     1054.289      648.766        0.450        0.128       78.070       10.402        0.018      341.788       16.743      864.487
07/14/2013  07:06:00       22.117      -64.810        6.665       32.126       24.432       28.815     1032.086      596.907      830.301        0.360        0.123       68.480       12.000        0.031      341.803       16.769      864.491
07/14/2013  07:07:00       19.471      -37.965       -1.083       20.046       29.131       25.896      401.832      848.600      670.588        0.187        0.096       42.667       17.865        0.175      342.155       17.368      864.497
07/14/2013  07:08:00        6.036      -23.586       35.418       19.741       24.901       21.188      389.724      620.063      448.937        0.165        0.073       24.346       13.403        0.303      342.799       18.462      864.499
07/14/2013  07:09:00      -11.354       -8.714       18.460       17.345       23.640       19.108      300.837      558.837      365.128        0.088        0.061       14.313       18.953        1.753      342.838       18.528      864.521
07/14/2013  07:10:00      -17.407        5.265       -0.055       28.675       20.108       19.422      822.234      404.326      377.206        0.097        0.080       18.186       12.224        0.452      342.365       17.724      864.531
07/14/2013  07:11:00      -41.608      -30.580       -0.005       24.361       20.852       11.868      593.437      434.808      140.844        0.192        0.058       51.637       10.428        0.041      342.296       17.606      864.538
07/14/2013  07:12:00      -14.239      -13.014       16.487       24.367       33.347       23.368      593.768     1112.035      546.043        0.145        0.113       19.291       19.055        0.976      342.521       17.989      864.550
07/14/2013  07:13:00      -31.976      -10.690       -4.524       16.445       11.042       10.461      270.426      121.934      109.434        0.083        0.025       33.715        9.547        0.080      342.448       17.863      864.563
07/14/2013  07:14:00       -8.432       -2.262       17.913       21.944       12.068       18.624      481.557      145.644      346.837        0.069        0.049        8.730        9.025        1.069      342.666       18.235      864.584
07/14/2013  07:15:00        4.593      -20.150        0.198       27.540       24.753       30.506      758.465      612.728      930.589        0.136        0.115       20.667       17.226        0.695      342.322       17.650      864.595
07/14/2013  07:16:00      -15.996      -11.201       10.295       15.676       19.054       18.712      245.750      363.053      350.134        0.072        0.048       19.528        8.377        0.184      342.423       17.822      864.600
07/14/2013  07:17:00      -22.769        1.081       10.956       16.297        9.434       11.357      265.593       89.006      128.975        0.056        0.024       22.795        6.541        0.082      342.493       17.941      864.593
07/14/2013  07:18:00      -34.187        4.681        0.400       17.576       17.483       18.071      308.900      305.666      326.558        0.107        0.047       34.506        8.939        0.067      342.294       17.603      864.578
07/14/2013  07:19:00      -21.608      -13.002        8.148       12.861       11.992       11.715      165.414      143.797      137.249        0.057        0.022       25.218        7.944        0.099      342.455       17.876      864.567
07/14/2013  07:20:00      -10.191      -34.430       34.723       22.243       33.231       26.603      494.773     1104.290      707.721        0.240        0.115       35.906        5.902        0.027      342.599       18.120      864.561
07/14/2013  07:21:00        4.193      -30.978       -0.889       41.045       25.367       23.093     1684.685      643.484      533.267        0.192        0.143       31.260       12.052        0.149      342.197       17.438      864.561
07/14/2013  07:22:00      -36.423       24.468       17.382       18.824       19.030       18.921      354.350      362.129      358.008        0.165        0.054       43.878       11.032        0.063      342.318       17.644      864.553
07/14/2013  07:23:00      -34.152        5.137        7.373       12.196       11.425       16.709      148.738      130.531      279.201        0.090        0.028       34.536        6.994        0.041      342.277       17.575      864.555
07/14/2013  07:24:00      -14.832       -1.633        6.896       17.278       13.441       17.771      298.534      180.653      315.798        0.053        0.040       14.921       12.330        0.683      342.815       18.489      864.562
07/14/2013  07:25:00      -17.117        6.095       21.217       13.548       11.578       18.021      183.557      134.055      324.742        0.071        0.032       18.170       12.141        0.446      343.211       19.164      864.563
07/14/2013  07:26:00       14.029        4.662       25.151       34.864       21.583       20.787     1215.487      465.807      432.101        0.148        0.106       14.784       21.310        2.078      342.966       18.747      864.568
07/14/2013  07:27:00       19.388       -9.611       17.585       25.934       19.214       24.173      672.593      369.195      584.320        0.120        0.081       21.640       11.531        0.284      342.582       18.094      864.579
07/14/2013  07:28:00       24.323      -17.326       13.399       26.238       25.308       27.894      688.436      640.507      778.099        0.159        0.105       29.863       23.522        0.620      342.655       18.218      864.593
07/14/2013  07:29:00       13.887      -24.026       -6.570       28.328       20.930       24.978      802.480      438.076      623.899        0.134        0.093       27.750       16.868        0.369      342.512       17.973      864.597
07/14/2013  07:30:00      -40.320        4.402       -6.746       24.906       24.194       20.863      620.285      585.343      435.266        0.167        0.082       40.560       14.857        0.134      342.597       18.118      864.600
07/14/2013  07:31:00      -20.861       -8.895        6.677       36.164       23.172       23.351     1307.809      536.945      545.287        0.147        0.120       22.678       23.348        1.060      343.107       18.987      864.598
07/14/2013  07:32:00      -21.577       20.925       -9.441       25.752       19.845       28.329      663.188      393.819      802.516        0.143        0.093       30.057       16.989        0.319      342.914       18.658      864.580
07/14/2013  07:33:00       -3.136        4.556       -0.071       18.894       18.487       21.518      356.987      341.769      463.011        0.060        0.058        5.531       11.793        4.546      343.038       18.869      864.570
07/14/2013  07:34:00      -20.902       13.423        6.109       19.074       13.153       17.173      363.828      173.001      294.902        0.074        0.042       24.841       15.860        0.408      343.174       19.101      864.561
07/14/2013  07:35:00      -12.675       -2.027       -6.756       18.202       10.479       10.079      331.312      109.814      101.589        0.038        0.027       12.836        6.869        0.286      342.798       18.460      864.561
07/14/2013  07:36:00        4.200      -23.776        4.722       20.328       27.730       22.275      413.219      768.953      496.180        0.114        0.084       24.144       19.330        0.641      342.807       18.476      864.573
07/14/2013  07:37:00       16.864      -58.015       -2.720       23.327       27.807       17.968      544.138      773.206      322.845        0.265        0.082       60.416       11.394        0.036      342.634       18.183      864.586
07/14/2013  07:38:00       30.721      -12.018       28.059       34.538       27.149       27.304     1192.877      737.082      745.487        0.227        0.134       32.988       22.669        0.472      342.976       18.764      864.609
07/14/2013  07:39:00      -18.528        8.077       21.147       23.963       29.995       27.662      574.225      899.718      765.161        0.155        0.112       20.212       22.854        1.279      342.998       18.801      864.618
07/14/2013  07:40:00      -12.591        6.674       -3.852       32.984       28.137       21.283     1087.932      791.684      452.978        0.127        0.117       14.250       17.911        1.580      343.041       18.873      864.618
07/14/2013  07:41:00      -36.531      -14.180       -0.013       14.745       20.447       13.773      217.429      418.076      189.705        0.118        0.041       39.187       10.917        0.078      342.906       18.644      864.617
07/14/2013  07:42:00      -12.332        6.155        8.383       13.026       13.580       14.574      169.673      184.404      212.403        0.041        0.028       13.783        7.044        0.261      343.349       19.397      864.619
07/14/2013  07:43:00       29.401       -4.804       25.700       31.844       17.404       29.031     1014.037      302.902      842.806        0.185        0.108       29.791       15.153        0.259      343.048       18.888      864.616
07/14/2013  07:44:00       29.862      -10.450       -0.786       23.402       28.043       16.365      547.658      786.387      267.827        0.130        0.080       31.638        6.248        0.039      342.690       18.275      864.625
07/14/2013  07:45:00        6.877      -16.278        2.361       29.689       23.199       28.704      881.429      538.173      823.897        0.128        0.112       17.671       17.407        0.970      343.038       18.868      864.630
07/14/2013  07:46:00       -4.835       -6.696       15.781       17.859       18.677       16.178      318.961      348.843      261.731        0.062        0.046        8.259       15.013        3.304      343.402       19.489      864.634
07/14/2013  07:47:00      -50.195      -39.130        9.372       29.463       30.470       23.001      868.091      928.415      529.046        0.323        0.116       63.645       25.743        0.164      343.320       19.350      864.639
07/14/2013  07:48:00      -55.354      -64.686       -7.717       34.272       21.609       20.085     1174.590      466.946      403.402        0.468        0.102       85.137       14.926        0.031      343.032       18.857      864.642
07/14/2013  07:49:00      -62.401      -52.782        4.741       31.146       34.883       19.299      970.097     1216.826      372.454        0.463        0.128       81.730        7.134        0.008      343.036       18.863      864.640
07/14/2013  07:50:00      -43.538      -42.470       -9.270       27.219       20.488       14.468      740.886      419.743      209.316        0.258        0.068       60.822        3.128        0.003      343.091       18.958      864.634
07/14/2013  07:51:00      -26.416      -27.781       -0.932       25.375       21.522       18.259      643.909      463.195      333.402        0.146        0.072       38.335       12.754        0.111      343.227       19.190      864.623
07/14/2013  07:52:00      -36.025      -33.975        6.874       25.435       27.756       14.684      646.957      770.416      215.610        0.207        0.082       49.519       13.004        0.069      343.379       19.450      864.607
07/14/2013  07:53:00      -27.679      -15.018        7.253       16.943       19.513       15.920      287.052      380.772      253.458        0.098        0.046       31.491       14.123        0.201      343.715       20.024      864.588
07/14/2013  07:54:00      -33.275      -23.225        3.446       16.227       12.446       12.980      263.303      154.908      168.471        0.112        0.029       40.578       11.907        0.086      343.279       19.278      864.580
07/14/2013  07:55:00       -4.112        5.327       22.689       22.732       18.060       24.095      516.736      326.168      580.576        0.099        0.071        6.729       21.222        9.946      343.654       19.919      864.578
07/14/2013  07:56:00       29.354       -8.943       31.050       32.087       24.322       29.271     1029.578      591.555      856.777        0.219        0.124       30.686       23.688        0.596      343.388       19.465      864.586
07/14/2013  07:57:00        6.712      -17.088        9.325       27.506       20.954       21.527      756.586      439.053      463.409        0.104        0.083       18.359       15.940        0.754      343.172       19.096      864.602
07/14/2013  07:58:00       -2.972      -29.004       -6.285       32.743       25.055       20.025     1072.135      627.752      401.015        0.149        0.105       29.156       14.720        0.255      343.176       19.106      864.614
07/14/2013  07:59:00      -11.854       -2.345       25.254       29.222       24.726       26.452      853.939      611.378      699.730        0.147        0.108       12.084       16.676        1.904      343.702       20.001      864.620
07/14/2013  08:00:00      -28.067       -6.116       12.579       26.747       28.206       25.325      715.414      795.578      641.371        0.157        0.108       28.726       20.823        0.525      343.812       20.187      864.610
07/14/2013  08:01:00      -27.401       -9.373        5.267       40.973       37.426       23.900     1678.770     1400.739      571.202        0.226        0.183       28.960       17.120        0.349      343.426       19.530      864.601
07/14/2013  08:02:00      -32.458      -29.609        3.022       13.130       24.407       11.539      172.407      595.699      133.160        0.142        0.045       43.934        9.322        0.045      343.353       19.405      864.592
07/14/2013  08:03:00      -26.908      -27.844       -3.449        9.432       18.699        9.631       88.962      349.636       92.764        0.102        0.027       38.721        5.727        0.022      343.301       19.317      864.580
07/14/2013  08:04:00      -12.352      -32.077      -11.984       24.719       32.078       23.667      611.017     1028.982      560.110        0.176        0.110       34.372       17.081        0.247      343.218       19.176      864.573
07/14/2013  08:05:00       -7.398       -7.695       20.327       20.217       14.647       17.992      408.735      214.538      323.725        0.074        0.047       10.674       17.049        2.551      343.655       19.921      864.566
07/14/2013  08:06:00       14.308       17.015       28.306       26.179       24.990       27.455      685.336      624.496      753.755        0.168        0.103       22.231       20.582        0.857      343.708       20.010      864.563
07/14/2013  08:07:00       17.086        2.555       13.293       15.690       15.134       18.956      246.174      229.042      359.345        0.065        0.042       17.276       11.010        0.406      343.774       20.123      864.569
07/14/2013  08:08:00       31.117      -31.178        3.913       30.453       50.926       34.305      927.388     2593.437     1176.853        0.333        0.235       44.049       33.993        0.596      343.270       19.263      864.570
07/14/2013  08:09:00       28.450        7.246       35.940       31.323       25.931       20.419      981.101      672.393      416.938        0.211        0.104       29.358       21.492        0.536      343.626       19.872      864.578
07/14/2013  08:10:00       46.399       -5.188       14.309       38.138       37.402       34.374     1454.491     1398.877     1181.603        0.321        0.202       46.688       29.182        0.391      343.540       19.725      864.582
07/14/2013  08:11:00       18.338      -15.563       20.822       35.714       25.793       21.684     1275.471      665.259      470.196        0.171        0.121       24.052       15.332        0.406      343.767       20.112      864.586
07/14/2013  08:12:00      -14.691       14.122       34.255       12.451       26.901       15.856      155.032      723.640      251.405        0.136        0.057       20.378        9.348        0.210      344.242       20.923      864.597
07/14/2013  08:13:00       28.151       -0.327       38.539       39.317       26.641       29.237     1545.812      709.757      854.802        0.269        0.156       28.153       26.133        0.862      344.172       20.804      864.598
07/14/2013  08:14:00       38.742       -2.967        9.664       30.279       21.331       25.851      916.833      455.023      668.271        0.182        0.102       38.855       11.569        0.089      343.540       19.724      864.597
07/14/2013  08:15:00        3.869       -2.449       12.539       15.538       15.017       17.523      241.427      225.500      307.067        0.048        0.039        4.579       10.138        4.902      344.155       20.774      864.588
07/14/2013  08:16:00      -22.594      -16.796        1.604       13.326       12.287       11.509      177.579      150.981      132.456        0.063        0.023       28.153       10.820        0.148      343.761       20.100      864.587
07/14/2013  08:17:00      -14.764      -10.300        1.315       14.069       16.982       11.496      197.928      288.405      132.151        0.047        0.031       18.001       10.701        0.353      343.813       20.190      864.585
07/14/2013  08:18:00      -23.621        9.811       17.775       23.894       15.108       19.683      570.908      228.265      387.411        0.108        0.059       25.578        7.019        0.075      344.061       20.612      864.587
07/14/2013  08:19:00      -11.439      -41.733        1.322       19.476       15.531       16.873      379.329      241.211      284.704        0.139        0.045       43.272        8.173        0.036      343.838       20.231      864.593
07/14/2013  08:20:00       -6.886      -22.159        3.829       26.428       31.316       24.735      698.416      980.696      611.835        0.142        0.115       23.204       20.252        0.762      344.293       21.010      864.606
07/14/2013  08:21:00       -8.297        9.239       24.622       18.929       14.416       19.486      358.326      207.825      379.701        0.085        0.047       12.418       13.977        1.267      344.807       21.888      864.611
07/14/2013  08:22:00       17.683       13.180       32.449       26.358       20.571       21.685      694.733      423.158      470.256        0.156        0.079       22.054        4.564        0.043      344.517       21.392      864.614
07/14/2013  08:23:00       16.819        6.649       35.000       37.587       33.335       27.940     1412.818     1111.214      780.633        0.243        0.165       18.086       20.884        1.333      344.198       20.849      864.614
07/14/2013  08:24:00       53.075       28.539       48.426       51.198       38.105       33.229     2621.258     1452.026     1104.182        0.558        0.259       60.261       31.789        0.278      343.999       20.506      864.627
07/14/2013  08:25:00       37.479      -17.370       24.455       37.654       33.942       30.201     1417.797     1152.042      912.095        0.289        0.174       41.308       19.816        0.230      343.825       20.212      864.626
07/14/2013  08:26:00       41.807       20.043       34.564       38.975       26.123       34.269     1519.016      682.387     1174.370        0.336        0.169       46.363       22.679        0.239      343.968       20.456      864.636
07/14/2013  08:27:00      -29.096      -28.618        3.895       41.815       26.326       24.723     1748.525      693.072      611.234        0.237        0.153       40.811       10.785        0.070      343.858       20.266      864.646
07/14/2013  08:28:00      -49.259      -37.421        5.833       41.361       23.831       19.125     1710.698      567.928      365.775        0.325        0.132       61.861       20.365        0.108      344.173       20.805      864.665
07/14/2013  08:29:00      -22.754      -16.271       15.693       25.519       28.292       21.424      651.230      800.424      458.985        0.147        0.096       27.973       13.164        0.221      344.139       20.747      864.672
07/14/2013  08:30:00      -64.812      -70.107       -3.067       17.749       29.190       13.986      315.012      852.035      195.595        0.524        0.068       95.476        5.960        0.004      344.005       20.517      864.695
07/14/2013  08:31:00      -34.862      -40.341        3.437       29.650       28.878       20.987      879.096      833.941      440.462        0.250        0.108       53.318       16.301        0.093      344.269       20.969      864.708
07/14/2013  08:32:00      -52.867       -7.543        2.815       17.377       25.704       15.820      301.952      660.717      250.288        0.204        0.061       53.403       14.773        0.077      344.153       20.770      864.716
07/14/2013  08:33:00      -30.253      -10.356        7.008       24.770       18.090       15.927      613.544      327.243      253.672        0.113        0.060       31.977       11.552        0.131      344.491       21.349      864.716
07/14/2013  08:34:00      -40.133        3.759       13.482       20.235       16.962       19.660      409.463      287.701      386.516        0.144        0.054       40.308       16.648        0.171      344.666       21.648      864.725
07/14/2013  08:35:00      -18.004        0.412       14.380       48.544       23.268       22.726     2356.530      541.412      516.463        0.197        0.171       18.009        9.418        0.273      344.711       21.725      864.711
07/14/2013  08:36:00      -59.859      -46.030        5.944       37.848       34.981       16.707     1432.443     1223.669      279.129        0.434        0.147       75.511       17.080        0.051      344.381       21.159      864.700
07/14/2013  08:37:00      -50.516       -7.828        7.757       23.257       29.897       14.332      540.902      893.811      205.396        0.216        0.082       51.119       10.675        0.044      344.260       20.953      864.694
07/14/2013  08:38:00      -64.210      -38.071        1.006       26.608       23.678       17.686      707.971      560.645      312.787        0.358        0.079       74.648       15.927        0.046      344.362       21.128      864.689
07/14/2013  08:39:00      -51.348      -55.407        9.717       58.721       53.004       26.219     3448.147     2809.399      687.416        0.637        0.347       75.542       33.844        0.201      344.700       21.706      864.673
07/14/2013  08:40:00     -108.655      -98.853       -6.692       50.012       39.717       24.909     2501.213     1577.463      620.453        1.316        0.235      146.894       23.946        0.027      344.258       20.949      864.675
07/14/2013  08:41:00      -90.358     -115.435       -3.016       44.210       29.268       20.686     1954.532      856.618      427.916        1.237        0.162      146.594       22.206        0.023      344.270       20.969      864.668
07/14/2013  08:42:00      -85.423      -60.287       -1.460       32.130       39.454       12.838     1032.332     1556.640      164.816        0.684        0.138      104.554        4.918        0.002      344.254       20.940      864.657
07/14/2013  08:43:00      -78.804      -36.696       -7.204       11.621       11.828       10.413      135.055      139.903      108.421        0.400        0.019       86.929        3.568        0.002      344.316       21.048      864.655
07/14/2013  08:44:00      -51.344      -17.261       -6.161       17.762       13.945       10.858      315.492      194.469      117.888        0.180        0.031       54.168       12.407        0.052      344.369       21.138      864.649
07/14/2013  08:45:00      -52.306       26.672        2.811       16.842       16.063       15.229      283.661      258.011      231.925        0.211        0.039       58.714        9.732        0.027      344.526       21.407      864.640
07/14/2013  08:46:00      -55.017       13.781        0.385       16.063       17.127       13.901      258.020      293.342      193.250        0.198        0.037       56.717       11.952        0.044      344.415       21.218      864.646
07/14/2013  08:47:00        5.896       -5.398       19.301       25.120       17.244       21.813      631.026      297.371      475.793        0.092        0.070        7.994       11.917        2.223      345.000       22.220      864.645
07/14/2013  08:48:00        2.895        4.264       20.989       21.486       20.057       21.043      461.667      402.301      442.798        0.089        0.065        5.154        8.708        2.854      344.746       21.785      864.648
07/14/2013  08:49:00       21.417       15.653       11.971       34.318       29.412       25.872     1177.715      865.045      669.354        0.178        0.136       26.527       20.969        0.625      344.896       22.041      864.642
07/14/2013  08:50:00       17.564        7.561       33.353       27.153       21.312       20.038      737.278      454.214      401.512        0.154        0.080       19.122       17.157        0.805      345.418       22.936      864.638
07/14/2013  08:51:00      -30.453       -8.865       27.607       34.493       24.637       20.618     1189.767      606.991      425.096        0.199        0.111       31.717       23.587        0.553      345.204       22.570      864.634
07/14/2013  08:52:00      -32.496        8.717        2.901       25.035       22.334       18.249      626.775      498.827      333.018        0.130        0.073       33.645       16.587        0.243      344.799       21.876      864.632
07/14/2013  08:53:00       -4.977        8.145       33.512       18.711       27.693       23.718      350.084      766.896      562.547        0.145        0.084        9.545       16.153        2.864      345.787       23.569      864.629
07/14/2013  08:54:00       -7.172       15.863       43.436       20.146       21.105       17.044      405.877      445.442      290.481        0.167        0.057       17.408       13.325        0.586      345.400       22.906      864.626
07/14/2013  08:55:00      -12.150      -22.728        8.921       28.831       23.570       17.747      831.204      555.523      314.955        0.122        0.085       25.771       19.028        0.545      345.010       22.234      864.624
07/14/2013  08:56:00        0.203      -19.063       10.024       31.066       30.226       23.004      965.071      913.587      529.161        0.144        0.120       19.064       19.581        1.055      345.347       22.813      864.630
07/14/2013  08:57:00      -23.567       -8.639       17.748       26.689       28.237       18.040      712.303      797.351      325.442        0.139        0.092       25.101       17.097        0.464      345.605       23.257      864.623
07/14/2013  08:58:00        3.418        5.621       35.394       23.277       16.044       13.069      541.806      257.400      170.801        0.113        0.049        6.579        8.906        1.833      345.927       23.809      864.616
07/14/2013  08:59:00       52.357       22.140       -1.719       25.638       23.354       15.017      657.301      545.416      225.514        0.233        0.071       56.846        7.671        0.018      344.619       21.565      864.614
07/14/2013  09:00:00       19.548       -9.827        9.615       24.477       21.583       21.476      599.124      465.846      461.232        0.105        0.076       21.879       11.473        0.275      345.041       22.289      864.608
07/14/2013  09:01:00      -48.552        8.488       11.103       20.725       21.596       13.101      429.524      466.372      171.633        0.181        0.053       49.288       10.811        0.048      344.939       22.113      864.606
07/14/2013  09:02:00      -65.378      -10.108        8.321       37.854       23.682       15.563     1432.917      560.846      242.194        0.334        0.112       66.154        8.342        0.016      344.894       22.038      864.601
07/14/2013  09:03:00        1.579        6.213       38.618       15.860       17.389       15.713      251.547      302.366      246.895        0.117        0.040        6.411        8.155        1.618      346.320       24.485      864.596
07/14/2013  09:04:00       31.386        2.677       12.345       25.908       32.991       33.884      671.208     1088.410     1148.118        0.203        0.145       31.499       25.888        0.675      345.142       22.463      864.598
07/14/2013  09:05:00        1.475       -6.916       15.155       26.218       29.469       23.085      687.364      868.428      532.929        0.118        0.104        7.072       21.349        9.114      345.317       22.763      864.608
07/14/2013  09:06:00      -28.783      -22.924        0.344       57.411       31.367       29.885     3296.039      983.918      893.134        0.326        0.259       36.796       30.234        0.675      345.219       22.593      864.607
07/14/2013  09:07:00     -116.375      -93.921       -0.903       36.857       35.138       27.473     1358.427     1234.676      754.751        1.286        0.167      149.547       21.941        0.022      344.832       21.930      864.606
07/14/2013  09:08:00      -97.160      -70.783      -12.093       15.913       28.294       16.629      253.220      800.577      276.524        0.796        0.067      120.209        9.498        0.006      344.789       21.858      864.616
07/14/2013  09:09:00      -81.985      -67.392       -2.827       29.786       32.145       19.152      887.185     1033.312      366.804        0.678        0.114      106.129       11.100        0.011      344.828       21.924      864.615
07/14/2013  09:10:00      -82.294      -30.800       -1.530       26.965       28.788       15.845      727.130      828.730      251.071        0.476        0.090       87.868       14.648        0.028      344.864       21.986      864.615
07/14/2013  09:11:00      -55.604      -60.569       -0.597       16.207       23.143       15.271      262.670      535.590      233.204        0.390        0.052       82.222       11.734        0.020      344.933       22.105      864.616
07/14/2013  09:12:00      -53.325      -63.503       -5.436       25.055       25.304       19.051      627.775      640.299      362.923        0.427        0.082       82.923       17.604        0.045      345.012       22.240      864.616
07/14/2013  09:13:00      -50.075      -37.222       16.975       40.545       34.092       26.442     1643.879     1162.231      699.176        0.384        0.175       62.394       29.619        0.225      345.420       22.940      864.606
07/14/2013  09:14:00      -40.497      -54.371        6.851       39.689       27.115       25.456     1575.248      735.232      648.018        0.380        0.148       67.795       27.648        0.166      345.250       22.648      864.603
07/14/2013  09:15:00      -28.263      -22.313       13.587       38.458       27.892       23.363     1479.025      777.976      545.808        0.214        0.140       36.009       25.096        0.486      345.614       23.272      864.594
07/14/2013  09:16:00      -42.411      -43.661        9.239       27.437       53.893       17.757      752.799     2904.459      315.325        0.388        0.199       60.869       11.924        0.038      345.189       22.542      864.581
07/14/2013  09:17:00      -44.989      -14.963       -5.703       22.164       38.826       13.912      491.230     1507.435      193.548        0.224        0.110       47.412       10.255        0.047      345.124       22.432      864.569
07/14/2013  09:18:00        0.094       25.809       37.291       35.548       34.599       30.392     1263.634     1197.062      923.644        0.272        0.169       25.809       19.993        0.600      346.089       24.086      864.552
07/14/2013  09:19:00       65.948       10.591       39.887       48.720       37.235       37.067     2373.607     1386.418     1373.967        0.559        0.257       66.793       33.310        0.249      344.986       22.195      864.540
07/14/2013  09:20:00       35.663      -10.259       20.943       22.501       26.894       27.270      506.289      723.286      743.654        0.189        0.099       37.110       20.435        0.303      345.271       22.683      864.530
07/14/2013  09:21:00       14.871       20.512       30.962       16.949       24.134       16.812      287.284      582.452      282.642        0.138        0.058       25.336       16.260        0.412      345.839       23.658      864.520
07/14/2013  09:22:00       -2.947      -35.336       -1.275       35.927       40.119       20.807     1290.747     1609.534      432.947        0.230        0.167       35.459       10.242        0.083      345.264       22.670      864.512
07/14/2013  09:23:00      -25.200      -92.069       10.237       35.651       61.611       20.667     1271.004     3795.926      427.105        0.735        0.275       95.455       22.001        0.053      345.369       22.850      864.514
07/14/2013  09:24:00      -28.693       -6.180       20.692       21.840       45.349       24.114      476.968     2056.576      581.490        0.220        0.156       29.351       21.536        0.538      345.714       23.443      864.507
07/14/2013  09:25:00       -9.155       -9.196       17.884       33.928       33.821       23.103     1151.106     1143.858      533.744        0.166        0.141       12.977       11.306        0.759      346.081       24.073      864.501
07/14/2013  09:26:00      -11.421      -36.245       16.639       25.440       25.957       14.525      647.204      673.773      210.961        0.163        0.077       38.002       12.951        0.116      345.817       23.618      864.501
07/14/2013  09:27:00      -45.379      -36.954        2.824       28.806       22.194       21.472      829.798      492.552      461.048        0.261        0.089       58.523       18.627        0.101      345.556       23.170      864.499
07/14/2013  09:28:00      -16.440       -7.005       25.652       30.758       14.040       20.818      946.029      197.121      433.405        0.128        0.079       17.870       21.486        1.446      346.580       24.932      864.496
07/14/2013  09:29:00        1.275       -4.601       27.956       14.286       11.260        8.586      204.083      126.797       73.711        0.060        0.020        4.774        4.807        1.014      346.483       24.764      864.494
07/14/2013  09:30:00        1.164        7.801       38.941       31.625       22.191       19.990     1000.160      492.454      399.620        0.174        0.095        7.888       11.945        2.293      346.105       24.115      864.480
07/14/2013  09:31:00      -83.143      -42.536        9.718       47.968       36.242       23.485     2300.933     1313.503      551.525        0.649        0.208       93.392       28.534        0.093      345.543       23.148      864.474
07/14/2013  09:32:00      -92.601      -77.477        6.866       51.627       40.141       27.967     2665.340     1611.279      782.164        0.984        0.253      120.738       29.341        0.059      345.522       23.113      864.460
07/14/2013  09:33:00     -123.561      -91.936      -14.645       18.555       25.597       14.226      344.292      655.207      202.365        1.257        0.060      154.012        7.374        0.002      345.289       22.714      864.448
07/14/2013  09:34:00      -70.616      -51.632        7.137       34.359       36.274       22.955     1180.557     1315.837      526.911        0.536        0.151       87.479       16.242        0.034      345.564       23.185      864.445
07/14/2013  09:35:00      -86.757      -69.607        9.051       59.736       40.084       35.704     3568.386     1606.741     1274.777        0.945        0.322      111.229       31.243        0.079      345.661       23.351      864.441
07/14/2013  09:36:00      -92.639      -82.715       -5.740       48.927       31.314       23.818     2393.888      980.577      567.298        0.970        0.197      124.192       23.098        0.035      345.489       23.056      864.441
07/14/2013  09:37:00      -73.974      -51.948       -0.492       19.036       22.069       11.615      362.382      487.024      134.919        0.458        0.049       90.393        8.219        0.008      345.467       23.017      864.432
07/14/2013  09:38:00      -39.941      -36.672       11.025       17.836       64.807       20.666      318.122     4199.996      427.088        0.400        0.247       54.223       25.583        0.223      345.893       23.751      864.438
07/14/2013  09:39:00       -8.138      -51.098       15.512       31.838       54.738       32.085     1013.661     2996.212     1029.470        0.398        0.252       51.742       36.370        0.494      345.982       23.902      864.437
07/14/2013  09:40:00      -95.240      -26.519       -3.457       57.755       29.758       23.939     3335.601      885.526      573.060        0.729        0.240       98.863       26.055        0.069      345.712       23.437      864.429
07/14/2013  09:41:00      -50.216      -26.262       -1.716       43.836       19.976       24.531     1921.568      399.049      601.748        0.307        0.146       56.669       23.204        0.168      345.756       23.513      864.422
07/14/2013  09:42:00      -32.767       13.325       21.496       43.021       26.223       25.236     1850.842      687.624      636.860        0.244        0.159       35.372       28.310        0.641      346.469       24.740      864.397
07/14/2013  09:43:00      -64.048       -9.135        5.929       35.373       50.095       28.564     1251.233     2509.552      815.897        0.440        0.229       64.696       28.596        0.195      346.066       24.047      864.380
07/14/2013  09:44:00      -75.602     -116.775        1.337       35.245       33.740       23.722     1242.245     1138.364      562.743        1.115        0.147      139.112       22.412        0.026      345.661       23.351      864.366
07/14/2013  09:45:00      -61.635      -57.856        2.645       38.044       28.288       20.169     1447.377      800.230      406.777        0.490        0.133       84.535       19.415        0.053      345.742       23.491      864.353
07/14/2013  09:46:00      -81.782      -84.903       -0.670       50.905       40.991       23.366     2591.294     1680.273      545.978        0.936        0.241      117.885       24.810        0.044      345.750       23.503      864.344
07/14/2013  09:47:00      -76.774       -7.443       -3.377       37.284       18.821       14.958     1390.093      354.248      223.739        0.396        0.098       77.134        9.815        0.016      345.640       23.313      864.335
07/14/2013  09:48:00      -51.113       13.141        3.622       30.377       16.253       13.727      922.784      264.152      188.427        0.209        0.069       52.775        9.217        0.031      345.704       23.424      864.318
07/14/2013  09:49:00      -42.178       22.069       -3.808       24.125       26.495       23.763      581.997      701.989      564.672        0.206        0.092       47.603       19.234        0.163      345.942       23.834      864.305
07/14/2013  09:50:00        8.042       26.847       19.988       32.950       25.107       30.675     1085.704      630.346      940.934        0.192        0.133       28.025       16.136        0.332      346.543       24.867      864.294
07/14/2013  09:51:00      -17.566       24.888       19.947       20.118       30.586       26.227      404.734      935.475      687.859        0.168        0.101       30.463       16.657        0.299      346.260       24.380      864.271
07/14/2013  09:52:00      -23.018      -30.520        0.990       14.763       16.811       20.540      217.951      282.617      421.873        0.119        0.046       38.227        9.488        0.062      346.034       23.992      864.256
07/14/2013  09:53:00       35.139      -65.697       -9.963       30.924       29.752       25.579      956.282      885.182      654.276        0.407        0.125       74.504       17.849        0.057      345.622       23.284      864.241
07/14/2013  09:54:00        5.659      -24.708       30.498       27.665       62.023       24.736      765.345     3846.890      611.866        0.340        0.261       25.348       23.372        0.850      345.811       23.609      864.228
07/14/2013  09:55:00        3.319      -11.376       20.621       20.746       37.897       22.879      430.387     1436.187      523.436        0.148        0.120       11.851       16.197        1.868      345.956       23.857      864.219
07/14/2013  09:56:00       56.508       58.700       38.161       35.529       47.245       43.831     1262.276     2232.112     1921.195        0.675        0.271       81.479       28.639        0.124      345.983       23.906      864.215
07/14/2013  09:57:00       33.857       -2.371        1.520       29.119       23.887       21.447      847.940      570.574      459.981        0.152        0.094       33.940        4.205        0.015      345.821       23.626      864.212
07/14/2013  09:58:00       16.782       -7.139       30.869       30.386       27.449       27.545      923.330      753.440      758.753        0.186        0.122       18.237       19.746        1.172      346.474       24.750      864.212
07/14/2013  09:59:00       10.812        7.416       34.153       36.407       43.659       31.039     1325.473     1906.120      963.429        0.277        0.210       13.111       27.421        4.375      347.087       25.805      864.200
07/14/2013  10:00:00       40.542       19.411       53.226       56.100       59.283       37.726     3147.159     3514.485     1423.267        0.647        0.404       44.949       17.386        0.150      346.398       24.618      864.186
07/14/2013  10:01:00       68.990      -13.179       16.829       53.296       45.346       41.965     2840.412     2056.242     1761.060        0.594        0.333       70.238       35.989        0.263      346.170       24.226      864.191
07/14/2013  10:02:00       52.307       22.937        8.681       42.558       46.215       29.783     1811.194     2135.853      887.050        0.408        0.242       57.115       25.188        0.194      346.192       24.262      864.180
07/14/2013  10:03:00       49.714       55.947        8.160       49.952       25.677       18.985     2495.180      659.295      360.441        0.459        0.176       74.843       13.769        0.034      346.322       24.486      864.164
07/14/2013  10:04:00       24.066       50.591       18.868       36.706       34.505       31.044     1347.332     1190.582      963.701        0.350        0.175       56.024       27.094        0.234      346.901       25.483      864.141
07/14/2013  10:05:00       37.132       25.063       30.381       32.242       34.339       31.053     1039.536     1179.148      964.305        0.306        0.159       44.799       15.161        0.115      347.092       25.811      864.131
07/14/2013  10:06:00       98.590       61.885        2.182       57.903       31.250       36.653     3352.759      976.575     1343.439        0.961        0.284      116.403       16.617        0.020      346.386       24.598      864.122
07/14/2013  10:07:00      111.778       77.171       25.376       48.074       41.674       39.856     2311.063     1736.699     1588.470        1.236        0.282      135.829       23.594        0.030      346.230       24.329      864.106
07/14/2013  10:08:00      100.325       71.458       32.438       59.286       30.242       41.597     3514.819      914.559     1730.351        1.119        0.308      123.172       15.080        0.015      346.286       24.423      864.104
07/14/2013  10:09:00       74.224       68.307        3.940       44.533       32.515       28.221     1983.149     1057.222      796.433        0.701        0.192      100.872       25.394        0.063      346.668       25.081      864.106
07/14/2013  10:10:00       27.320       53.640        1.281       47.728       47.660       32.689     2278.006     2271.467     1068.570        0.462        0.281       60.197       23.064        0.147      346.532       24.846      864.098
07/14/2013  10:11:00       13.488       -6.343       -0.559       17.948       24.365       26.848      322.117      593.661      720.790        0.093        0.082       14.905       14.984        1.011      346.647       25.046      864.105
07/14/2013  10:12:00      -30.971       11.905      -10.698       23.712       35.380       18.060      562.258     1251.730      326.150        0.168        0.107       33.180        8.215        0.061      346.392       24.608      864.089
07/14/2013  10:13:00      -19.075        3.473       15.450       22.689       17.109       20.525      514.780      292.709      421.285        0.092        0.061       19.389       16.720        0.744      347.120       25.862      864.080
07/14/2013  10:14:00       27.406       27.112       27.670       29.219       24.065       29.937      853.776      579.129      896.224        0.229        0.116       38.551       22.085        0.328      346.616       24.993      864.076
07/14/2013  10:15:00       28.007       16.480       17.318       24.493       18.879       26.541      599.897      356.412      704.420        0.151        0.083       32.496       12.802        0.155      346.190       24.259      864.067
07/14/2013  10:16:00        3.808       18.895       39.935       29.583       26.636       22.435      875.128      709.489      503.338        0.203        0.104       19.275       18.565        0.928      346.873       25.433      864.067
07/14/2013  10:17:00       38.456       22.231       19.472       35.283       29.883       22.652     1244.886      892.968      513.097        0.250        0.133       44.420       11.211        0.064      346.417       24.650      864.056
07/14/2013  10:18:00       18.294       48.910       16.970       35.532       60.122       31.649     1262.545     3614.634     1001.665        0.445        0.294       52.219       36.958        0.501      347.173       25.952      864.058
07/14/2013  10:19:00       28.385       23.772       21.809       26.815       29.576       28.665      719.053      874.768      821.682        0.213        0.121       37.025       22.032        0.354      347.453       26.433      864.053
07/14/2013  10:20:00       12.725      -37.139       13.358       24.764       53.853       34.110      613.280     2900.187     1163.515        0.320        0.234       39.258       24.836        0.400      346.529       24.843      864.042
07/14/2013  10:21:00       88.556       64.869       62.577       67.717       55.478       48.947     4585.653     3077.824     2395.817        1.301        0.503      109.774       32.085        0.085      346.721       25.172      864.037
07/14/2013  10:22:00      168.877       68.656       31.461       61.657       58.763       44.239     3801.593     3453.044     1957.045        2.172        0.461      182.299       30.640        0.028      346.280       24.411      864.028
07/14/2013  10:23:00      112.157      113.259       67.110       58.129       45.028       57.421     3378.990     2027.510     3297.154        1.931        0.435      159.395       41.689        0.068      346.584       24.936      864.026
07/14/2013  10:24:00       34.369       54.999       55.656       34.600       39.757       40.282     1197.157     1580.641     1622.678        0.585        0.220       64.854       19.924        0.094      346.669       25.084      864.027
07/14/2013  10:25:00       17.277      -19.306       13.245       21.367       28.180       26.428      456.562      794.089      698.462        0.140        0.097       25.907        7.428        0.082      346.255       24.370      864.026
07/14/2013  10:26:00       70.224       61.822       34.436       44.649       46.347       37.625     1993.546     2148.031     1415.612        0.775        0.278       93.560       18.270        0.038      346.472       24.745      864.019
07/14/2013  10:27:00       39.010      -28.884       23.149       36.529       38.421       32.732     1334.341     1476.139     1071.414        0.339        0.194       48.540       27.570        0.323      346.439       24.688      864.019
07/14/2013  10:28:00       40.101      -27.265       18.883       32.068       40.063       34.743     1028.367     1605.058     1207.097        0.327        0.192       48.492       18.370        0.144      346.358       24.550      864.021
07/14/2013  10:29:00       75.832       48.661       30.696       82.195       77.630       41.887     6756.054     6026.392     1754.524        1.180        0.727       90.102       28.464        0.100      346.442       24.690      864.017
07/14/2013  10:30:00      131.394       93.977       25.402       63.854       45.664       41.658     4077.312     2085.189     1735.422        1.732        0.395      161.543       37.085        0.053      346.569       24.909      864.016
07/14/2013  10:31:00       27.293      -29.146       25.051       32.496       45.488       34.817     1055.964     2069.172     1212.240        0.328        0.217       39.929       34.542        0.748      346.711       25.154      864.025
07/14/2013  10:32:00       -6.343      -27.129        9.378       29.862       28.048       17.804      891.761      786.699      316.974        0.143        0.100       27.861       16.159        0.336      346.777       25.270      864.011
07/14/2013  10:33:00     -100.053      -35.741       -2.463       41.826       18.113       14.243     1749.415      328.063      202.873        0.679        0.114      106.245       11.558        0.012      346.554       24.887      864.005
07/14/2013  10:34:00      -63.622      -17.716        6.201       49.932       23.277       22.441     2493.245      541.835      503.612        0.397        0.177       66.043       30.290        0.210      347.291       26.155      864.000
07/14/2013  10:35:00      -14.197      -70.800      -12.269       23.471       40.812       19.308      550.884     1665.618      372.780        0.398        0.129       72.209       16.566        0.053      346.628       25.011      863.996
07/14/2013  10:36:00      -17.211      -54.824        5.358       20.943       24.880       16.063      438.609      619.036      258.027        0.232        0.066       57.462       16.159        0.079      346.720       25.172      863.999
07/14/2013  10:37:00      -12.031      -33.583       15.309       32.177       38.858       36.874     1035.356     1509.974     1359.728        0.271        0.195       35.673       17.558        0.242      347.173       25.951      863.985
07/14/2013  10:38:00       -0.278       -8.153       49.926       27.068       36.429       23.791      732.692     1327.058      566.020        0.259        0.131        8.157       18.835        5.331      347.811       27.054      863.985
07/14/2013  10:39:00       29.785       37.219       45.620       35.113       37.850       30.351     1232.914     1432.606      921.165        0.397        0.179       47.670       20.941        0.193      346.712       25.157      863.982
07/14/2013  10:40:00       26.535        6.632        8.243       28.957       29.227       27.734      838.506      854.229      769.154        0.164        0.123       27.351        9.975        0.133      346.782       25.280      863.979
07/14/2013  10:41:00       48.199       -6.224        6.846       43.717       22.629       25.736     1911.143      512.089      662.330        0.275        0.154       48.599       23.847        0.241      346.824       25.350      863.972
07/14/2013  10:42:00       37.958       38.738       15.081       30.069       51.533       27.132      904.141     2655.636      736.145        0.373        0.215       54.236       10.206        0.035      347.047       25.735      863.974
07/14/2013  10:43:00       28.851       38.851        7.488       43.847       20.243       22.481     1922.591      409.792      505.417        0.262        0.142       48.392       11.596        0.057      347.296       26.162      863.958
07/14/2013  10:44:00       14.702      -11.858        6.095       38.382       34.443       31.234     1473.188     1186.344      975.578        0.201        0.182       18.888       24.076        1.625      347.459       26.447      863.956
07/14/2013  10:45:00       53.781        7.004       54.950       58.024       70.510       51.126     3366.759     4971.661     2613.895        0.845        0.548       54.236       37.801        0.486      346.981       25.622      863.939
07/14/2013  10:46:00       67.402       64.610       83.697       70.921       61.215       40.280     5029.841     3747.291     1622.516        1.306        0.520       93.367       21.323        0.052      347.050       25.738      863.935
07/14/2013  10:47:00      186.561      129.429       23.384       62.390       47.306       38.986     3892.545     2237.883     1519.927        2.988        0.383      227.061       22.390        0.010      346.861       25.410      863.936
07/14/2013  10:48:00       26.683       35.143        8.205       18.938       30.047       24.754      358.649      902.804      612.768        0.194        0.094       44.125        7.855        0.032      347.100       25.826      863.943
07/14/2013  10:49:00      -69.159       61.679       -9.645       47.317       47.567       30.132     2238.859     2262.651      907.923        0.704        0.270       92.668       14.572        0.025      347.089       25.806      863.927
07/14/2013  10:50:00       38.786       38.882       39.206       32.690       27.904       24.502     1068.620      778.641      600.330        0.350        0.122       54.920        7.525        0.019      347.629       26.736      863.916
07/14/2013  10:51:00      109.645       85.994       51.410       96.276       61.750       64.214     9268.983     3813.075     4123.490        1.963        0.860      139.345       33.408        0.057      347.390       26.322      863.909
07/14/2013  10:52:00      121.737       64.142       43.697       67.218       74.946       46.824     4518.246     5616.867     2192.489        1.658        0.616      137.601       41.101        0.089      346.677       25.095      863.920
07/14/2013  10:53:00      122.534       70.355        9.838       63.861       45.689       52.080     4078.195     2087.444     2712.362        1.447        0.444      141.295       27.902        0.039      347.193       25.986      863.912
07/14/2013  10:54:00       58.066       19.288       14.489       65.540       74.846       41.472     4295.459     5601.943     1719.904        0.778        0.581       61.186       23.844        0.152      347.364       26.280      863.907
07/14/2013  10:55:00       62.577      -53.153       -2.009       48.777       44.307       42.556     2379.207     1963.111     1810.974        0.645        0.308       82.105       22.156        0.073      346.759       25.239      863.918
07/14/2013  10:56:00       -3.869      -50.727       -1.933       26.627       30.251       17.905      709.023      915.116      320.604        0.227        0.097       50.874       15.448        0.092      346.957       25.579      863.919
07/14/2013  10:57:00       69.139       72.053       49.144       54.201       33.562       28.468     2937.757     1126.407      810.454        0.863        0.244       99.859       19.731        0.039      346.983       25.623      863.910
07/14/2013  10:58:00       92.318        9.964       18.144       44.028       64.256       38.273     1938.453     4128.777     1464.815        0.824        0.377       92.854       36.468        0.154      347.015       25.680      863.913
07/14/2013  10:59:00       45.740       31.681       13.086       43.309       22.088       19.415     1875.693      487.882      376.936        0.300        0.137       55.640       19.601        0.124      347.332       26.227      863.895
07/14/2013  11:00:00      -38.858       37.546        0.243       31.652       20.584       23.265     1001.845      423.714      541.270        0.244        0.098       54.034       22.094        0.167      347.611       26.706      863.883
07/14/2013  11:01:00      -38.749       33.231       -6.409       25.642       35.887       24.917      657.527     1287.875      620.847        0.261        0.128       51.047       24.438        0.229      347.548       26.597      863.867
07/14/2013  11:02:00      -17.086       -1.810        7.376       26.419       31.696       20.866      697.954     1004.654      435.408        0.124        0.107       17.181        8.456        0.242      348.098       27.546      863.863
07/14/2013  11:03:00      -13.674      -24.695        9.159       20.362       22.375       16.781      414.611      500.643      281.605        0.104        0.060       28.228       10.430        0.137      347.867       27.148      863.843
07/14/2013  11:04:00      -67.538      -50.098        6.957       56.349       30.688       27.442     3175.174      941.783      753.083        0.599        0.244       84.091       32.895        0.153      347.577       26.648      863.837
07/14/2013  11:05:00      -30.915      -51.111        4.697       46.015       44.990       27.894     2117.348     2024.096      778.098        0.425        0.246       59.734       26.346        0.195      347.887       27.183      863.829
07/14/2013  11:06:00      -55.402        7.515        7.849       40.806       27.411       22.840     1665.111      751.379      521.644        0.306        0.147       55.910       21.588        0.149      347.927       27.254      863.817
07/14/2013  11:07:00      -63.553        0.081       -7.516       37.823       37.300       15.779     1430.569     1391.283      248.979        0.358        0.154       63.553        8.441        0.018      347.694       26.848      863.809
07/14/2013  11:08:00        7.848        1.172       27.285       51.016       24.505       33.568     2602.672      600.512     1126.803        0.257        0.216        7.935       25.972       10.712      348.384       28.041      863.797
07/14/2013  11:09:00       -6.276        0.037       21.416       30.670       32.144       29.022      940.644     1033.263      842.253        0.166        0.141        6.276       25.782       16.875      348.489       28.223      863.790
07/14/2013  11:10:00        7.656      -18.634      -31.073       49.640       36.567       28.032     2464.132     1337.161      785.769        0.298        0.229       20.146       14.748        0.536      347.775       26.989      863.775
07/14/2013  11:11:00      -15.802      -36.135        4.874       30.072       27.178       17.495      904.305      738.648      306.062        0.176        0.097       39.439       13.802        0.122      348.059       27.480      863.770
07/14/2013  11:12:00      -16.026        0.032       41.478       22.283       33.247       21.663      496.512     1105.334      469.279        0.202        0.104       16.026       18.246        1.296      348.822       28.800      863.754
07/14/2013  11:13:00       34.315      -54.702       11.895       47.066       52.419       34.862     2215.194     2747.758     1215.373        0.524        0.309       64.574       32.551        0.254      347.658       26.787      863.742
07/14/2013  11:14:00       23.277       18.472       34.225       46.477       48.676       32.658     2160.134     2369.366     1066.572        0.382        0.280       29.716       28.165        0.898      348.057       27.475      863.714
07/14/2013  11:15:00        1.797      -64.423       30.322       69.279       95.951       44.576     4799.567     9206.625     1987.055        1.053        0.800       64.448       46.348        0.517      347.976       27.337      863.690
07/14/2013  11:16:00      104.672     -139.004       -6.732       67.649       70.401       53.038     4576.365     4956.335     2813.051        2.133        0.617      174.007       44.696        0.066      347.695       26.849      863.666
07/14/2013  11:17:00       64.253       11.783       23.285       74.736       91.423       45.906     5585.482     8358.251     2107.406        1.043        0.803       65.324       44.932        0.473      347.883       27.176      863.660
07/14/2013  11:18:00       40.713       83.983       62.702       61.916       73.620       48.597     3833.649     5419.964     2361.638        1.213        0.581       93.331       39.207        0.176      347.887       27.181      863.634
07/14/2013  11:19:00      -27.676       29.150       46.009       62.702       93.381       60.640     3931.560     8719.979     3677.250        1.003        0.816       40.195       49.577        1.521      348.155       27.646      863.623
07/14/2013  11:20:00       63.829     -143.692        7.409       42.109       62.854       45.160     1773.206     3950.584     2039.382        1.627        0.388      157.231       29.244        0.035      347.779       26.995      863.633
07/14/2013  11:21:00       10.597       57.928       59.845       31.235       50.282       40.069      975.634     2528.254     1605.526        0.608        0.255       58.890       34.298        0.339      347.865       27.143      863.641
07/14/2013  11:22:00      -37.241       15.844        6.089       32.765       27.941       26.148     1073.563      780.707      683.700        0.211        0.127       40.471       22.256        0.302      348.175       27.679      863.626
07/14/2013  11:23:00      -53.825       31.911       -4.921       31.713       44.715       23.599     1005.740     1999.425      556.932        0.375        0.178       62.574       19.918        0.101      348.041       27.449      863.617
07/14/2013  11:24:00      -54.059      -52.939       -2.566       43.656       44.215       23.246     1905.814     1954.926      540.370        0.507        0.220       75.663       16.792        0.049      347.957       27.303      863.614
07/14/2013  11:25:00       -9.205      -70.016       -3.809       38.044       54.353       34.772     1447.350     2954.291     1209.083        0.530        0.281       70.619       26.452        0.140      347.961       27.311      863.612
07/14/2013  11:26:00       21.576     -142.990      -24.329       50.974       46.704       35.409     2598.312     2181.258     1253.812        1.377        0.302      144.608       18.269        0.016      347.737       26.921      863.615
07/14/2013  11:27:00        8.548      -12.688      -14.595       44.167       68.069       34.477     1950.714     4633.350     1188.651        0.411        0.389       15.298       18.380        1.443      347.800       27.030      863.610
07/14/2013  11:28:00      -71.347       11.825      -43.455       25.388       21.597       14.289      644.528      466.445      204.174        0.422        0.066       72.320       10.479        0.021      347.562       26.621      863.591
07/14/2013  11:29:00      -26.986       20.799       22.994       25.991       27.757       32.952      675.519      770.440     1085.823        0.211        0.127       34.071       27.327        0.643      348.254       27.818      863.586
07/14/2013  11:30:00       -5.027       42.557       72.338       35.326       42.088       25.673     1247.907     1771.420      659.120        0.537        0.184       42.853       25.781        0.362      348.389       28.050      863.574
07/14/2013  11:31:00      -36.400      -13.608        8.710       22.014       24.991       20.541      484.601      624.554      421.950        0.156        0.077       38.860       15.584        0.161      348.338       27.961      863.558
07/14/2013  11:32:00       11.883      -37.762       22.123       26.774       48.217       35.623      716.852     2324.902     1269.029        0.318        0.216       39.587       32.534        0.675      348.850       28.848      863.549
07/14/2013  11:33:00      -19.184       11.576       32.554       27.476       34.522       31.277      754.938     1191.767      978.279        0.224        0.146       22.406       11.747        0.275      348.953       29.026      863.533
07/14/2013  11:34:00       16.829      -24.704       36.673       72.329       58.339       43.743     5231.477     3403.450     1913.437        0.639        0.527       29.892       48.715        2.656      348.856       28.858      863.526
07/14/2013  11:35:00       62.943       56.362       53.964       59.209       59.450       32.975     3505.653     3534.256     1087.349        0.909        0.406       84.490       31.412        0.138      348.550       28.328      863.506
07/14/2013  11:36:00       52.340       14.852       47.522       50.017       56.208       42.444     2501.695     3159.333     1801.504        0.634        0.373       54.407       35.314        0.421      348.312       27.916      863.516
07/14/2013  11:37:00      124.015       65.543       57.830       67.447       63.986       33.034     4549.101     4094.161     1091.234        1.638        0.487      140.269       31.200        0.049      347.861       27.135      863.496
07/14/2013  11:38:00      127.400       58.605       33.481       41.394       55.802       53.045     1713.490     3113.897     2813.757        1.421        0.382      140.233       18.742        0.018      347.852       27.122      863.506
07/14/2013  11:39:00       55.643       26.260       64.431       42.330       63.159       42.260     1791.855     3989.032     1785.901        0.775        0.378       61.528       48.811        0.629      348.126       27.596      863.504
07/14/2013  11:40:00       -1.349        1.396       20.437       28.271       19.074       18.506      799.259      363.808      342.479        0.096        0.075        1.941        9.336       23.126      348.536       28.304      863.500
07/14/2013  11:41:00       32.231       22.991        0.549       72.245       39.745       29.373     5219.291     1579.704      862.776        0.461        0.383       39.590       17.796        0.202      348.198       27.717      863.494
07/14/2013  11:42:00      -42.165       87.800        4.428       41.234       59.540       46.551     1700.280     3544.961     2167.028        0.846        0.371       97.400       43.273        0.197      348.093       27.537      863.497
07/14/2013  11:43:00      -31.036      100.230        8.178       34.981       47.284       35.601     1223.676     2235.781     1267.437        0.790        0.236      104.925       32.611        0.097      348.568       28.361      863.483
07/14/2013  11:44:00      -33.367      110.357        6.376       34.500       75.178       37.804     1190.258     5651.761     1429.127        1.080        0.414      115.291       37.862        0.108      348.411       28.090      863.474
07/14/2013  11:45:00      -89.463       43.086      -12.373       42.118       57.678       29.620     1773.902     3326.714      877.343        0.799        0.299       99.298       22.016        0.049      348.235       27.784      863.452
07/14/2013  11:46:00      -80.344      121.526       -7.858       52.815       95.677       37.492     2789.468     9154.059     1405.670        1.731        0.667      145.683       42.253        0.084      348.371       28.018      863.444
07/14/2013  11:47:00      -93.999       26.171      -27.012       33.700       54.193       27.745     1135.711     2936.869      769.771        0.755        0.242       97.574       12.752        0.017      348.161       27.656      863.448
07/14/2013  11:48:00      -41.000        1.496        7.667       66.437       40.528       35.202     4413.897     1642.543     1239.164        0.452        0.365       41.028       33.275        0.658      348.703       28.593      863.464
07/14/2013  11:49:00      -59.410      -30.906       22.114       58.172       44.708       28.045     3383.994     1998.820      786.537        0.557        0.308       66.968       36.773        0.302      348.678       28.551      863.459
07/14/2013  11:50:00      -76.011       -3.505       -8.217       33.793       43.335       26.107     1141.956     1877.921      681.596        0.478        0.185       76.092       19.784        0.068      348.067       27.494      863.460
07/14/2013  11:51:00       89.600      -68.900       15.980       93.801       95.278       59.943     8798.537     9077.822     3593.109        1.725        1.073      113.028       75.345        0.444      348.560       28.344      863.451
07/14/2013  11:52:00       67.814     -124.895       -0.216       77.431      103.980       55.176     5995.580    10811.826     3044.393        2.002        0.993      142.118       57.116        0.162      348.329       27.945      863.439
07/14/2013  11:53:00      127.175      -53.196       33.681       97.819      143.997       64.194     9568.562    20735.106     4120.870        2.727        1.721      137.852       92.015        0.446      348.478       28.202      863.427
07/14/2013  11:54:00       48.699      -18.439       28.722       57.810       29.646       39.855     3341.998      878.907     1588.425        0.467        0.290       52.073       35.725        0.471      348.559       28.344      863.433
07/14/2013  11:55:00       -8.249      -41.540       30.552       24.589       37.600       27.664      604.623     1413.786      765.310        0.275        0.139       42.352       17.190        0.165      348.743       28.663      863.419
07/14/2013  11:56:00       12.090       14.250       47.093       29.916       52.174       32.582      894.992     2722.090     1061.598        0.362        0.234       18.687       28.780        2.372      348.788       28.739      863.421
07/14/2013  11:57:00       11.654        0.576       41.835       37.111       51.287       31.165     1377.191     2630.400      971.278        0.343        0.249       11.668       23.742        4.140      348.908       28.947      863.407
07/14/2013  11:58:00       38.381       21.093       47.775       39.023       43.973       24.823     1522.801     1933.627      616.201        0.414        0.204       43.795       18.940        0.187      348.705       28.597      863.398
07/14/2013  11:59:00        8.217       27.905       48.771       27.942       31.031       23.967      780.775      962.946      574.415        0.277        0.116       29.090       17.154        0.348      349.028       29.155      863.399
07/14/2013  12:00:00       -8.203      -24.681       15.593       45.982       28.595       30.600     2114.334      817.648      936.332        0.239        0.193       26.008       14.242        0.300      348.851       28.848      863.394
07/14/2013  12:01:00      -82.888      -53.015       -7.089       52.173       52.596       31.267     2721.993     2766.371      977.594        0.810        0.323       98.392       17.067        0.030      348.434       28.126      863.390
07/14/2013  12:02:00       -5.155      -84.541       -1.806       58.567       27.334       26.789     3430.092      747.134      717.677        0.603        0.245       84.698       19.451        0.053      348.040       27.445      863.376
07/14/2013  12:03:00      -86.149      -26.701        6.845       78.574       40.897       25.995     6173.853     1672.556      675.730        0.835        0.426       90.192       22.109        0.060      348.176       27.679      863.359
07/14/2013  12:04:00      -29.049      -24.377        6.473       20.231       53.118       19.615      409.279     2821.521      384.734        0.255        0.181       37.922       17.719        0.218      348.225       27.765      863.339
07/14/2013  12:05:00      -89.817        0.677        1.032       36.716       36.137       16.176     1348.081     1305.897      261.649        0.549        0.146       89.820       10.143        0.013      348.167       27.665      863.323
07/14/2013  12:06:00       -1.523      -33.266       13.159       28.979       35.395       23.796      839.801     1252.809      566.241        0.197        0.133       33.301       21.813        0.429      348.574       28.370      863.306
07/14/2013  12:07:00     -152.534      -45.522       -0.613       77.968       53.899       33.207     6079.082     2905.108     1102.680        1.771        0.504      159.182       27.283        0.029      348.419       28.099      863.298
07/14/2013  12:08:00     -144.014      -72.466       -5.673       54.333       48.800       32.082     2952.059     2381.470     1029.281        1.619        0.318      161.219       31.918        0.039      348.389       28.049      863.281
07/14/2013  12:09:00      -96.687      -47.699        5.613       90.236       47.450       39.059     8142.511     2251.538     1525.603        1.178        0.596      107.813       41.601        0.149      348.834       28.820      863.276
07/14/2013  12:10:00     -118.727      -88.892       -4.624       83.349       67.825       31.944     6946.973     4600.294     1020.391        1.729        0.628      148.317       24.723        0.028      348.453       28.158      863.259
07/14/2013  12:11:00     -140.729      -97.032       13.333       99.301       64.370       41.170     9860.655     4143.474     1694.944        2.255        0.785      170.939       41.262        0.058      348.600       28.412      863.263
07/14/2013  12:12:00      -84.200       -7.889        4.422       67.928       59.605       39.196     4614.180     3552.779     1536.303        0.844        0.485       84.569       31.988        0.143      348.884       28.905      863.253
07/14/2013  12:13:00     -127.143       55.014      -13.264       66.060       31.008       18.577     4363.910      961.509      345.091        1.252        0.284      138.534       20.057        0.021      348.204       27.729      863.244
07/14/2013  12:14:00      -46.476       13.811        2.665       22.340       20.743       17.437      499.063      430.254      304.049        0.180        0.062       48.485       12.046        0.062      348.590       28.396      863.229
07/14/2013  12:15:00     -135.506      -32.900        4.697       90.962       74.283       43.454     8274.064     5518.027     1888.288        1.757        0.784      139.443       43.660        0.098      348.882       28.902      863.215
07/14/2013  12:16:00     -185.226      -70.448        0.822      104.283       68.970       50.709    10874.888     4756.842     2571.392        2.873        0.910      198.170       51.535        0.068      348.420       28.099      863.209
07/14/2013  12:17:00      -96.994        5.738        0.133       41.386       68.503       34.436     1712.835     4692.691     1185.846        0.851        0.380       97.163       31.926        0.108      348.376       28.028      863.186
07/14/2013  12:18:00      -94.448     -127.165       -0.368       67.091       66.024       37.501     4501.207     4359.112     1406.338        1.768        0.513      158.403       40.863        0.067      348.438       28.133      863.181
07/14/2013  12:19:00     -145.466     -142.930        5.259      107.440       92.249       47.779    11543.369     8509.802     2282.851        3.197        1.117      203.935       44.656        0.048      348.444       28.142      863.160
07/14/2013  12:20:00     -150.540     -118.402       11.679      114.593       88.838       63.821    13131.616     7892.128     4073.133        3.095        1.255      191.523       61.626        0.104      348.650       28.498      863.134
07/14/2013  12:21:00     -106.054     -100.423        7.847       76.702       64.379       45.631     5883.142     4144.692     2082.174        1.675        0.606      146.055       46.030        0.099      348.636       28.475      863.146
07/14/2013  12:22:00      -75.962      -46.885       16.346       69.723       52.735       39.354     4861.233     2780.979     1548.763        0.871        0.460       89.266       39.613        0.197      349.017       29.137      863.147
07/14/2013  12:23:00     -168.886      -31.606       -4.477       52.619       47.315       25.605     2768.711     2238.684      655.600        1.760        0.283      171.818       21.292        0.015      348.463       28.175      863.144
07/14/2013  12:24:00     -113.979      -15.721        2.094       67.712       59.829       26.485     4584.959     3579.541      701.440        1.105        0.443      115.059       26.671        0.054      348.491       28.226      863.146
07/14/2013  12:25:00      -16.073       -6.283       15.585       18.690       19.649       18.005      349.305      386.083      324.167        0.080        0.053       17.257       15.783        0.836      349.205       29.464      863.134
07/14/2013  12:26:00      -37.026        9.812       18.611       43.496       28.796       23.596     1891.936      829.220      556.765        0.255        0.164       38.304       24.805        0.419      349.165       29.394      863.130
07/14/2013  12:27:00      -68.132      -11.367        0.015       47.669       20.534       15.630     2272.296      421.658      244.295        0.385        0.147       69.073       21.288        0.095      348.497       28.236      863.128
07/14/2013  12:28:00      -79.836      -25.509        3.429       51.509       40.860       25.389     2653.193     1669.557      644.616        0.600        0.248       83.813       29.647        0.125      348.609       28.431      863.120
07/14/2013  12:29:00     -148.724      -89.789      -19.944       51.437       44.058       24.795     2645.756     1941.115      614.799        1.789        0.260      173.726       22.545        0.017      348.458       28.168      863.114
07/14/2013  12:30:00      -77.176      -27.881        1.430       48.631       35.863       20.760     2364.936     1286.154      430.957        0.541        0.204       82.057       15.858        0.037      348.592       28.400      863.095
07/14/2013  12:31:00      -47.028       25.589       22.903       42.072       35.310       25.019     1770.048     1246.786      625.935        0.352        0.182       53.539       22.900        0.183      348.836       28.823      863.082
07/14/2013  12:32:00      -12.660       30.819       25.012       47.523       30.707       27.789     2258.406      942.892      772.209        0.285        0.199       33.318       24.878        0.558      349.287       29.605      863.070
07/14/2013  12:33:00       32.669       39.431       12.079       30.277       29.771       28.108      916.694      886.325      790.045        0.268        0.130       51.206       21.277        0.173      348.698       28.585      863.058
07/14/2013  12:34:00       10.333      123.375       -4.006       33.339       67.688       30.964     1111.502     4581.621      958.743        1.100        0.333      123.807       35.575        0.083      348.696       28.582      863.042
07/14/2013  12:35:00       -6.197       88.738        4.790       31.197       79.422       33.969      973.246     6307.927     1153.881        0.818        0.422       88.954       43.893        0.243      349.397       29.797      863.028
07/14/2013  12:36:00      -34.246       56.494        0.824       28.192       37.233       26.460      794.776     1386.302      700.135        0.362        0.144       66.064       20.425        0.096      349.253       29.546      863.016
07/14/2013  12:37:00       -7.135       27.476       20.233       25.904       55.038       33.520      671.015     3029.132     1123.616        0.302        0.241       28.388       30.887        1.184      349.330       29.679      862.987
07/14/2013  12:38:00       38.335       59.125        0.988       34.681       51.859       26.978     1202.800     2689.330      727.798        0.479        0.231       70.465       12.387        0.031      348.939       29.001      862.967
07/14/2013  12:39:00       67.375       44.090       39.392       65.855       78.002       45.987     4336.889     6084.348     2114.776        1.028        0.627       80.519       32.916        0.167      348.914       28.956      862.957
07/14/2013  12:40:00      108.388       84.323       18.262       60.172       47.432       40.846     3620.684     2249.767     1668.389        1.336        0.377      137.326       29.379        0.046      349.092       29.265      862.923
07/14/2013  12:41:00       -2.865       70.204        0.539       96.022       66.900       39.650     9220.287     4475.669     1572.103        1.010        0.763       70.263       33.511        0.227      349.158       29.381      862.875
07/14/2013  12:42:00       35.456       22.811       60.193       48.243       57.675       42.701     2327.346     3326.434     1823.393        0.644        0.374       42.160       38.915        0.852      348.458       28.170      862.854
07/14/2013  12:43:00      -12.963     -132.413       27.451       70.308      124.615       98.357     4943.157    15528.957     9674.119        2.429        1.507      133.046       98.860        0.552      349.272       29.575      862.841
07/14/2013  12:44:00      -78.142      -91.991       10.568       87.697       67.835       38.529     7690.737     4601.561     1484.470        1.423        0.689      120.700       36.238        0.090      349.418       29.831      862.841
07/14/2013  12:45:00      -42.302     -171.937       -7.106       61.235       76.303       46.309     3749.746     5822.090     2144.555        2.156        0.586      177.064       27.059        0.023      349.306       29.635      862.871
07/14/2013  12:46:00      -27.383      -67.252       -3.528       87.880       73.868       42.191     7722.836     5456.452     1780.048        1.012        0.748       72.613       26.466        0.133      349.229       29.503      862.829
07/14/2013  12:47:00       -6.254      -93.326        4.710       28.470       66.836       31.352      810.519     4467.033      982.969        0.751        0.313       93.535       24.320        0.068      349.162       29.388      862.812
07/14/2013  12:48:00      -49.615        1.626       12.101       36.050       28.094       23.494     1299.590      789.275      551.945        0.263        0.132       49.641       11.727        0.056      349.232       29.510      862.785
07/14/2013  12:49:00       54.903       19.996        6.216       36.570       29.341       27.391     1337.349      860.897      750.270        0.320        0.147       58.431       16.419        0.079      348.674       28.544      862.762
07/14/2013  12:50:00        5.420      -46.915       23.213       18.819       32.416       25.125      354.141     1050.810      631.290        0.240        0.102       47.227        5.578        0.014      348.941       29.004      862.753
07/14/2013  12:51:00       21.491        4.767       -1.564       32.831       28.075       20.122     1077.859      788.233      404.906        0.138        0.114       22.013       16.223        0.543      348.994       29.097      862.732
07/14/2013  12:52:00       63.576      -15.666       17.897       45.406       40.661       35.484     2061.747     1653.349     1259.086        0.479        0.249       65.478       33.686        0.265      349.079       29.243      862.721
07/14/2013  12:53:00       29.045      -50.624       24.469       22.578       77.183       27.721      509.755     5957.212      768.463        0.562        0.362       58.364       34.716        0.354      349.439       29.867      862.701
07/14/2013  12:54:00       96.166      -90.898       19.059      112.877      122.581       69.151    12741.258    15026.024     4781.866        2.520        1.627      132.326       90.916        0.472      349.889       30.648      862.699
07/14/2013  12:55:00      148.222        2.809       82.209      136.035      195.883      107.747    18505.509    38370.333    11609.429        4.860        3.424      148.248      138.073        0.867      349.708       30.333      862.673
07/14/2013  12:56:00      130.176      -97.971       10.462       81.733       86.990       62.569     6680.358     7567.329     3914.860        2.240        0.908      162.923       58.248        0.128      349.575       30.102      862.676
07/14/2013  12:57:00      126.632     -189.968        2.077      107.085      161.542       82.462    11467.224    26095.855     6799.969        4.824        2.218      228.306       89.685        0.154      349.552       30.062      862.681
07/14/2013  12:58:00       67.856      -15.911       44.023       82.302       72.677       47.417     6773.700     5281.900     2248.356        1.055        0.715       69.696       46.917        0.453      349.687       30.297      862.668
07/14/2013  12:59:00       13.869       24.184       63.731       76.025       60.288       36.760     5779.797     3634.684     1351.268        0.780        0.538       27.879       31.479        1.275      349.935       30.727      862.654
07/14/2013  13:00:00        1.356     -107.647       17.902      113.832       96.315       67.330    12957.781     9276.643     4533.364        1.933        1.338      107.655       55.241        0.263      349.666       30.260      862.674
07/14/2013  13:01:00       33.029     -139.410       16.906       87.040      115.593       71.386     7575.898    13361.741     5095.943        2.342        1.302      143.269       57.745        0.162      349.505       29.982      862.628
07/14/2013  13:02:00      110.538     -121.060      -18.980       67.504       70.811       47.589     4556.761     5014.251     2264.686        1.953        0.592      163.933       35.823        0.048      349.287       29.603      862.632
07/14/2013  13:03:00       -5.540      -29.084       51.387       63.890       73.980       56.945     4081.966     5473.073     3242.789        0.815        0.640       29.607       53.548        3.271      349.673       30.273      862.601
07/14/2013  13:04:00      -29.778      -51.645        9.564       39.762       44.907       32.876     1581.037     2016.682     1080.808        0.416        0.234       59.614       30.987        0.270      349.934       30.727      862.581
07/14/2013  13:05:00       60.183       60.367       34.465       63.819       56.254       41.072     4072.886     3164.549     1686.943        0.869        0.446       85.242       27.465        0.104      349.745       30.398      862.556
07/14/2013  13:06:00       89.702       31.096        9.179       91.028       81.874       31.807     8286.133     6703.351     1011.655        1.255        0.800       94.938       25.948        0.075      349.464       29.910      862.534
07/14/2013  13:07:00       67.137       64.201       21.473       56.148       76.714       53.411     3152.621     5885.087     2852.735        1.049        0.595       92.893       28.517        0.094      349.491       29.957      862.510
07/14/2013  13:08:00       40.998       97.088        0.284      107.680       78.313       51.254    11594.927     6132.945     2626.971        1.573        1.018      105.389       44.567        0.179      349.149       29.364      862.490
07/14/2013  13:09:00      -10.721      127.371        3.262       47.624       93.365       49.929     2268.039     8717.074     2492.908        1.491        0.674      127.821       55.096        0.186      349.614       30.169      862.456
07/14/2013  13:10:00      -49.374       45.208      -18.574       32.488       35.804       20.420     1055.442     1281.933      416.972        0.379        0.138       66.945       10.991        0.027      349.717       30.350      862.439
07/14/2013  13:11:00      -93.155      -54.472       10.234       86.204       70.075       43.510     7431.189     4910.546     1893.149        1.299        0.712      107.912       54.353        0.254      349.623       30.185      862.419
07/14/2013  13:12:00     -113.923      -33.385       -0.312       68.543       59.930       26.013     4698.178     3591.625      676.688        1.153        0.448      118.714       31.563        0.071      349.342       29.699      862.410
07/14/2013  13:13:00      -36.187       21.125       15.618       39.692       38.733       31.697     1575.447     1500.272     1004.718        0.304        0.204       41.902       19.096        0.208      349.732       30.378      862.418
07/14/2013  13:14:00       25.010       66.480        8.932       63.329       51.285       39.016     4010.573     2630.150     1522.281        0.664        0.408       71.029       31.816        0.201      349.813       30.516      862.422
07/14/2013  13:15:00       11.682      196.519      -23.905       55.014       80.865       47.177     3026.543     6539.100     2225.686        2.556        0.590      196.866       44.053        0.050      349.463       29.908      862.414
07/14/2013  13:16:00       44.191       34.272       31.088       68.504       58.823       41.055     4692.807     3460.119     1685.501        0.696        0.492       55.923       25.117        0.202      350.032       30.897      862.419
07/14/2013  13:17:00       69.171      -31.824       23.334       77.676       82.428       60.373     6033.486     6794.413     3644.912        1.140        0.824       76.141       36.647        0.232      349.438       29.866      862.383
07/14/2013  13:18:00      192.569       94.304       39.655      153.173      116.318       72.407    23461.922    13529.808     5242.703        4.488        2.112      214.420       35.090        0.027      349.734       30.377      862.346
07/14/2013  13:19:00      420.092      262.199       73.683      121.272       95.471       81.256    14706.949     9114.794     6602.531       14.053        1.521      495.202       60.823        0.015      349.352       29.712      862.324
07/14/2013  13:20:00      277.638      154.279       29.663      147.548      118.387       85.922    21770.348    14015.457     7382.583        7.246        2.158      317.624       58.056        0.033      349.467       29.913      862.312
07/14/2013  13:21:00       25.565      100.719        0.193       81.175       85.349       63.177     6589.442     7284.517     3991.387        1.433        0.893      103.913       57.184        0.303      349.443       29.873      862.330
07/14/2013  13:22:00      100.653       90.004       40.129      140.431       78.508       51.166    19720.996     6163.431     2617.947        2.417        1.425      135.025       38.280        0.080      349.545       30.052      862.319
07/14/2013  13:23:00      172.978      131.780       26.710      114.547       63.398       54.519    13120.986     4019.298     2972.270        3.405        1.006      217.456       40.597        0.035      349.537       30.035      862.290
07/14/2013  13:24:00      202.575      173.513        5.442      163.019      119.630      105.978    26575.103    14311.401    11231.240        6.164        2.606      266.727       83.964        0.099      349.517       30.000      862.259
07/14/2013  13:25:00      273.661      188.719       30.010      113.380       80.660       85.434    12855.066     6506.068     7298.957        6.903        1.333      332.423       51.611        0.024      349.432       29.851      862.252
07/14/2013  13:26:00      232.415      161.560       36.836      131.971       96.507       65.649    17416.438     9313.523     4309.798        5.625        1.552      283.052       37.513        0.018      349.495       29.961      862.255
07/14/2013  13:27:00       88.680        8.278        8.164       81.687       75.337       46.717     6672.808     5675.725     2182.504        1.126        0.727       89.066       21.688        0.059      349.280       29.591      862.253
07/14/2013  13:28:00      200.503      126.028       45.395       94.537       65.121       47.663     8937.315     4240.702     2271.806        3.679        0.772      236.821       24.206        0.010      349.471       29.919      862.226
07/14/2013  13:29:00      116.950       73.438       13.535       87.972       69.958       58.068     7739.042     4894.098     3371.900        1.763        0.800      138.096       40.199        0.085      349.984       30.812      862.228
07/14/2013  13:30:00      125.300       75.228       40.636       62.847       52.920       56.511     3949.717     2800.578     3193.537        1.648        0.497      146.149       27.625        0.036      349.886       30.642      862.228
07/14/2013  13:31:00      126.245       69.216       16.508       64.905       65.258       42.566     4212.686     4258.670     1811.822        1.564        0.514      143.974       29.148        0.041      350.209       31.203      862.223
07/14/2013  13:32:00       64.997      -24.162       53.080       94.752      113.951       79.063     8977.929    12984.857     6250.997        1.791        1.411       69.342       52.175        0.566      350.319       31.395      862.218
07/14/2013  13:33:00      155.139      -42.414       89.483      123.017      152.362       91.831    15133.144    23214.177     8432.917        4.032        2.339      160.833      102.335        0.405      349.863       30.603      862.213
07/14/2013  13:34:00      108.844       -1.072       41.454      111.093       98.378       62.129    12341.706     9678.291     3860.015        1.972        1.294      108.850       54.847        0.254      349.620       30.181      862.207
07/14/2013  13:35:00       99.337       25.956      149.171      132.143      187.651      126.041    17461.652    35213.069    15886.384        5.066        3.428      102.672      134.670        1.720      349.987       30.816      862.174
07/14/2013  13:36:00      228.890      143.377       86.376      165.532      131.487      129.597    27400.830    17288.815    16795.502        7.093        3.074      270.088      105.668        0.153      349.357       29.721      862.249
07/14/2013  13:37:00      162.038       99.045       76.527      115.481       90.678       80.512    13335.782     8222.490     6482.230        3.498        1.402      189.911       60.102        0.100      349.165       29.390      862.269
07/14/2013  13:38:00       72.363       46.897       57.333       61.595       58.060       56.103     3793.945     3370.917     3147.553        1.052        0.516       86.231       17.169        0.040      349.687       30.298      862.278
07/14/2013  13:39:00       26.029       56.857      -26.779       36.502       45.950       33.056     1332.375     2111.403     1092.707        0.458        0.227       62.532       25.137        0.162      349.427       29.847      862.272
07/14/2013  13:40:00       -4.573       66.379      -23.820       49.186       33.269       22.031     2419.309     1106.809      485.372        0.450        0.201       66.536       15.940        0.057      349.300       29.627      862.254
07/14/2013  13:41:00       28.256      141.689      -20.099       66.155       66.905       31.039     4376.507     4476.225      963.427        1.555        0.491      144.479       14.288        0.010      349.338       29.692      862.232
07/14/2013  13:42:00       48.879      175.570       -3.178       64.866      122.135       62.355     4207.630    14916.845     3888.102        2.811        1.151      182.247       67.208        0.136      349.535       30.032      862.201
07/14/2013  13:43:00      -45.230       87.869       -4.019       42.885       68.712       38.398     1839.148     4721.369     1474.441        0.891        0.402       98.827       33.974        0.118      349.823       30.533      862.184
07/14/2013  13:44:00       24.888       21.370       20.265       69.061       54.448       41.746     4769.397     2964.613     1742.698        0.548        0.474       32.804       12.065        0.135      349.941       30.739      862.174
07/14/2013  13:45:00      -35.771      -29.795       12.957       46.973       38.288       29.150     2206.428     1465.983      849.715        0.343        0.226       46.555       26.489        0.324      350.197       31.184      862.140
07/14/2013  13:46:00       17.862       64.516       25.172       45.081       41.970       30.308     2032.276     1761.457      918.596        0.491        0.236       66.943       23.241        0.121      350.089       30.996      862.131
07/14/2013  13:47:00       27.029       92.205      -10.794       48.696       86.066       34.219     2371.263     7407.318     1170.969        1.015        0.547       96.085       45.166        0.221      349.633       30.204      862.118
07/14/2013  13:48:00        5.426      120.558       20.459       43.598       74.865       55.367     1900.796     5604.833     3065.506        1.277        0.529      120.680       44.399        0.135      349.854       30.585      862.101
07/14/2013  13:49:00       -4.938       91.101       27.817       47.668       81.857       48.126     2272.229     6700.497     2316.066        1.019        0.564       91.235       44.440        0.237      350.244       31.266      862.108
07/14/2013  13:50:00       -0.290      240.787      -26.173       55.673       81.303       49.470     3099.445     6610.140     2447.248        3.541        0.608      240.788       44.920        0.035      349.686       30.293      862.148
07/14/2013  13:51:00       97.178       81.418        4.670       92.609      112.509       60.111     8576.443    12658.176     3613.276        2.047        1.242      126.778       43.833        0.120      350.140       31.083      862.149
07/14/2013  13:52:00      141.893       84.272       35.458      113.246       95.072       67.523    12824.634     9038.674     4559.423        2.745        1.321      165.031       40.590        0.060      350.035       30.900      862.133
07/14/2013  13:53:00      216.178      138.071       16.686      106.240       80.534       63.763    11286.987     6485.796     4065.665        4.395        1.092      256.508       28.078        0.012      349.574       30.100      862.096
07/14/2013  13:54:00      209.530      139.890       29.046      109.900      106.306       79.170    12078.113    11301.041     6267.872        4.698        1.482      251.936       59.211        0.055      349.878       30.626      862.064
07/14/2013  13:55:00      160.280      146.766      141.727      115.910      113.058       94.455    13435.085    12782.167     8921.823        5.122        1.757      217.324       86.888        0.160      349.418       29.827      862.074
07/14/2013  13:56:00      117.714       72.698      104.598      113.018       83.783       68.746    12773.145     7019.620     4726.023        2.730        1.226      138.354       55.496        0.161      349.502       29.975      862.081
07/14/2013  13:57:00      153.749       43.364       78.875      101.473       91.786       79.726    10296.748     8424.723     6356.305        2.840        1.254      159.747       65.525        0.168      349.492       29.957      862.096
07/14/2013  13:58:00       39.239      -27.505       18.922       41.358       43.364       30.373     1710.452     1880.409      922.541        0.358        0.226       47.919       20.290        0.179      350.017       30.873      862.070
07/14/2013  13:59:00      146.518        6.415       49.045      109.786       92.528       58.237    12052.967     8561.456     3391.606        2.396        1.200      146.658       58.252        0.158      349.254       29.547      862.059
07/14/2013  14:00:00      144.508       95.172       83.176      105.611       94.943       67.372    11153.666     9014.157     4538.952        3.078        1.235      173.032       60.596        0.123      349.682       30.288      862.029
07/14/2013  14:01:00       52.336       60.974       55.465       85.162       65.809       59.240     7252.606     4330.841     3509.338        1.231        0.755       80.355       38.982        0.235      349.548       30.057      862.034
07/14/2013  14:02:00       62.671       90.233       20.416       81.527       77.192       63.087     6646.662     5958.621     3979.907        1.453        0.829      109.862       55.582        0.256      349.710       30.338      862.013
07/14/2013  14:03:00       49.671      152.403      -17.515       58.990       84.686       42.702     3479.857     7171.731     1823.437        1.924        0.624      160.293       50.261        0.098      349.455       29.894      862.007
07/14/2013  14:04:00     -134.698       29.398      -36.545       82.607       94.480       28.994     6823.983     8926.424      840.667        1.846        0.830      137.869       25.053        0.033      349.558       30.073      861.980
07/14/2013  14:05:00     -147.683       99.779      -27.565       59.387      112.987       41.324     3526.759    12766.040     1707.690        2.526        0.900      178.230       37.566        0.044      349.838       30.559      861.943
07/14/2013  14:06:00     -156.578      128.523      -39.471       55.516       72.614       39.458     3082.030     5272.776     1556.964        2.625        0.496      202.571       29.774        0.022      349.584       30.117      861.919
07/14/2013  14:07:00     -204.948       -2.407      -26.767       63.653       52.642       24.133     4051.739     2771.193      582.414        2.506        0.370      204.963       23.204        0.013      349.462       29.906      861.865
07/14/2013  14:08:00     -162.888      -80.607        6.944       91.691       68.245       48.002     8407.307     4657.431     2304.209        2.422        0.768      181.742       25.276        0.019      349.683       30.290      861.821
07/14/2013  14:09:00      -98.193      103.680       -2.515       80.207       87.660       46.423     6433.212     7684.311     2155.108        1.833        0.814      142.798       45.279        0.101      350.062       30.948      861.811
07/14/2013  14:10:00     -196.691        2.218      -22.062       82.606       67.665       40.829     6823.801     4578.569     1667.024        2.612        0.653      196.704       34.997        0.032      350.039       30.906      861.791
07/14/2013  14:11:00     -229.526      -39.855      -21.747      102.534       75.922       39.328    10513.120     5764.202     1546.711        3.628        0.891      232.961       37.809        0.026      349.903       30.668      861.778
07/14/2013  14:12:00     -233.927      -65.572      -12.051       56.315       69.278       36.280     3171.357     4799.382     1316.214        3.423        0.464      242.944       29.733        0.015      349.563       30.079      861.765
07/14/2013  14:13:00      -64.020       31.196       14.419       79.394       55.339       51.749     6303.451     3062.366     2677.958        0.866        0.602       71.216       53.262        0.559      350.000       30.840      861.771
07/14/2013  14:14:00     -126.080      122.166      -16.730       70.666       69.148       46.016     4993.638     4781.486     2117.467        2.149        0.595      175.558       38.420        0.048      349.991       30.824      861.787
07/14/2013  14:15:00      -71.380      264.227      -19.649       60.776       68.837       45.638     3693.736     4738.558     2082.807        4.290        0.526      273.699       47.332        0.030      349.821       30.528      861.802
07/14/2013  14:16:00       -9.668      114.827        2.493       43.818       66.549       48.965     1920.007     4428.785     2397.593        1.101        0.437      115.233       43.091        0.140      350.018       30.873      861.798
07/14/2013  14:17:00      -47.389      168.834      -12.214       51.082       84.831       41.089     2609.348     7196.284     1688.313        2.119        0.575      175.359       43.228        0.061      349.890       30.650      861.787
07/14/2013  14:18:00      -25.431       85.759        1.546       88.797       52.293       43.087     7884.836     2734.553     1856.484        1.024        0.624       89.450       52.400        0.343      349.936       30.729      861.791
07/14/2013  14:19:00      -26.500       51.779       10.095       34.016       56.160       27.114     1157.081     3153.900      735.150        0.426        0.252       58.166       23.784        0.167      350.296       31.355      861.781
07/14/2013  14:20:00      -54.073       67.675       -6.927       36.390       49.246       25.507     1324.246     2425.178      650.618        0.598        0.220       86.625       25.513        0.087      350.166       31.130      861.771
07/14/2013  14:21:00      -76.935       62.683      -23.626       34.044       77.516       24.160     1159.007     6008.719      583.709        0.908        0.388       99.238       19.629        0.039      349.709       30.337      861.749
07/14/2013  14:22:00     -115.811      -12.648      -28.427       22.741       26.616       25.029      517.151      708.398      626.436        0.812        0.093      116.499       13.060        0.013      349.662       30.256      861.713
07/14/2013  14:23:00      -70.398      -47.920       -3.414       73.095       60.094       36.527     5342.924     3611.247     1334.215        0.877        0.514       85.160       25.646        0.091      349.908       30.682      861.678
07/14/2013  14:24:00      -87.659      -66.614       10.424       94.897       55.008       41.281     9005.473     3025.851     1704.125        1.298        0.687      110.098       55.030        0.250      349.961       30.774      861.661
07/14/2013  14:25:00     -157.946      -62.353       -9.322       58.590       43.872       29.767     3432.732     1924.750      886.077        1.758        0.312      169.808       24.353        0.021      349.748       30.404      861.633
07/14/2013  14:26:00      -45.098      -41.402       13.004       83.966       46.615       33.763     7050.217     2172.994     1139.973        0.714        0.518       61.221       40.139        0.430      349.998       30.838      861.616
07/14/2013  14:27:00      -36.221      -38.223       24.703       87.192       48.470       46.096     7602.446     2349.298     2124.796        0.773        0.604       52.659       54.740        1.081      350.294       31.354      861.592
07/14/2013  14:28:00     -104.480      -53.993        8.554       79.703       57.397       39.438     6352.567     3294.383     1555.380        1.255        0.560      117.606       43.869        0.139      350.417       31.565      861.566
07/14/2013  14:29:00     -184.058      -49.880      -10.674       37.476       58.145       31.739     1404.480     3380.885     1007.378        2.113        0.290      190.697       23.949        0.016      349.834       30.550      861.559
07/14/2013  14:30:00      -63.492      -60.241       10.537       85.774       41.428       35.695     7357.103     1716.305     1274.109        0.906        0.517       87.523       47.007        0.288      350.186       31.164      861.561
07/14/2013  14:31:00      -33.044      -69.704       14.621       88.257       51.163       45.016     7789.318     2617.650     2026.435        0.930        0.622       77.139       36.108        0.219      350.373       31.488      861.575
07/14/2013  14:32:00      -33.786      -43.225       12.561       75.037       69.438       43.374     5630.511     4821.636     1881.277        0.775        0.617       54.863       41.344        0.568      350.629       31.935      861.581
07/14/2013  14:33:00      -65.684     -111.549       19.022      134.091       97.165       60.846    17980.293     9441.067     3702.193        2.412        1.556      129.450       57.350        0.196      350.407       31.546      861.571
07/14/2013  14:34:00     -165.211     -170.280      -11.965       96.632       83.835       65.395     9337.825     7028.237     4276.496        3.853        1.032      237.255       41.185        0.030      350.395       31.525      861.559
07/14/2013  14:35:00     -218.819     -179.764        0.887      118.794      114.013       65.141    14112.025    12999.021     4243.309        5.577        1.568      283.191       61.110        0.047      350.283       31.330      861.566
07/14/2013  14:36:00      -51.753      -20.550       25.481       70.467       49.410       33.442     4965.553     2441.322     1118.347        0.614        0.426       55.684       37.623        0.457      350.767       32.175      861.556
07/14/2013  14:37:00     -135.401      -98.553        5.049      116.248      103.698       56.111    13513.674    10753.193     3148.472        2.774        1.371      167.469       66.289        0.157      350.521       31.743      861.530
07/14/2013  14:38:00     -299.954     -240.484       -4.398      147.904      128.144       70.801    21875.560    16420.808     5012.808        9.556        2.165      384.454       71.039        0.034      350.127       31.057      861.543
07/14/2013  14:39:00     -290.244     -218.882       -2.024      162.585      102.755       72.634    26433.722    10558.549     5275.737        8.720        2.113      363.526       72.606        0.040      349.888       30.643      861.531
07/14/2013  14:40:00     -190.117      -59.616        4.608       85.723       80.007       43.944     7348.426     6401.127     1931.066        2.770        0.784      199.245       36.628        0.034      350.170       31.136      861.556
07/14/2013  14:41:00     -158.343       26.156       -4.594      104.410       71.037       54.349    10901.544     5046.247     2953.847        2.234        0.945      160.489       50.222        0.098      350.205       31.194      861.548
07/14/2013  14:42:00     -128.920       31.133       13.509      108.061       65.845       49.448    11677.258     4335.586     2445.105        1.811        0.923      132.626       53.558        0.163      350.358       31.461      861.521
07/14/2013  14:43:00     -167.183      -10.471       -5.701       74.908       70.059       40.285     5611.237     4908.315     1622.901        2.011        0.607      167.510       35.144        0.044      350.360       31.464      861.500
07/14/2013  14:44:00     -194.444       25.650      -12.341       96.911      100.371       42.624     9391.765    10074.328     1816.788        2.995        1.064      196.128       41.836        0.046      350.476       31.666      861.482
07/14/2013  14:45:00     -193.434       36.236       -9.603      114.249      110.038       49.962    13052.929    12108.354     2496.243        3.323        1.383      196.799       53.278        0.073      350.440       31.603      861.455
07/14/2013  14:46:00     -248.192       60.585      -30.479       83.183       60.736       32.325     6919.360     3688.869     1044.937        3.892        0.583      255.479       31.935        0.016      349.992       30.822      861.454
07/14/2013  14:47:00     -253.862       25.030      -25.484       87.827      110.968       41.241     7713.607    12313.871     1700.857        4.372        1.086      255.093       46.652        0.033      350.032       30.894      861.441
07/14/2013  14:48:00     -266.346       -3.006      -35.821       82.966       94.323       39.076     6883.416     8896.841     1526.896        4.477        0.865      266.363       41.400        0.024      350.136       31.075      861.450
07/14/2013  14:49:00     -217.825       65.793      -15.377      136.595       71.101       55.403    18658.064     5055.418     3069.492        3.939        1.339      227.544       62.447        0.075      350.149       31.098      861.455
07/14/2013  14:50:00     -244.544       19.321      -18.122       98.026       84.036       34.564     9609.129     7062.081     1194.644        3.918        0.893      245.306       37.929        0.024      349.975       30.796      861.438
07/14/2013  14:51:00     -123.304     -104.558       12.203      114.827       80.699       46.921    13185.242     6512.333     2201.602        2.409        1.095      161.667       53.131        0.108      350.170       31.134      861.431
07/14/2013  14:52:00      -95.730     -118.313       12.108       91.770       84.305       39.724     8421.762     7107.345     1577.981        2.020        0.855      152.191       32.590        0.046      350.227       31.235      861.436
07/14/2013  14:53:00     -177.205     -140.793       -2.554       56.969       54.202       36.554     3245.508     2937.875     1336.162        2.937        0.376      226.328       35.576        0.025      349.892       30.650      861.413
07/14/2013  14:54:00     -156.820      -81.950        2.332       69.128       49.061       32.597     4778.676     2407.027     1062.541        1.978        0.412      176.942       32.988        0.035      349.947       30.747      861.386
07/14/2013  14:55:00     -151.521      -63.466        1.339       54.658       46.005       26.275     2987.490     2116.446      690.361        1.639        0.290      164.275       25.928        0.025      350.011       30.860      861.384
07/14/2013  14:56:00      -30.502      -64.770        9.307       50.539       56.132       31.857     2554.196     3150.751     1014.877        0.596        0.336       71.593       27.472        0.147      350.251       31.277      861.385
07/14/2013  14:57:00      -38.736      -32.366       18.738       94.036       53.885       40.732     8842.696     2903.636     1659.110        0.815        0.670       50.478       43.781        0.752      350.161       31.121      861.358
07/14/2013  14:58:00      -69.554       -4.286      -22.591       50.542       33.748       31.681     2554.482     1138.932     1003.686        0.503        0.235       69.686       23.240        0.111      349.969       30.787      861.333
07/14/2013  14:59:00       61.389       47.813       21.435       52.623       33.915       36.610     2769.207     1150.205     1340.322        0.589        0.263       77.812       31.116        0.160      349.622       30.186      861.310
07/14/2013  15:00:00       92.825       37.766       16.327       39.743       33.885       31.065     1579.517     1148.168      965.027        0.700        0.185      100.214       13.894        0.019      349.300       29.628      861.285
07/14/2013  15:01:00       73.734       -6.087       12.295       32.248       32.047       24.749     1039.940     1027.034      612.507        0.415        0.134       73.984       11.980        0.026      349.225       29.495      861.257
07/14/2013  15:02:00       57.775      -20.063       11.538       27.954       29.312       24.020      781.404      859.179      576.940        0.305        0.111       61.159       18.123        0.088      349.690       30.304      861.244
07/14/2013  15:03:00       24.282      -22.576        3.305       17.810       27.461       18.695      317.180      754.120      349.496        0.127        0.071       33.156        5.576        0.028      349.963       30.774      861.236
07/14/2013  15:04:00       10.979       26.213       27.754       23.358       19.387       14.906      545.598      375.856      222.185        0.136        0.057       28.420       11.641        0.168      349.910       30.687      861.222
07/14/2013  15:05:00      -88.078      144.799      -10.968       57.525       94.948       38.502     3309.083     9015.177     1482.394        2.132        0.690      169.483       50.473        0.089      350.187       31.162      861.205
07/14/2013  15:06:00     -106.385      139.055      -13.897       54.567       67.768       43.087     2977.515     4592.436     1856.466        2.013        0.471      175.083       35.665        0.041      350.373       31.487      861.198
07/14/2013  15:07:00     -103.164      101.278      -16.528       66.375       57.373       37.697     4405.688     3291.609     1421.047        1.514        0.456      144.569       32.335        0.050      350.430       31.588      861.201
07/14/2013  15:08:00      -50.977      217.724      -20.277       52.095       91.548       33.334     2713.937     8381.091     1111.127        3.131        0.610      223.612       27.331        0.015      350.207       31.199      861.186
07/14/2013  15:09:00      -36.242      260.232      -30.664       59.388       71.802       34.961     3526.902     5155.536     1222.238        3.994        0.495      262.744       36.166        0.019      350.179       31.148      861.162
07/14/2013  15:10:00      -76.048      214.364      -24.384       62.466       75.419       40.775     3902.042     5688.099     1662.603        3.179        0.563      227.453       35.426        0.024      350.504       31.716      861.153
07/14/2013  15:11:00      -50.658      129.684       -7.549       70.720       77.803       52.808     5001.262     6053.339     2788.643        1.664        0.692      139.227       28.752        0.043      350.721       32.093      861.134
07/14/2013  15:12:00      -91.553      142.806      -24.193       75.444       93.286       40.920     5691.726     8702.199     1674.408        2.271        0.803      169.634       43.607        0.066      350.450       31.621      861.139
07/14/2013  15:13:00     -280.936      -61.966      -10.469      115.134       85.227       53.361    13255.733     7263.648     2847.386        5.312        1.168      287.689       43.964        0.023      350.530       31.760      861.145
07/14/2013  15:14:00     -279.560      -60.756      -17.179      137.904       87.742       54.991    19017.630     7698.609     3023.958        5.593        1.487      286.086       64.549        0.051      350.528       31.758      861.132
07/14/2013  15:15:00     -188.763     -120.184        4.476      108.679       74.511       50.478    11811.198     5551.927     2547.988        3.500        0.996      223.776       58.582        0.069      350.458       31.633      861.137
07/14/2013  15:16:00      -26.522       42.176       27.228       70.548       81.679       38.936     4976.950     6671.507     1516.030        0.819        0.658       49.822       34.952        0.492      350.692       32.044      861.130
07/14/2013  15:17:00      -61.571      137.132       -6.260       44.603       45.459       28.362     1989.397     2066.536      804.390        1.375        0.243      150.320       27.377        0.033      350.142       31.089      861.090
07/14/2013  15:18:00     -151.897       -2.632      -16.352       65.524       83.303       36.281     4293.353     6939.374     1316.309        1.795        0.627      151.920       25.389        0.028      350.579       31.847      861.086
07/14/2013  15:19:00     -168.169       60.664      -24.048       83.390       83.683       48.927     6953.862     7002.908     2393.866        2.444        0.818      178.776       39.848        0.050      350.368       31.478      861.071
07/14/2013  15:20:00      -91.494      191.647      -25.827       83.419       97.386       40.909     6958.705     9484.066     1673.581        3.194        0.906      212.367       47.283        0.050      350.330       31.411      861.010
07/14/2013  15:21:00     -122.060       55.616       -5.191      119.329      133.737       48.131    14239.467    17885.539     2316.609        2.622        1.722      134.133       34.684        0.067      350.546       31.790      861.008
07/14/2013  15:22:00     -304.933     -140.941       -1.412      148.146      101.431       58.177    21947.316    10288.244     3384.519        7.423        1.781      335.930       62.668        0.035      350.537       31.771      861.023
07/14/2013  15:23:00     -346.720     -138.708      -15.599      116.253      112.016       54.540    13514.762    12547.541     2974.647        8.436        1.452      373.437       59.453        0.025      350.312       31.380      861.001
07/14/2013  15:24:00     -215.454      -64.920      -11.362       93.720       87.112       50.154     8783.398     7588.556     2515.417        3.482        0.944      225.023       46.226        0.042      350.569       31.828      861.004
07/14/2013  15:25:00     -310.495      -47.209      -17.986      157.291      137.400       64.662    24740.515    18878.743     4181.179        7.337        2.390      314.063       68.363        0.047      350.564       31.819      860.980
07/14/2013  15:26:00     -313.044      -68.447      -17.636      173.685      105.421       49.701    30166.555    11113.599     2470.169        7.336        2.188      320.440       72.389        0.051      350.424       31.576      860.974
07/14/2013  15:27:00     -331.007      -49.341      -15.603      117.044      156.874       51.452    13699.337    24609.374     2647.272        7.659        2.048      334.664       38.314        0.013      350.270       31.307      860.968
07/14/2013  15:28:00     -238.405      -65.490       -9.114      120.260       94.556       56.439    14462.348     8940.894     3185.307        4.389        1.329      247.236       55.921        0.051      350.406       31.544      860.963
07/14/2013  15:29:00     -280.228      -91.263      -17.898       93.307       92.841       43.378     8706.173     8619.431     1881.685        5.319        0.960      294.714       47.053        0.025      350.064       30.950      860.966
07/14/2013  15:30:00     -123.042     -134.494        8.257      107.134       95.538       57.361    11477.778     9127.587     3290.248        2.859        1.195      182.285       59.736        0.107      350.151       31.102      860.948
07/14/2013  15:31:00     -159.272      -98.552        4.494      104.785      112.623       55.121    10979.828    12684.035     3038.324        3.090        1.335      187.297       61.720        0.109      350.328       31.408      860.930
07/14/2013  15:32:00     -126.248        1.223        5.906       77.378       73.648       42.072     5987.383     5423.956     1770.047        1.458        0.659      126.254       39.417        0.097      350.624       31.925      860.930
07/14/2013  15:33:00     -263.472     -110.650        3.376      143.633      112.344       59.008    20630.342    12621.273     3481.897        5.920        1.837      285.764       68.158        0.057      350.289       31.340      860.902
07/14/2013  15:34:00     -213.113      -61.596       -0.570       72.922       68.025       32.441     5317.649     4627.430     1052.420        3.010        0.550      221.836       26.336        0.014      350.390       31.515      860.907
07/14/2013  15:35:00     -151.785      -23.120      -17.546       80.053       80.862       28.250     6408.407     6538.619      798.050        1.881        0.687      153.535       33.813        0.049      350.240       31.258      860.899
07/14/2013  15:36:00      -89.284       22.216       -9.818       90.239       46.590       34.187     8143.166     2170.646     1168.731        1.002        0.574       92.007       34.660        0.142      350.454       31.631      860.876
07/14/2013  15:37:00       -9.055      -21.954       19.451       44.521       48.642       26.905     1982.080     2366.049      723.884        0.301        0.254       23.748       22.864        0.927      350.790       32.215      860.863
07/14/2013  15:38:00     -125.444       43.383        1.830       66.621       36.382       27.061     4438.382     1323.642      732.296        1.206        0.325      132.733       32.652        0.061      350.330       31.415      860.856
07/14/2013  15:39:00      -41.111       30.003       -4.650       48.960       23.148       29.725     2397.053      535.819      883.550        0.321        0.191       50.895       33.474        0.433      350.134       31.073      860.857
07/14/2013  15:40:00       73.302       75.512       -4.802       27.579       34.193       26.926      760.602     1169.194      724.992        0.688        0.133      105.239       23.350        0.049      350.015       30.868      860.839
07/14/2013  15:41:00       44.733       66.414       -9.800       41.662       37.877       25.281     1735.700     1434.661      639.108        0.516        0.190       80.074       22.145        0.076      350.042       30.913      860.834
07/14/2013  15:42:00       20.230       37.490      -13.189       37.912       51.911       22.554     1437.301     2694.794      508.688        0.331        0.232       42.600       24.315        0.326      349.901       30.669      860.834
07/14/2013  15:43:00      -46.508       31.901       -1.678       30.118       31.885       23.425      907.091     1016.654      548.710        0.283        0.124       56.397       15.969        0.080      350.316       31.391      860.837
07/14/2013  15:44:00      -51.113       -7.052       14.564       52.723       37.168       33.627     2779.674     1381.425     1130.801        0.408        0.265       51.597       29.340        0.323      350.356       31.461      860.834
07/14/2013  15:45:00     -103.485       33.592      -10.087       63.537       69.915       30.498     4036.940     4888.087      930.115        1.090        0.493      108.800       35.752        0.108      350.190       31.172      860.820
07/14/2013  15:46:00      -65.266       95.951      -26.329       66.398       57.749       37.459     4408.742     3334.986     1403.204        1.165        0.457      116.045       45.218        0.152      349.985       30.816      860.805
07/14/2013  15:47:00       15.954       16.585       27.513       40.478       42.669       32.007     1638.506     1820.683     1024.439        0.288        0.224       23.013       21.102        0.841      350.341       31.434      860.806
07/14/2013  15:48:00       40.189        9.348       30.482       27.731       35.553       22.702      768.981     1264.010      515.401        0.259        0.127       41.262       10.039        0.059      349.968       30.786      860.797
07/14/2013  15:49:00       50.628      -47.114        5.733       45.064       54.531       31.645     2030.764     2973.628     1001.405        0.541        0.300       69.158       31.331        0.205      349.409       29.817      860.796
07/14/2013  15:50:00       17.929        8.102       42.159       34.433       41.521       32.740     1185.666     1723.952     1071.879        0.307        0.199       19.675       17.972        0.834      349.613       30.170      860.774
07/14/2013  15:51:00       30.414       -9.732       22.313       31.063       45.597       23.225      964.896     2079.125      539.412        0.255        0.179       31.933       26.909        0.710      348.914       28.958      860.763
07/14/2013  15:52:00       24.676      -37.510       30.244       63.379      112.751       56.811     4016.918    12712.885     3227.441        1.144        0.998       44.899       60.679        1.826      349.488       29.950      860.738
07/14/2013  15:53:00       -4.176     -114.676       22.645       46.484       97.969       52.105     2160.748     9597.965     2714.882        1.407        0.724      114.752       52.618        0.210      349.856       30.591      860.738
07/14/2013  15:54:00       26.086      -52.658        1.482      102.994       91.911       62.697    10607.747     8447.546     3930.892        1.322        1.149       58.766       44.656        0.577      349.890       30.650      860.725
07/14/2013  15:55:00       99.715     -127.098       -8.375       73.293      108.150       64.759     5371.843    11696.342     4193.667        2.371        1.063      161.545       75.187        0.217      349.976       30.799      860.712
07/14/2013  15:56:00       44.866     -102.215      -18.584       57.444       57.868       46.941     3299.869     3348.707     2203.423        1.083        0.443      111.628       22.642        0.041      349.970       30.789      860.707
07/14/2013  15:57:00       50.453     -144.371        5.537       64.848       70.718       42.331     4205.240     5000.982     1791.877        1.721        0.550      152.933       37.049        0.059      349.996       30.831      860.712
07/14/2013  15:58:00      140.097     -179.155       -9.883      111.983      131.513       66.375    12540.206    17295.772     4405.607        4.302        1.712      227.428       90.592        0.159      349.961       30.773      860.680
07/14/2013  15:59:00      145.848     -229.636      -41.360       63.222       58.366       33.729     3996.974     3406.627     1137.674        4.213        0.427      272.038       23.888        0.008      350.003       30.843      860.663
07/14/2013  16:00:00       97.335     -146.891      -20.167       68.032       80.410       39.980     4628.396     6465.798     1598.392        2.207        0.635      176.213       31.851        0.033      350.078       30.975      860.657
07/14/2013  16:01:00       24.190      -61.495       16.809       47.323       63.557       32.733     2239.429     4039.472     1071.434        0.600        0.368       66.082       35.080        0.282      350.089       30.998      860.654
07/14/2013  16:02:00       14.234      -39.632       22.952       31.612       62.533       44.797      999.345     3910.379     2006.773        0.461        0.346       42.111       31.634        0.564      350.037       30.905      860.642
07/14/2013  16:03:00       35.045      -47.789       15.262       36.743       81.702       37.631     1350.021     6675.204     1416.075        0.659        0.472       59.262       43.880        0.548      350.047       30.924      860.633
07/14/2013  16:04:00        8.060      -32.470       15.842       35.025       52.237       31.430     1226.760     2728.664      987.857        0.316        0.247       33.455       33.790        1.020      350.027       30.889      860.630
07/14/2013  16:05:00       74.920     -110.873        0.459       36.831       52.794       22.230     1356.529     2787.214      494.173        1.127        0.232      133.813       22.483        0.028      350.073       30.966      860.617
07/14/2013  16:06:00      -54.627      -54.075       -1.401       67.657       32.734       24.692     4577.516     1071.514      609.674        0.608        0.313       76.865       26.485        0.119      350.314       31.386      860.598
07/14/2013  16:07:00     -110.787      -43.020       -7.017       26.554       30.049       22.673      705.100      902.940      514.065        0.815        0.106      118.847       17.433        0.022      350.135       31.075      860.595
07/14/2013  16:08:00      -60.595      -16.124       18.854       29.682       42.235       29.705      881.044     1783.819      882.395        0.392        0.177       62.703       24.604        0.154      350.476       31.669      860.599
07/14/2013  16:09:00      -54.765       24.543        6.780       28.915       19.989       17.215      836.066      399.547      296.362        0.259        0.077       60.013       13.479        0.050      350.330       31.415      860.569
07/14/2013  16:10:00      107.438       36.833       27.097       55.268       40.772       33.996     3054.512     1662.392     1155.747        0.975        0.294      113.576       11.711        0.011      349.310       29.645      860.551
07/14/2013  16:11:00      101.101       84.405       63.114       57.588       35.189       41.122     3316.412     1238.275     1691.023        1.379        0.312      131.703       37.463        0.081      349.752       30.409      860.531
07/14/2013  16:12:00       64.877       44.716       19.078       60.906       33.861       40.367     3709.505     1146.598     1629.502        0.653        0.324       78.794       15.227        0.037      350.044       30.918      860.524
07/14/2013  16:13:00       12.384        2.908       21.231       39.188       28.086       30.749     1535.717      788.837      945.521        0.194        0.164       12.720       22.591        3.154      349.829       30.545      860.513
07/14/2013  16:14:00      -36.599        4.821       -2.494       31.497       13.968       12.488      992.051      195.096      155.944        0.136        0.067       36.915       11.920        0.104      350.041       30.913      860.493
07/14/2013  16:15:00      -78.775       -8.511       -7.484       64.058       36.504       18.317     4103.460     1332.525      335.516        0.605        0.289       79.233       22.256        0.079      350.429       31.586      860.487
07/14/2013  16:16:00     -176.695      -78.022       -2.013      116.863       78.566       50.695    13656.882     6172.551     2570.015        2.985        1.120      193.154       50.681        0.069      350.332       31.417      860.478
07/14/2013  16:17:00     -253.177      -59.596       -0.033      115.515       74.751       58.742    13343.667     5587.719     3450.651        4.501        1.119      260.096       69.070        0.071      350.257       31.285      860.471
07/14/2013  16:18:00     -292.667      -20.600      -16.826      112.497      118.913       52.843    12655.635    14140.399     2792.412        5.797        1.479      293.391       45.321        0.024      350.412       31.554      860.462
07/14/2013  16:19:00     -384.756     -136.312      -21.630       64.633       64.203       41.771     4177.371     4122.061     1744.785        8.856        0.502      408.189       36.990        0.008      350.082       30.979      860.460
07/14/2013  16:20:00     -280.210      -27.441      -16.524       87.936       60.386       25.642     7732.684     3646.415      657.528        4.579        0.602      281.551       31.316        0.012      350.044       30.915      860.483
07/14/2013  16:21:00      -66.000      -21.514        2.840       77.422       46.696       23.679     5994.197     2180.546      560.715        0.678        0.437       69.418       20.488        0.087      350.029       30.891      860.490
07/14/2013  16:22:00      -80.744     -131.525        5.618       63.811       73.290       42.950     4071.813     5371.490     1844.711        1.757        0.564      154.332       40.989        0.071      350.045       30.919      860.507
07/14/2013  16:23:00      -84.517      -27.514        3.902       76.576       54.772       35.919     5863.904     3000.011     1290.196        0.903        0.508       88.883       40.414        0.207      350.169       31.135      860.504
07/14/2013  16:24:00       12.670      -20.269       28.250       21.487       43.493       25.180      461.705     1891.653      634.016        0.218        0.149       23.904       27.324        1.307      349.917       30.696      860.487
07/14/2013  16:25:00       49.177     -128.187      -31.155       79.710       73.089       54.531     6353.648     5341.942     2973.681        1.724        0.733      137.297       47.307        0.119      349.860       30.598      860.454
07/14/2013  16:26:00       19.898      -35.566       37.620       59.154       70.373       50.374     3499.208     4952.405     2537.556        0.703        0.549       40.754       46.383        1.295      349.691       30.304      860.406
07/14/2013  16:27:00        1.125      -50.418       38.284       50.973       52.447       45.306     2598.242     2750.729     2052.590        0.570        0.370       50.431       36.094        0.512      349.648       30.229      860.394
07/14/2013  16:28:00       32.339      -49.439        1.154       53.529       86.460       40.605     2865.350     7475.287     1648.747        0.774        0.599       59.076       35.890        0.369      349.758       30.421      860.384
07/14/2013  16:29:00      -95.113      -24.443       -7.499       36.545       46.921       23.585     1335.550     2201.555      556.258        0.690        0.205       98.203       13.226        0.018      349.805       30.502      860.381
07/14/2013  16:30:00     -169.659      -55.441       -5.089       39.541       51.032       29.603     1563.470     2604.283      876.341        1.846        0.252      178.488       22.344        0.016      350.038       30.905      860.358
07/14/2013  16:31:00     -105.083       16.176       -4.912       60.469       33.251       29.069     3656.483     1105.638      844.989        0.847        0.280      106.321       22.435        0.045      350.123       31.055      860.355
07/14/2013  16:32:00     -197.180       19.244      -10.440       75.063       61.076       31.760     5634.386     3730.291     1008.690        2.486        0.519      198.117       33.713        0.029      350.217       31.214      860.354
07/14/2013  16:33:00     -183.669       27.034      -27.188       63.573       45.217       29.689     4041.584     2044.534      881.446        2.108        0.348      185.648       30.444        0.027      350.175       31.143      860.350
07/14/2013  16:34:00     -100.965      -17.861      -22.874       80.688       55.102       45.552     6510.512     3036.262     2074.982        1.133        0.581      102.533       41.810        0.166      350.151       31.105      860.342
07/14/2013  16:35:00      -88.179      -23.048       15.381       87.554       56.916       35.852     7665.711     3239.484     1285.374        1.036        0.610       91.141       41.471        0.207      350.380       31.501      860.303
07/14/2013  16:36:00     -287.349      -46.819      -24.819       78.949       51.699       34.789     6232.880     2672.753     1210.287        4.774        0.506      291.138       19.821        0.005      350.255       31.281      860.300
07/14/2013  16:37:00     -244.805      -77.924      -18.767       73.269       48.507       31.789     5368.322     2352.956     1010.562        3.754        0.437      256.908       24.188        0.009      350.347       31.441      860.296
07/14/2013  16:38:00     -320.210      -26.036      -12.854      102.572      105.057       46.563    10521.069    11037.058     2168.102        6.355        1.186      321.267       37.811        0.014      350.427       31.580      860.280
07/14/2013  16:39:00     -364.540      -98.216        0.370      145.746      136.881       68.578    21242.012    18736.529     4702.888        9.360        2.234      377.539       59.782        0.025      350.397       31.528      860.284
07/14/2013  16:40:00     -318.906     -128.294       -0.871      107.316       54.939       45.435    11516.699     3018.329     2064.317        6.738        0.830      343.745       52.968        0.024      350.142       31.085      860.298
07/14/2013  16:41:00     -206.311      -71.132       -1.300       89.560      120.213       42.020     8021.007    14451.231     1765.698        3.593        1.212      218.230       32.417        0.022      350.309       31.374      860.311
07/14/2013  16:42:00     -239.158       47.003      -30.209      104.080       66.196       39.186    10832.635     4381.916     1535.571        3.853        0.838      243.733       41.620        0.029      350.318       31.392      860.297
07/14/2013  16:43:00     -167.175       -6.450      -16.251       76.281       62.644       40.533     5818.780     3924.269     1642.888        1.982        0.569      167.299       34.602        0.043      350.554       31.802      860.282
07/14/2013  16:44:00      -41.463       54.990      -17.530      123.396       54.315       58.996    15226.521     2950.067     3480.583        1.335        1.083       68.871       67.887        0.972      350.406       31.546      860.272
07/14/2013  16:45:00     -153.428       43.844      -21.168       98.304       81.356       46.267     9663.661     6618.827     2140.676        2.216        0.921      159.570       40.031        0.063      350.521       31.744      860.267
07/14/2013  16:46:00      -96.849       68.452      -25.081       65.149       77.277       43.338     4244.380     5971.804     1878.185        1.339        0.605      118.597       54.426        0.211      350.440       31.605      860.257
07/14/2013  16:47:00     -162.314      -69.176      -13.895       75.054       92.509       39.512     5633.054     8557.839     1561.224        2.354        0.788      176.440       30.788        0.030      350.616       31.911      860.248
07/14/2013  16:48:00     -295.196      -94.509      -13.671      114.961      114.123       54.437    13216.019    13024.099     2963.367        6.273        1.460      309.956       54.884        0.031      350.498       31.703      860.241
07/14/2013  16:49:00     -177.106      -56.470      -10.478      110.538       97.310       59.856    12218.631     9469.308     3582.760        2.996        1.264      185.891       66.537        0.128      350.415       31.561      860.254
07/14/2013  16:50:00     -140.445      -91.995        1.319      110.092      134.450       52.203    12120.224    18076.838     2725.149        3.055        1.646      167.892       57.599        0.118      350.589       31.864      860.258
07/14/2013  16:51:00     -257.018     -176.283       -1.537      130.106      121.350       61.454    16927.441    14725.914     3776.584        6.628        1.771      311.663       66.114        0.045      350.489       31.687      860.223
07/14/2013  16:52:00     -196.246      -96.884        5.000      167.677      144.641       65.397    28115.552    20921.083     4276.763        5.061        2.666      218.858       77.051        0.124      350.330       31.411      860.202
07/14/2013  16:53:00     -186.319     -175.478        6.533      134.779      172.247       68.557    18165.452    29668.934     4700.130        5.903        2.627      255.944       70.007        0.075      350.417       31.562      860.206
07/14/2013  16:54:00     -333.328     -184.921      -22.959      175.775      141.883       68.898    30896.692    20130.701     4746.918       10.079        2.789      381.186       82.040        0.046      350.455       31.627      860.196
07/14/2013  16:55:00     -289.686      -95.909        3.117      171.393       88.269       64.305    29375.616     7791.417     4135.195        6.721        2.065      305.150       73.072        0.057      350.445       31.611      860.221
07/14/2013  16:56:00     -330.672      -68.614      -22.301      113.584      126.773       51.118    12901.427    16071.406     2613.064        7.306        1.579      337.716       47.072        0.019      350.486       31.682      860.243
07/14/2013  16:57:00     -180.758     -233.286       -4.766      150.319      163.800       81.737    22595.945    26830.418     6681.005        7.160        2.805      295.120       87.921        0.089      350.440       31.603      860.228
07/14/2013  16:58:00     -222.740     -204.728       -8.670      139.348      138.429       80.938    19417.889    19162.490     6550.985        6.836        2.257      302.534       77.921        0.066      350.470       31.654      860.253
07/14/2013  16:59:00     -314.215     -135.606        1.049      131.420      106.446       64.147    17271.144    11330.714     4114.834        7.491        1.636      342.228       65.451        0.037      350.320       31.395      860.280
07/14/2013  17:00:00     -148.487      -77.887        5.157      110.307       78.022       54.676    12167.715     6087.403     2989.422        2.469        1.062      167.674       58.181        0.120      350.393       31.523      860.271
07/14/2013  17:01:00      -69.084        3.465       12.283       48.342       36.742       20.033     2336.963     1349.942      401.338        0.451        0.204       69.171       14.778        0.046      350.454       31.631      860.249
07/14/2013  17:02:00     -106.896      -38.420        2.480       68.368       61.783       40.864     4674.179     3817.103     1669.877        1.153        0.508      113.590       38.157        0.113      350.305       31.371      860.223
07/14/2013  17:03:00        8.123       28.732       26.936       59.150       46.467       26.592     3498.735     2159.203      707.145        0.399        0.318       29.858       20.800        0.485      350.431       31.589      860.166
07/14/2013  17:04:00      -43.549       -1.805       -1.825       41.862       24.537       31.056     1752.412      602.074      964.500        0.261        0.166       43.586       29.036        0.444      350.527       31.758      860.138
07/14/2013  17:05:00       -4.054       28.574       -7.083       19.761       62.736       25.724      390.488     3935.819      661.704        0.293        0.249       28.860       20.622        0.511      350.669       32.005      860.135
07/14/2013  17:06:00      -58.891      125.730      -21.418       58.094       67.109       31.330     3374.910     4503.569      981.555        1.430        0.443      138.839       28.479        0.042      350.415       31.564      860.139
07/14/2013  17:07:00        1.399       90.979       23.936       39.800       82.139       45.139     1584.032     6746.882     2037.523        0.961        0.518       90.990       52.608        0.334      350.618       31.914      860.138
07/14/2013  17:08:00      -88.047       32.688      -15.364       28.644       32.151       22.106      820.466     1033.705      488.681        0.570        0.117       93.919       14.845        0.025      350.758       32.160      860.135
07/14/2013  17:09:00     -156.547      -32.491      -15.381       55.373       61.554       29.570     3066.155     3788.847      874.361        1.676        0.386      159.883       22.886        0.020      350.556       31.808      860.132
07/14/2013  17:10:00     -161.181      -41.501      -13.760       71.734       56.197       34.337     5145.769     3158.092     1179.049        1.869        0.474      166.438       20.195        0.015      350.720       32.093      860.137
07/14/2013  17:11:00     -111.148     -140.380       -3.527      109.372       89.880       57.499    11962.138     8078.495     3306.149        2.771        1.167      179.054       53.411        0.089      350.646       31.964      860.138
07/14/2013  17:12:00     -167.250     -141.026       -8.415      108.967      108.540       58.609    11873.904    11780.863     3435.060        3.751        1.354      218.771       59.233        0.073      350.593       31.869      860.119
07/14/2013  17:13:00     -166.845      -30.261       -4.016      120.103       98.792       62.648    14424.674     9759.877     3924.828        2.843        1.405      169.567       50.783        0.090      350.726       32.101      860.114
07/14/2013  17:14:00     -219.345       38.756      -17.076      169.037      170.649       73.851    28573.668    29121.191     5454.020        5.651        3.157      222.743       70.283        0.100      350.799       32.228      860.116
07/14/2013  17:15:00      -73.372      -14.398       -1.604      101.829       73.093       55.666    10369.116     5342.553     3098.676        1.220        0.941       74.771       53.747        0.517      350.863       32.342      860.131
07/14/2013  17:16:00     -155.976      -61.667       -3.619       90.284       90.541       49.436     8151.113     8197.727     2443.943        2.346        0.940      167.723       31.351        0.035      350.859       32.334      860.134
07/14/2013  17:17:00     -152.975      -80.795       25.060      180.775      118.247       95.838    32679.580    13982.342     9184.978        4.319        2.792      173.000       99.087        0.328      350.772       32.183      860.095
07/14/2013  17:18:00     -293.450      -82.518        0.219      135.685      126.238       59.829    18410.304    15936.008     3579.467        6.542        1.896      304.832       61.398        0.041      350.725       32.099      860.136
07/14/2013  17:19:00     -226.409     -149.933      -13.397      136.661       89.105       56.203    18676.291     7939.713     3158.816        5.184        1.489      271.553       53.968        0.039      350.409       31.547      860.141
07/14/2013  17:20:00     -219.024     -114.381        3.784      133.091       79.911       44.787    17713.286     6385.785     2005.880        4.358        1.305      247.092       48.279        0.038      350.486       31.682      860.126
07/14/2013  17:21:00     -249.592     -143.926       -1.885      136.295      104.685       68.404    18576.254    10958.893     4679.082        5.861        1.711      288.116       70.097        0.059      350.585       31.855      860.121
07/14/2013  17:22:00     -258.398      -36.083       -4.096      119.752      107.919       53.432    14340.549    11646.488     2854.994        4.846        1.442      260.906       60.667        0.054      350.380       31.499      860.129
07/14/2013  17:23:00     -133.241     -136.000       14.674      152.155      161.418       73.570    23151.009    26055.831     5412.478        4.553        2.731      190.392       80.251        0.178      350.465       31.647      860.101
07/14/2013  17:24:00     -303.412     -157.479        1.386      166.024      138.282       68.753    27564.105    19121.813     4726.908        8.413        2.571      341.846       84.115        0.061      350.408       31.547      860.083
07/14/2013  17:25:00     -173.500     -102.750        4.424      112.414       81.224       44.897    12636.986     6597.416     2015.715        3.096        1.063      201.642       52.161        0.067      350.675       32.013      860.094
07/14/2013  17:26:00     -246.398     -166.687       10.023      188.000      105.188       75.375    35343.933    11064.528     5681.390        7.033        2.604      297.484       88.355        0.088      350.373       31.486      860.078
07/14/2013  17:27:00     -189.725     -173.074        6.545      160.347      154.400       76.063    25711.099    23839.345     5785.534        6.065        2.767      256.808       95.198        0.137      350.481       31.674      860.058
07/14/2013  17:28:00     -365.929     -132.475      -20.942      206.118      158.647       72.647    42484.773    25168.915     5277.615       11.240        3.647      389.171       91.868        0.056      350.458       31.635      860.050
07/14/2013  17:29:00     -222.716      -56.035        6.302      131.493      104.788       57.763    17290.367    10980.609     3336.613        4.219        1.580      229.657       59.525        0.067      350.640       31.950      860.049
07/14/2013  17:30:00     -210.390     -106.688        9.993      183.601      122.801       75.179    33709.407    15080.017     5651.883        5.508        2.722      235.895       88.879        0.142      350.692       32.041      860.035
07/14/2013  17:31:00     -113.454      -74.700        3.396      120.376       83.651       55.891    14490.328     6997.488     3123.836        2.153        1.231      135.837       58.174        0.183      350.812       32.252      860.044
07/14/2013  17:32:00     -133.749      -91.041       13.445      148.914      132.680       69.839    22175.526    17603.913     4877.552        3.550        2.233      161.794       84.515        0.273      350.506       31.718      860.013
07/14/2013  17:33:00     -160.535     -171.246        7.920      180.328      181.057       86.686    32518.125    32781.786     7514.503        6.397        3.641      234.727      104.683        0.199      350.545       31.785      859.984
07/14/2013  17:34:00     -468.074     -170.073      -16.747      185.552      183.466       90.832    34429.359    33659.701     8250.477       16.230        3.817      498.014       83.027        0.028      350.376       31.492      859.935
07/14/2013  17:35:00     -495.547      -66.700       -4.625      266.086      177.494       87.775    70801.623    31504.025     7704.511       18.000        5.501      500.015      115.203        0.053      350.397       31.527      859.910
07/14/2013  17:36:00     -345.603     -109.243      -13.512      220.827      140.829       80.317    48764.443    19832.727     6450.879       10.329        3.752      362.457       86.734        0.057      350.410       31.550      859.942
07/14/2013  17:37:00     -423.455      -77.477      -16.083      155.425      123.995       64.771    24156.794    15374.643     4195.260       11.464        2.186      430.484       71.059        0.027      350.431       31.586      859.933
07/14/2013  17:38:00     -362.895      -67.169      -13.940      152.375      139.917       65.694    23218.158    19576.806     4315.712        9.175        2.356      369.059       59.410        0.026      350.536       31.768      859.931
07/14/2013  17:39:00     -166.200     -144.359        8.864      163.801      138.277       78.436    26830.749    19120.444     6152.204        5.031        2.605      220.140       81.283        0.136      350.629       31.932      859.935
07/14/2013  17:40:00     -286.428     -218.418        4.287      188.419      157.764       86.253    35501.595    24889.409     7439.563        9.878        3.392      360.205       99.888        0.077      350.473       31.661      859.926
07/14/2013  17:41:00     -280.746      -96.090       -8.446      133.430      109.808       65.461    17803.471    12057.690     4285.207        6.113        1.707      296.735       65.514        0.049      350.451       31.622      859.917
07/14/2013  17:42:00     -302.181     -205.567        9.776      227.553      183.521       91.226    51780.463    33680.067     8322.216       11.371        4.689      365.474      109.349        0.090      350.445       31.611      859.907
07/14/2013  17:43:00     -344.688     -286.499      -11.516      202.743      144.108       94.259    41104.855    20766.987     8884.794       13.588        3.538      448.209       93.016        0.043      350.221       31.222      859.917
07/14/2013  17:44:00     -303.083     -217.183        1.593      169.257      107.679       81.518    28647.816    11594.672     6645.104        9.295        2.344      372.864       84.446        0.051      350.244       31.262      859.921
07/14/2013  17:45:00     -258.281     -161.381        3.553      166.060      126.748       76.281    27576.084    16065.033     5818.736        7.110        2.473      304.554       75.992        0.062      350.292       31.345      859.933
07/14/2013  17:46:00     -245.545      -98.835      -11.468      138.117      117.262       62.847    19076.333    13750.423     3949.738        5.348        1.839      264.690       78.360        0.088      350.373       31.489      859.941
07/14/2013  17:47:00     -459.464     -298.389      -20.705      178.631      154.254       98.346    31909.109    23794.309     9671.925       18.296        3.269      547.853       93.723        0.029      350.184       31.157      859.921
07/14/2013  17:48:00     -235.512     -174.607        5.784      162.390      126.794       79.999    26370.613    16076.696     6399.833        6.741        2.442      293.179       88.636        0.091      350.245       31.264      859.934
07/14/2013  17:49:00     -178.342     -181.765        8.162      143.622      131.273       79.739    20627.347    17232.501     6358.342        5.456        2.211      254.645       83.995        0.109      350.246       31.265      859.894
07/14/2013  17:50:00     -321.396     -127.937      -23.890      165.862      185.045       77.306    27510.261    34241.551     5976.231        9.397        3.386      345.924       81.729        0.056      350.449       31.618      859.881
07/14/2013  17:51:00     -340.622     -113.745       13.550      231.744      138.267       82.652    53705.137    19117.867     6831.343       10.438        3.983      359.112      101.970        0.081      350.313       31.381      859.889
07/14/2013  17:52:00     -395.742     -202.298      -11.703      205.310      177.129       97.960    42152.195    31374.549     9596.223       14.038        4.156      444.450      112.941        0.065      350.246       31.266      859.895
07/14/2013  17:53:00     -343.879     -205.072      -11.319      196.342      137.270       97.901    38550.064    18843.152     9584.565       11.369        3.349      400.383       95.843        0.057      350.164       31.122      859.899
07/14/2013  17:54:00     -236.823      -77.175       -3.929      126.814      133.476       65.092    16081.835    17815.782     4236.932        5.009        1.907      249.080       71.293        0.082      350.331       31.415      859.939
07/14/2013  17:55:00     -242.193     -128.996        7.953      139.050      119.114       65.389    19335.038    14188.107     4275.700        5.657        1.890      274.403       51.256        0.035      350.330       31.411      859.966
07/14/2013  17:56:00     -134.248       -6.257      -12.074       61.576       73.197       45.396     3791.588     5357.789     2060.801        1.471        0.561      134.394       37.271        0.077      350.371       31.486      859.979
07/14/2013  17:57:00     -149.420      -58.990       19.979      101.872       94.343       48.867    10377.888     8900.546     2387.951        2.393        1.083      160.642       51.959        0.105      350.380       31.500      859.993
07/14/2013  17:58:00      -62.936       -8.709        8.479       47.251       44.211       29.531     2232.621     1954.611      872.077        0.458        0.253       63.535       23.953        0.142      350.450       31.623      859.983
07/14/2013  17:59:00     -311.579      -91.611      -13.070      173.751      116.233       59.502    30189.372    13510.083     3540.483        7.643        2.362      324.767       73.202        0.051      350.523       31.746      859.987
07/14/2013  18:00:00     -271.706      -88.751        3.984      185.082      113.167       71.709    34255.455    12806.721     5142.200        6.695        2.610      285.834       86.241        0.091      350.317       31.391      859.990
07/14/2013  18:01:00     -286.872      -84.219      -23.811      198.562       97.068       64.836    39427.004     9422.129     4203.724        7.149        2.653      298.979       83.162        0.077      350.474       31.662      860.006
07/14/2013  18:02:00     -415.367      -80.816      -18.792      207.336      118.423       72.604    42988.284    14023.978     5271.352       12.084        3.114      423.156       80.433        0.036      350.138       31.077      860.012
07/14/2013  18:03:00     -237.932      -65.892      -21.059      136.812      100.413       60.482    18717.492    10082.802     3658.084        4.692        1.623      246.887       66.475        0.072      350.277       31.319      860.029
07/14/2013  18:04:00     -230.713       67.227      -42.972      102.547      104.041       67.454    10515.978    10824.626     4550.054        4.274        1.295      240.308       46.195        0.037      350.221       31.221      860.042
07/14/2013  18:05:00     -252.975      109.254      -34.312      162.001       95.096       49.016    26244.380     9043.340     2402.557        5.739        1.885      275.559       56.566        0.042      350.045       30.916      860.030
07/14/2013  18:06:00       15.204      -23.937        5.021       47.768       58.197       34.150     2281.822     3386.891     1166.235        0.383        0.342       28.357       13.762        0.236      350.202       31.193      859.976
07/14/2013  18:07:00     -218.100     -102.339       -2.548       97.796       65.551       47.201     9563.991     4296.871     2227.932        3.706        0.804      240.917       38.485        0.026      350.325       31.403      860.002
07/14/2013  18:08:00     -116.045      -91.502       13.224      101.832       87.155       53.012    10369.673     7595.974     2810.258        2.139        1.039      147.781       54.093        0.134      350.238       31.252      860.027
07/14/2013  18:09:00     -123.617      -45.593        6.415      131.278       76.618       50.345    17233.944     5870.270     2534.572        2.151        1.282      131.757       55.907        0.180      350.340       31.429      860.039
07/14/2013  18:10:00      -96.020      -23.897        6.419       62.989       70.746       34.946     3967.559     5004.998     1221.203        1.001        0.510       98.949       27.206        0.076      350.586       31.860      860.053
07/14/2013  18:11:00     -278.466      -88.800       -9.902      172.842      158.581       65.878    29874.403    25147.981     4339.935        7.243        2.968      292.282       68.925        0.056      350.343       31.436      860.039
07/14/2013  18:12:00     -312.414      -10.004      -19.350      126.701      140.899       62.660    16053.054    19852.430     3926.257        6.895        1.992      312.574       50.185        0.026      350.221       31.222      860.031
07/14/2013  18:13:00      -70.866       -6.040       -3.186       68.518       66.542       37.695     4694.760     4427.900     1420.943        0.780        0.527       71.123       29.564        0.173      350.284       31.335      860.038
07/14/2013  18:14:00     -297.594      -75.694      -21.214      161.242      114.403       48.560    25999.113    13088.117     2358.091        6.809        2.072      307.070       45.658        0.022      350.323       31.400      860.040
07/14/2013  18:15:00     -400.543      -84.532      -25.258      157.709      140.614       86.016    24872.230    19772.384     7398.720       11.012        2.602      409.366       85.811        0.044      350.091       30.995      860.025
07/14/2013  18:16:00     -403.055     -172.231      -16.853      213.660      128.101       78.355    45650.602    16409.783     6139.495       13.029        3.410      438.311       96.965        0.049      350.042       30.912      860.011
07/14/2013  18:17:00     -222.236      -63.718        2.595      151.806       89.042       58.686    23044.945     7928.419     3444.056        4.393        1.721      231.190       71.821        0.097      350.170       31.133      860.042
07/14/2013  18:18:00     -396.945     -185.820       -9.587      250.872      236.112       85.640    62936.941    55748.783     7334.284       15.908        6.301      438.286      108.880        0.062      349.933       30.723      860.013
07/14/2013  18:19:00     -274.591     -104.036       -4.732      204.248      139.901       95.354    41717.256    19572.273     9092.323        7.830        3.519      293.639      115.800        0.156      350.024       30.880      860.029
07/14/2013  18:20:00     -371.864      -35.801      -42.198      123.847      114.243       60.367    15338.130    13051.450     3644.165        8.668        1.602      373.583       59.518        0.025      349.982       30.806      860.018
07/14/2013  18:21:00     -450.334     -142.050      -11.481      185.750      133.473       73.815    34502.922    17814.932     5448.589       14.043        2.888      472.207       84.466        0.032      349.983       30.808      859.992
07/14/2013  18:22:00     -361.845     -135.615       -6.639      150.258      101.382       66.773    22577.504    10278.249     4458.598        9.333        1.866      386.424       63.123        0.027      349.966       30.778      860.013
07/14/2013  18:23:00     -103.331      -36.050        6.577      161.006       66.682       61.744    25922.887     4446.487     3812.377        2.309        1.709      109.439       68.702        0.394      350.263       31.296      860.011
07/14/2013  18:24:00     -321.453      -61.968      -13.129      103.897       98.488       56.356    10794.562     9699.921     3175.969        6.550        1.184      327.372       32.344        0.010      350.201       31.186      860.020
07/14/2013  18:25:00     -370.899      -53.475       10.583      238.714      130.808       87.545    56984.196    17110.695     7664.194       11.113        4.088      374.734      110.368        0.087      350.109       31.027      860.004
07/14/2013  18:26:00     -397.437     -135.639      -20.482      204.214      122.265       72.293    41703.394    14948.758     5226.293       11.931        3.094      419.945       90.127        0.046      349.955       30.760      860.018
07/14/2013  18:27:00     -283.081     -138.329       -1.319      164.560      131.994       77.115    27080.012    17422.403     5946.777        7.485        2.522      315.071       68.300        0.047      349.932       30.721      860.020
07/14/2013  18:28:00     -428.278     -163.266      -25.609      126.618       94.434       61.132    16032.135     8917.804     3737.087       11.970        1.434      458.342       41.778        0.008      349.968       30.783      860.044
07/14/2013  18:29:00     -416.673      -26.823      -33.215      146.051      178.720       69.796    21330.913    31940.855     4871.445       11.678        2.907      417.535       63.216        0.023      349.913       30.687      860.064
07/14/2013  18:30:00     -316.563      -35.171      -16.922      140.443      102.195       66.215    19724.162    10443.731     4384.425        6.814        1.728      318.511       56.898        0.032      349.972       30.789      860.076
07/14/2013  18:31:00      -95.859        7.999       12.566       76.026       69.749       44.438     5779.897     4864.870     1974.752        1.101        0.631       96.192       39.728        0.171      350.214       31.213      860.076
07/14/2013  18:32:00     -263.568        0.862      -23.945       93.733       76.507       47.097     8785.904     5853.301     2218.148        4.345        0.843      263.569       45.836        0.030      350.085       30.985      860.087
07/14/2013  18:33:00     -344.866     -166.735       -8.136      133.680       97.272       56.974    17870.279     9461.775     3245.999        8.868        1.529      383.057       63.136        0.027      349.996       30.831      860.086
07/14/2013  18:34:00     -245.160      -61.857       -5.878      127.271       84.852       50.202    16197.873     7199.941     2520.255        4.494        1.296      252.843       51.928        0.042      350.102       31.016      860.102
07/14/2013  18:35:00     -238.095      -50.352      -27.010       92.315      101.136       52.032     8522.059    10228.393     2707.324        4.070        1.073      243.361       38.661        0.025      350.121       31.049      860.093
07/14/2013  18:36:00     -238.053      -28.875      -13.727      181.340       88.811       63.176    32884.042     7887.407     3991.237        5.122        2.238      239.798       85.456        0.127      350.137       31.077      860.087
07/14/2013  18:37:00     -363.023      -46.326      -18.728      120.669      119.071       59.750    14560.994    14178.011     3570.003        8.329        1.615      365.967       54.654        0.022      350.030       30.889      860.105
07/14/2013  18:38:00     -295.877       -9.894      -28.040      110.159       79.143       47.662    12135.069     6263.620     2271.663        5.454        1.034      296.042       54.996        0.035      350.046       30.919      860.133
07/14/2013  18:39:00     -337.557      -23.428      -34.818      159.236      155.048       65.700    25356.134    24039.964     4316.531        8.470        2.686      338.369       69.097        0.042      349.928       30.712      860.130
07/14/2013  18:40:00     -295.614      -16.348      -25.986      100.059      112.674       50.459    10011.775    12695.393     2546.080        5.679        1.263      296.066       49.055        0.027      349.945       30.742      860.124
07/14/2013  18:41:00     -266.377      -11.887      -15.027      111.189      124.395       62.216    12362.956    15474.037     3870.825        5.151        1.585      266.642       57.515        0.047      349.996       30.831      860.125
07/14/2013  18:42:00     -239.025      -17.972      -11.509      147.342      104.680       54.209    21709.800    10957.892     2938.584        4.659        1.780      239.700       74.099        0.096      349.968       30.782      860.130
07/14/2013  18:43:00     -320.685      -47.736      -14.422       98.680      134.929       53.071     9737.779    18205.938     2816.497        6.804        1.538      324.219       47.386        0.021      350.030       30.889      860.167
07/14/2013  18:44:00     -290.227      -61.120      -12.906      120.452      108.916       65.143    14508.763    11862.775     4243.582        5.937        1.531      296.593       60.282        0.041      349.962       30.773      860.174
07/14/2013  18:45:00     -215.579       77.705      -33.423      151.536       94.391       52.731    22963.070     8909.738     2780.520        4.413        1.733      229.156       62.696        0.075      349.875       30.622      860.201
07/14/2013  18:46:00     -188.872       39.617      -23.486       94.647      125.418       50.884     8958.078    15729.595     2589.143        3.253        1.364      192.982       55.217        0.082      349.785       30.465      860.180
07/14/2013  18:47:00     -130.782      -71.775        8.127      108.885       78.810       38.958    11855.865     6211.043     1517.718        2.095        0.979      149.183       40.574        0.074      349.960       30.771      860.149
07/14/2013  18:48:00     -254.697      -51.636       -2.444      157.356      109.347       63.698    24760.898    11956.795     4057.435        5.415        2.039      259.878       77.315        0.089      349.766       30.431      860.128
07/14/2013  18:49:00     -299.907      -40.122       19.624      176.525      135.656       86.740    31161.166    18402.612     7523.892        7.450        2.854      302.579       89.301        0.087      349.789       30.471      860.082
07/14/2013  18:50:00     -274.353      -72.977       -8.264      150.901      126.654       61.613    22771.053    16041.125     3796.157        6.163        2.130      283.893       61.587        0.047      349.737       30.381      860.111
07/14/2013  18:51:00     -227.523     -101.984       24.529      265.098      122.959      106.771    70277.184    15118.858    11400.138        7.976        4.840      249.334      126.676        0.258      349.636       30.207      860.102
07/14/2013  18:52:00     -281.245      -44.122       11.100      149.507      127.115       71.497    22352.368    16158.195     5111.755        6.239        2.181      284.685       79.180        0.077      349.714       30.340      860.113
07/14/2013  18:53:00     -263.406     -202.826       -6.894      169.580      144.014       80.630    28757.534    20739.986     6501.207        8.327        2.800      332.447       92.326        0.077      349.649       30.228      860.108
07/14/2013  18:54:00     -317.890     -180.864      -16.542      198.338      167.499       85.325    39337.863    28055.776     7280.318       10.434        3.734      365.740       99.727        0.074      349.619       30.177      860.096
07/14/2013  18:55:00     -349.353     -172.252        2.308      175.791      131.570       86.402    30902.331    17310.742     7465.274       10.369        2.784      389.510       89.973        0.053      349.604       30.151      860.113
07/14/2013  18:56:00     -355.431      -80.976      -16.961      169.251      131.468       60.907    28646.036    17283.798     3709.616        9.140        2.482      364.539       64.246        0.031      349.597       30.138      860.097
07/14/2013  18:57:00     -123.517      -91.526       17.519      163.896      119.720       71.030    26861.906    14332.856     5045.242        3.508        2.312      153.731       76.906        0.250      349.709       30.334      860.087
07/14/2013  18:58:00     -122.233     -124.072        8.222      190.111      152.669       80.019    36142.267    23307.826     6403.069        4.811        3.293      174.169       90.602        0.271      349.673       30.271      860.099
07/14/2013  18:59:00     -370.247     -122.172       -8.499      194.196      144.591       75.839    37712.064    20906.683     5751.542       10.821        3.219      389.883       77.752        0.040      349.620       30.176      860.113
07/14/2013  19:00:00     -454.595     -173.402      -22.376      169.390      110.508       70.220    28692.997    12211.984     4930.868       14.152        2.292      486.543       76.533        0.025      349.561       30.076      860.135
07/14/2013  19:01:00     -179.460        5.916        0.316      132.743      123.085       63.749    17620.801    15149.921     4063.934        3.453        1.842      179.558       69.964        0.152      349.676       30.276      860.144
07/14/2013  19:02:00     -439.009      -42.576      -19.517      195.126      175.660       70.123    38074.268    30856.328     4917.177       13.437        3.692      441.069       76.320        0.030      349.613       30.167      860.153
07/14/2013  19:03:00     -425.098      -65.264      -17.937      192.423      113.129       67.601    37026.438    12798.188     4569.907       11.983        2.720      430.079       79.201        0.034      349.553       30.062      860.166
07/14/2013  19:04:00     -337.701        4.622      -24.468      132.701       95.356       57.183    17609.545     9092.719     3269.903        7.231        1.499      337.733       61.765        0.033      349.610       30.160      860.172
07/14/2013  19:05:00     -292.608      -29.449      -21.148      134.333      102.178       53.417    18045.472    10440.381     2853.339        5.913        1.567      294.086       54.378        0.034      349.641       30.213      860.175
07/14/2013  19:06:00     -359.620      -60.450      -14.056      153.724      126.267       68.678    23631.130    15943.480     4716.653        8.873        2.215      364.665       76.354        0.044      349.584       30.115      860.180
07/14/2013  19:07:00     -319.058       -3.670      -30.553      130.702      100.512       59.483    17083.023    10102.726     3538.194        6.673        1.536      319.079       61.529        0.037      349.600       30.144      860.169
07/14/2013  19:08:00     -326.700       -6.229      -28.323      173.395       93.750       60.029    30065.717     8789.004     3603.471        7.501        2.123      326.760       81.185        0.062      349.612       30.164      860.162
07/14/2013  19:09:00     -287.584       35.359      -10.422      114.688      108.308       57.375    13153.395    11730.523     3291.852        5.611        1.409      289.750       48.889        0.028      349.560       30.074      860.152
07/14/2013  19:10:00     -431.984      -56.853      -39.150      141.682      115.232       73.342    20073.898    13278.387     5379.102       11.505        1.937      435.710       73.239        0.028      349.507       29.980      860.136
07/14/2013  19:11:00     -414.250       26.940      -40.066      154.167      142.691       78.867    23767.614    20360.595     6220.041       11.213        2.517      415.125       74.775        0.032      349.500       29.970      860.136
07/14/2013  19:12:00     -442.301      -86.283      -17.980      156.957      132.253       71.418    24635.565    17490.864     5100.591       12.530        2.361      450.639       76.201        0.029      349.487       29.947      860.142
07/14/2013  19:13:00     -330.253      -91.346       -8.301      138.848      124.477       64.741    19278.803    15494.503     4191.383        7.821        1.948      342.653       59.582        0.030      349.490       29.951      860.134
07/14/2013  19:14:00     -474.561      -56.901      -21.835      138.726      177.681       75.971    19244.818    31570.670     5771.669       14.274        2.829      477.960       63.418        0.018      349.456       29.893      860.119
07/14/2013  19:15:00     -472.503     -180.381      -25.443      162.997      120.974       82.624    26567.991    14634.664     6826.756       15.223        2.401      505.763       79.671        0.025      349.412       29.817      860.096
07/14/2013  19:16:00     -405.726     -146.114       -4.687      141.435      134.842       64.880    20003.898    18182.244     4209.432       11.418        2.120      431.235       54.102        0.016      349.401       29.798      860.112
07/14/2013  19:17:00     -241.799     -122.656        5.670      155.689      120.427       67.025    24238.925    14502.575     4492.290        5.838        2.162      271.129       69.615        0.066      349.404       29.801      860.121
07/14/2013  19:18:00     -234.389      -79.182      -16.130       98.334       86.358       68.282     9669.638     7457.673     4662.368        4.162        1.089      247.403       46.464        0.035      349.472       29.921      860.120
07/14/2013  19:19:00     -259.839      -94.853      -15.066      134.578      101.136       58.857    18111.113    10228.467     3464.169        5.427        1.590      276.611       70.860        0.066      349.498       29.965      860.130
07/14/2013  19:20:00     -279.798     -124.232      -19.607      149.299      125.656       55.219    22290.160    15789.371     3049.116        6.761        2.056      306.138       55.459        0.033      349.441       29.865      860.147
07/14/2013  19:21:00     -439.634     -104.493      -21.851      110.944       95.702       68.743    12308.605     9158.918     4725.566       11.543        1.310      451.881       60.535        0.018      349.372       29.746      860.134
07/14/2013  19:22:00     -215.181      -97.447       27.109      146.529      138.166       74.527    21470.841    19089.706     5554.348        5.132        2.306      236.218       80.272        0.115      349.429       29.848      860.148
07/14/2013  19:23:00     -390.175      -90.194      -18.997      176.625      174.193       66.732    31196.410    30343.298     4453.144       11.335        3.300      400.464       83.789        0.044      349.320       29.658      860.142
07/14/2013  19:24:00     -240.777      -83.071       -2.023      126.048       94.767       57.940    15888.092     8980.869     3357.088        4.655        1.411      254.704       59.886        0.055      349.361       29.729      860.162
07/14/2013  19:25:00     -289.691      -68.590       -6.485      152.225       97.490       69.787    23172.424     9504.319     4870.233        6.310        1.877      297.700       75.312        0.064      349.366       29.739      860.186
07/14/2013  19:26:00     -178.790       -7.552        8.571      120.110      100.891       60.709    14426.477    10179.009     3685.538        3.019        1.415      178.950       66.864        0.140      349.412       29.819      860.181
07/14/2013  19:27:00     -366.677     -137.051        0.573      141.247       93.891       56.248    19950.798     8815.567     3163.859        9.258        1.597      391.452       59.970        0.023      349.315       29.650      860.188
07/14/2013  19:28:00     -230.334      -85.069       -2.686       97.049       76.014       47.786     9418.574     5778.203     2283.516        3.889        0.874      245.541       54.746        0.050      349.338       29.692      860.223
07/14/2013  19:29:00     -202.747      -71.203        0.932      202.666      118.145       69.313    41073.400    13958.125     4804.291        5.299        2.992      214.886       93.232        0.188      349.359       29.728      860.236
07/14/2013  19:30:00     -386.890     -123.543       -7.823      196.233      147.673       93.854    38507.557    21807.421     8808.595       11.705        3.456      406.136      105.082        0.067      349.245       29.529      860.230
07/14/2013  19:31:00     -415.795      -60.980      -23.716      149.025      152.510       76.188    22208.516    23259.448     5804.637       11.421        2.564      420.242       78.106        0.035      349.242       29.523      860.241
07/14/2013  19:32:00     -335.252     -154.930       -9.347      159.405      163.302       90.116    25409.813    26667.666     8120.875        9.833        3.010      369.320       85.907        0.054      349.220       29.485      860.254
07/14/2013  19:33:00     -291.238      -25.439        5.763      194.070      148.235       82.665    37663.007    21973.727     6833.450        7.597        3.324      292.347       96.871        0.110      349.224       29.492      860.263
07/14/2013  19:34:00     -300.279      -70.517        3.513      160.812      134.448       84.297    25860.484    18076.184     7105.912        7.309        2.552      308.448       80.258        0.068      349.211       29.469      860.261
07/14/2013  19:35:00     -411.497     -109.035      -42.678      196.866      120.490       75.865    38756.171    14517.920     5755.517       12.102        2.951      425.698       86.658        0.041      349.144       29.352      860.265
07/14/2013  19:36:00     -349.317     -104.709       -5.134      158.226      146.155       79.143    25035.588    21361.347     6263.577        9.283        2.633      364.673       84.617        0.054      349.159       29.379      860.278
07/14/2013  19:37:00     -405.651      -44.450      -13.767      156.195      166.096       69.669    24396.866    27587.940     4853.711       11.177        2.842      408.079       73.465        0.032      349.171       29.399      860.292
07/14/2013  19:38:00     -432.574     -103.418      -24.978      205.490      140.609       77.901    42226.251    19770.913     6068.522       13.324        3.403      444.765       95.105        0.046      349.143       29.351      860.294
07/14/2013  19:39:00     -345.922      -59.228      -21.778      146.001      118.165       67.973    21316.200    13963.084     4620.357        8.176        1.995      350.956       69.612        0.039      349.147       29.357      860.299
07/14/2013  19:40:00     -191.843      -34.703       18.231      134.601      110.475       58.296    18117.508    12204.781     3398.473        3.602        1.686      194.956       66.172        0.115      349.158       29.377      860.325
07/14/2013  19:41:00     -242.182     -101.139      -14.130      143.673      109.103       56.111    20642.016    11903.544     3148.419        5.238        1.785      262.453       69.030        0.069      349.123       29.314      860.321
07/14/2013  19:42:00     -202.596      -34.728       -2.411      121.359       91.004       56.678    14728.090     8281.743     3212.399        3.423        1.311      205.551       61.218        0.089      349.143       29.352      860.324
07/14/2013  19:43:00     -311.635     -118.360       -7.308      169.807      125.292       60.406    28834.389    15698.105     3648.912        7.967        2.409      333.355       74.365        0.050      349.087       29.253      860.327
07/14/2013  19:44:00     -199.319      -92.353      -13.977      151.526      131.797       60.366    22960.089    17370.526     3644.074        4.620        2.199      219.676       61.387        0.078      349.113       29.298      860.329
07/14/2013  19:45:00     -471.016      -45.472      -40.549      167.528      106.259       76.464    28065.521    11291.073     5846.791       13.538        2.260      473.206       71.996        0.023      349.036       29.166      860.340
07/14/2013  19:46:00     -303.924      -80.765        0.009      179.904      156.557       78.229    32365.584    24509.991     6119.704        8.093        3.150      314.472       95.912        0.093      349.018       29.136      860.336
07/14/2013  19:47:00     -307.281      -67.153      -11.968      160.927      138.407       62.671    25897.584    19156.424     3927.595        7.402        2.449      314.533       73.751        0.055      348.994       29.093      860.354
07/14/2013  19:48:00     -262.726     -130.885       -8.216      151.889      137.695       57.919    23070.295    18959.890     3354.616        6.580        2.269      293.524       62.422        0.045      348.989       29.087      860.358
07/14/2013  19:49:00     -378.533        6.565      -23.136      161.494       87.382       68.338    26080.235     7635.557     4670.018        9.112        1.919      378.590       72.792        0.037      348.975       29.061      860.365
07/14/2013  19:50:00     -349.049      -51.398       -4.092      183.715      121.424       73.374    33751.123    14743.764     5383.790        8.918        2.694      352.813       71.648        0.041      348.958       29.032      860.388
07/14/2013  19:51:00     -259.359      -63.646        1.712      165.678      132.591       73.324    27449.362    17580.447     5376.389        6.085        2.520      267.054       77.724        0.085      348.930       28.983      860.389
07/14/2013  19:52:00     -208.344      -26.688      -20.304      136.676       79.625       56.908    18680.302     6340.097     3238.505        3.639        1.413      210.047       58.866        0.079      348.944       29.007      860.395
07/14/2013  19:53:00     -576.214      -37.727      -32.456      230.418      167.844       92.195    53092.283    28171.572     8499.925       21.211        4.488      577.448      110.659        0.037      348.862       28.864      860.401
07/14/2013  19:54:00     -256.179      -81.218      -14.375      158.303      107.562       56.732    25059.964    11569.609     3218.515        5.613        1.992      268.745       69.731        0.067      348.866       28.870      860.410
07/14/2013  19:55:00     -366.957       -6.264      -21.068      174.707      157.018       76.725    30522.638    24654.557     5886.793        9.809        3.053      367.011       77.075        0.044      348.817       28.785      860.414
07/14/2013  19:56:00     -398.350     -103.803      -38.130      185.726      126.317       73.131    34494.286    15955.972     5348.114       11.334        2.790      411.652       77.890        0.036      348.811       28.775      860.417
07/14/2013  19:57:00     -409.168      -37.316      -24.843      165.481      129.217       71.772    27383.950    16696.936     5151.220       10.932        2.462      410.866       77.892        0.036      348.795       28.747      860.437
07/14/2013  19:58:00     -457.730      -85.510      -19.298      196.903      107.154       69.253    38770.598    11481.985     4795.939       13.611        2.752      465.648       78.462        0.028      348.788       28.737      860.435
07/14/2013  19:59:00     -502.079     -107.248      -25.216      169.321      159.844       73.624    28669.734    25550.204     5420.475       16.192        2.982      513.406       90.856        0.031      348.761       28.690      860.447
07/14/2013  20:00:00     -437.555      -89.145       -5.805      273.766      129.199       81.595    74948.012    16692.335     6657.714       14.885        4.915      446.544       80.918        0.033      348.742       28.658      860.442
07/14/2013  20:01:00     -293.353      -56.250      -12.126      159.641      162.101       69.872    25485.378    26276.825     4882.036        7.299        2.832      298.697       67.641        0.051      348.732       28.641      860.436
07/14/2013  20:02:00     -433.311      -20.990      -35.530      174.903      146.698       70.900    30590.902    21520.158     5026.841       12.329        2.857      433.819       71.634        0.027      348.720       28.620      860.447
07/14/2013  20:03:00     -231.552      -49.988       -3.522       97.226      120.379       58.662     9452.979    14491.103     3441.283        4.175        1.369      236.886       45.733        0.037      348.696       28.579      860.465
07/14/2013  20:04:00     -287.865       29.158      -15.937      110.139       88.203       60.050    12130.514     7779.844     3605.953        5.374        1.176      289.337       49.185        0.029      348.676       28.543      860.472
07/14/2013  20:05:00     -232.312       12.943      -13.750      101.713       88.812       49.016    10345.552     7887.539     2402.534        3.748        1.032      232.672       51.934        0.050      348.657       28.510      860.489
07/14/2013  20:06:00     -328.128      -83.822       -5.755      155.472       98.983       54.367    24171.604     9797.585     2955.782        7.582        1.846      338.665       56.320        0.028      348.636       28.475      860.491
07/14/2013  20:07:00     -245.708      -19.557       -1.794      156.741      131.096       66.222    24567.893    17186.084     4385.386        5.344        2.307      246.485       73.116        0.088      348.596       28.404      860.490
07/14/2013  20:08:00     -197.298      -99.326        9.413      113.694      115.723       53.196    12926.397    13391.900     2829.813        3.901        1.457      220.890       41.127        0.035      348.595       28.403      860.498
07/14/2013  20:09:00     -270.535      -42.457      -17.348      198.776      103.046       59.746    39511.842    10618.539     3569.603        6.449        2.685      273.846       76.979        0.079      348.590       28.395      860.500
07/14/2013  20:10:00     -457.776      -66.935      -21.094      201.980      130.180       79.955    40796.027    16946.899     6392.747       13.930        3.207      462.644       90.339        0.038      348.589       28.392      860.492
07/14/2013  20:11:00     -260.021     -129.648        3.914      155.631      142.141       73.951    24221.053    20203.953     5468.724        6.715        2.495      290.550       83.978        0.084      348.552       28.327      860.487
07/14/2013  20:12:00     -242.334      -62.856        5.532      117.109      110.051       60.768    13714.565    12111.252     3692.810        4.611        1.476      250.353       63.904        0.065      348.539       28.305      860.499
07/14/2013  20:13:00     -380.136     -113.301      -19.261      126.429      106.264       64.265    15984.398    11291.987     4130.046        9.455        1.570      396.662       66.235        0.028      348.548       28.319      860.511
07/14/2013  20:14:00     -292.466     -100.326      -16.657      158.244      138.444       64.651    25041.059    19166.793     4179.698        7.212        2.419      309.196       76.489        0.061      348.526       28.282      860.506
07/14/2013  20:15:00     -459.757      -29.252       -1.418      206.405      123.318       86.421    42602.830    15207.338     7468.650       13.874        3.264      460.687      100.409        0.048      348.524       28.278      860.507
07/14/2013  20:16:00     -525.638      -35.207      -21.563      176.371      157.208       81.001    31106.697    24714.400     6561.211       17.018        3.119      526.816       80.814        0.024      348.528       28.284      860.494
07/14/2013  20:17:00     -342.803      -21.076       -5.965      168.487      113.539       74.658    28388.022    12891.177     5573.798        8.241        2.343      343.450       91.532        0.071      348.509       28.251      860.514
07/14/2013  20:18:00     -375.677      -41.497       -5.540      203.349      114.514       66.955    41351.001    13113.563     4482.923       10.090        2.947      377.962       96.196        0.065      348.513       28.260      860.518
07/14/2013  20:19:00     -379.203      -99.893      -19.580      156.353      134.207       83.837    24446.193    18011.573     7028.612       10.181        2.474      392.139       87.303        0.050      348.505       28.245      860.524
07/14/2013  20:20:00     -191.381      -47.200        6.433      128.955      117.707       67.386    16629.393    13854.913     4540.910        3.695        1.751      197.116       72.536        0.135      348.478       28.199      860.532
07/14/2013  20:21:00     -262.374     -118.208       -8.508      197.775      173.523       66.716    39115.110    30110.327     4451.026        7.827        3.684      287.773       76.337        0.070      348.453       28.158      860.529
07/14/2013  20:22:00     -447.626      -73.213      -15.561      171.036      182.884       77.775    29253.285    33446.643     6048.967       13.735        3.437      453.573       73.628        0.026      348.468       28.183      860.513
07/14/2013  20:23:00     -249.272      -17.498        7.593      180.917      119.292       82.969    32730.791    14230.558     6883.796        5.816        2.692      249.886       79.780        0.102      348.412       28.088      860.512
07/14/2013  20:24:00     -481.416      -53.855      -15.956      189.268      133.703       92.063    35822.279    17876.402     8475.579       14.853        3.109      484.419      104.105        0.046      348.458       28.166      860.516
07/14/2013  20:25:00     -324.418      -57.418        4.180      180.363      133.081       83.863    32530.784    17710.435     7033.019        8.291        2.864      329.461       83.760        0.065      348.435       28.127      860.503
07/14/2013  20:26:00     -305.941      -41.318       -9.321      264.698      128.866       83.370    70065.048    16606.438     6950.637        9.449        4.681      308.718      124.020        0.161      348.432       28.122      860.513
07/14/2013  20:27:00     -480.252     -116.691      -24.579      215.340      156.248       83.173    46371.417    24413.453     6917.706       16.127        3.885      494.226       85.426        0.030      348.437       28.130      860.526
07/14/2013  20:28:00     -363.945     -189.769       -7.075      233.419      184.071       84.079    54484.362    33882.106     7069.358       13.196        4.772      410.449       98.485        0.058      348.409       28.082      860.523
07/14/2013  20:29:00     -306.419     -138.645        4.552      207.925      155.776       92.700    43232.695    24266.052     8593.345        9.460        3.805      336.326      111.301        0.110      348.400       28.066      860.518
07/14/2013  20:30:00     -242.788      -45.423       -2.164      126.838      107.210       57.127    16087.992    11493.974     3263.501        4.592        1.542      247.000       55.206        0.050      348.362       27.999      860.549
07/14/2013  20:31:00     -249.287     -100.946      -18.258      137.586      128.261       70.348    18929.907    16450.809     4948.878        5.649        2.016      268.950       57.017        0.045      348.361       27.997      860.546
07/14/2013  20:32:00     -354.572      -67.432        0.827      197.136      123.690       78.181    38862.676    15299.314     6112.222        9.526        3.014      360.927       95.570        0.070      348.362       28.000      860.547
07/14/2013  20:33:00     -360.270     -144.894      -19.381      136.317      141.051       73.876    18582.375    19895.485     5457.637        9.754        2.197      388.316       79.243        0.042      348.356       27.988      860.547
07/14/2013  20:34:00     -245.397      -92.835      -13.609      138.618      119.688       75.785    19214.878    14325.169     5743.395        5.415        1.964      262.370       57.333        0.048      348.323       27.930      860.563
07/14/2013  20:35:00     -299.951     -120.047       10.244      190.146      172.743       79.289    36155.451    29839.974     6286.767        8.837        3.614      323.082      101.329        0.098      348.292       27.878      860.578
07/14/2013  20:36:00     -285.141     -113.759      -13.480      198.407      154.934       81.935    39365.162    24004.571     6713.402        8.224        3.504      306.996       94.855        0.095      348.308       27.906      860.556
07/14/2013  20:37:00     -377.225     -116.586      -24.649      202.872      163.098       75.365    41157.019    26601.018     5679.908       11.495        3.672      394.831       88.829        0.051      348.304       27.899      860.554
07/14/2013  20:38:00     -410.103     -121.811      -26.393      164.721      114.730       70.342    27133.045    13163.037     4947.927       11.447        2.262      427.811       84.117        0.039      348.264       27.829      860.562
07/14/2013  20:39:00     -210.361     -110.506        6.973      153.941      152.471       86.551    23697.794    23247.467     7491.119        5.546        2.722      237.620       78.809        0.110      348.247       27.799      860.556
07/14/2013  20:40:00     -333.023      -72.772       -6.784      160.475      111.034       69.053    25752.362    12328.520     4768.345        7.954        2.142      340.882       72.170        0.045      348.209       27.734      860.569
07/14/2013  20:41:00     -344.953      -70.100       -4.190      125.456       93.832       64.915    15739.325     8804.358     4213.896        7.634        1.438      352.004       65.842        0.035      348.193       27.706      860.574
07/14/2013  20:42:00     -380.024      -67.299      -17.698      169.265      126.624       69.826    28650.531    16033.665     4875.702        9.940        2.478      385.937       77.694        0.041      348.173       27.672      860.584
07/14/2013  20:43:00     -343.213      -62.514      -17.365      170.517      115.988       65.583    29076.081    13453.312     4301.137        8.441        2.342      348.860       68.893        0.039      348.151       27.634      860.580
07/14/2013  20:44:00     -347.014     -105.978       -1.947      153.550      124.759       65.493    23577.549    15564.852     4289.314        8.753        2.172      362.836       66.673        0.034      348.141       27.616      860.576
07/14/2013  20:45:00     -318.900     -103.052       -4.284      100.537      121.376       55.854    10107.788    14732.054     3119.667        7.014        1.398      335.137       51.290        0.023      348.167       27.663      860.575
07/14/2013  20:46:00     -288.078     -137.218       -9.342      198.093      153.177       80.171    39240.882    23463.221     6427.350        8.550        3.457      319.088       94.208        0.087      348.147       27.627      860.562
07/14/2013  20:47:00     -407.375      -77.224      -24.454      169.604      127.136       80.790    28765.453    16163.537     6526.950       11.198        2.573      414.630       88.815        0.046      348.119       27.579      860.587
07/14/2013  20:48:00     -315.837      -95.622      -10.826      233.332      130.455       70.525    54443.927    17018.477     4973.757        9.271        3.822      329.995       98.120        0.088      348.101       27.548      860.586
07/14/2013  20:49:00     -428.708      -97.082      -19.773      196.470      159.973       79.550    38600.295    25591.271     6328.156       13.205        3.526      439.563       86.552        0.039      348.093       27.534      860.580
07/14/2013  20:50:00     -344.235      -75.484      -27.413      145.044      109.482       72.033    21037.727    11986.215     5188.785        8.157        1.911      352.414       64.900        0.034      348.061       27.481      860.573
07/14/2013  20:51:00     -348.951      -73.790      -19.372      129.057      108.708       83.594    16655.819    11817.392     6988.020        8.152        1.773      356.668       81.864        0.053      348.047       27.453      860.574
07/14/2013  20:52:00     -313.048     -129.741      -10.805      165.790      127.007       74.459    27486.241    16130.759     5544.136        8.204        2.458      338.868       76.963        0.052      348.045       27.450      860.592
07/14/2013  20:53:00     -269.919      -16.244      -16.037      149.962       98.947       61.230    22488.675     9790.579     3749.094        5.470        1.801      270.407       70.815        0.069      348.015       27.399      860.621
07/14/2013  20:54:00     -386.509     -119.869       -2.775      171.127      143.853       70.485    29284.616    20693.672     4968.164       10.934        2.747      404.670       71.846        0.032      348.019       27.407      860.628
07/14/2013  20:55:00     -434.541      -90.366      -34.285      143.539      125.152       69.751    20603.460    15663.147     4865.238       11.964        2.057      443.837       74.645        0.028      348.012       27.394      860.643
07/14/2013  20:56:00     -294.102      -55.919       -7.365      110.561       96.317       63.685    12223.812     9276.945     4055.736        5.761        1.278      299.370       65.893        0.048      347.959       27.303      860.651
07/14/2013  20:57:00     -313.833        2.326      -10.249      180.161      128.926       83.546    32458.018    16621.819     6979.855        7.732        2.803      313.841       76.594        0.060      347.969       27.320      860.640
07/14/2013  20:58:00     -389.654      -27.507      -34.112      166.748      116.752       70.640    27804.977    13631.052     4990.070       10.008        2.321      390.624       65.364        0.028      347.966       27.316      860.656
07/14/2013  20:59:00     -418.042      -34.098      -30.749      141.115      122.181       68.898    19913.488    14928.243     4746.901       10.822        1.979      419.430       68.217        0.026      347.949       27.285      860.726
07/14/2013  21:00:00     -348.781      -17.624       -5.592      140.953      118.416       65.522    19867.835    14022.420     4293.073        8.008        1.909      349.226       64.666        0.034      347.943       27.274      860.769
07/14/2013  21:01:00     -309.730      -75.037      -11.305      146.864      135.954       69.574    21568.908    18483.582     4840.609        7.328        2.245      318.689       65.001        0.042      347.912       27.222      860.801
07/14/2013  21:02:00     -392.846       18.710      -32.998      135.540      144.572       66.210    18371.122    20901.074     4383.773        9.970        2.183      393.291       60.115        0.023      347.975       27.330      860.830
07/14/2013  21:03:00     -383.563       26.039      -47.053      115.386       93.015       49.557    13313.969     8651.750     2455.899        8.721        1.221      384.446       38.723        0.010      348.025       27.416      860.853
07/14/2013  21:04:00      -91.825       12.416       -3.068       51.677       54.886       37.319     2670.522     3012.474     1392.743        0.783        0.354       92.661       33.054        0.127      348.000       27.376      860.827
07/14/2013  21:05:00     -121.101       -0.080       -4.806       52.184       64.771       35.492     2723.195     4195.314     1259.657        1.143        0.409      121.101       13.759        0.013      347.999       27.375      860.846
07/14/2013  21:06:00     -157.083      -31.856      -26.265       87.811       80.158       39.529     7710.722     6425.327     1562.579        2.104        0.785      160.280       18.343        0.013      348.000       27.374      860.868
07/14/2013  21:07:00     -262.351     -158.259      -22.189      133.342       97.365       66.213    17779.980     9480.037     4384.151        6.300        1.582      306.389       56.719        0.034      347.879       27.163      860.872
07/14/2013  21:08:00     -307.183      -34.343      -23.769      125.225      105.320       54.888    15681.313    11092.342     3012.737        6.294        1.489      309.097       48.688        0.025      347.846       27.107      860.898
07/14/2013  21:09:00     -246.612      -76.560      -20.975      103.791       97.765       52.558    10772.671     9558.078     2762.334        4.510        1.155      258.223       43.280        0.028      347.816       27.055      860.906
07/14/2013  21:10:00     -343.121      -99.219      -24.614      151.720      107.959       63.529    23019.108    11655.226     4035.985        8.344        1.936      357.178       71.890        0.041      347.867       27.144      860.913
07/14/2013  21:11:00     -241.386      -36.083      -25.807      114.704      102.032       47.446    13157.100    10410.431     2251.118        4.302        1.291      244.068       53.169        0.047      347.897       27.195      860.906
07/14/2013  21:12:00     -172.481      -29.801       -8.414       65.159       69.318       37.672     4245.633     4804.945     1419.172        2.059        0.523      175.037       30.107        0.030      347.876       27.159      860.866
07/14/2013  21:13:00     -232.640      -50.396       -7.384      102.206       74.132       43.986    10446.044     5495.505     1934.810        3.729        0.894      238.037       49.952        0.044      347.853       27.117      860.866
07/14/2013  21:14:00     -239.332      -83.988      -14.883      174.747      100.911       67.618    30536.538    10182.964     4572.176        5.491        2.265      253.641       82.870        0.107      347.775       26.986      860.882
07/14/2013  21:15:00     -331.315       -0.746      -13.903      146.194      162.443       76.563    21372.800    26387.797     5861.963        8.178        2.681      331.316       81.311        0.060      347.756       26.951      860.893
07/14/2013  21:16:00     -311.254      -47.681      -25.789      139.874      120.023       77.820    19564.745    14405.438     6055.898        6.991        2.001      314.885       79.665        0.064      347.725       26.897      860.937
07/14/2013  21:17:00     -332.189      -46.579      -19.898      163.075       91.861       66.065    26593.493     8438.383     4364.637        7.615        1.970      335.439       78.422        0.055      347.734       26.915      860.960
07/14/2013  21:18:00     -423.835      -62.300      -18.153      161.737      148.214       68.512    26158.810    21967.391     4693.881       11.832        2.641      428.389       76.202        0.032      347.796       27.022      860.987
07/14/2013  21:19:00     -174.964       63.933       -6.149      118.867      124.371       46.791    14129.295    15468.133     2189.384        3.326        1.589      186.279       53.530        0.083      347.777       26.989      860.955
07/14/2013  21:20:00     -105.236      112.102      -20.262       50.752      115.293       36.303     2575.772    13292.506     1317.921        2.062        0.859      153.758       35.575        0.054      347.780       26.993      860.907
07/14/2013  21:21:00     -125.554       19.192      -12.411       59.995       98.090       35.335     3599.347     9621.741     1248.577        1.538        0.723      127.013       23.651        0.035      347.765       26.972      860.947
07/14/2013  21:22:00     -273.468      -43.697      -30.461       84.266       85.417       46.730     7100.807     7296.130     2183.673        4.710        0.829      276.937       42.373        0.023      347.736       26.916      860.978
07/14/2013  21:23:00     -298.447      -82.411      -11.407      198.078      116.493       66.436    39234.882    13570.571     4413.691        7.659        2.861      309.617       88.362        0.081      347.670       26.806      860.975
07/14/2013  21:24:00     -326.467      -25.140       -2.013      233.486      127.481       82.337    54515.874    16251.371     6779.436        9.237        3.877      327.434      110.990        0.115      347.710       26.874      860.984
07/14/2013  21:25:00     -382.600      -43.102      -39.620      117.633       93.136       55.523    13837.585     8674.236     3082.787        8.770        1.280      385.020       45.925        0.014      347.705       26.864      861.011
07/14/2013  21:26:00     -378.528        0.564      -26.779      122.576      111.667       59.967    15024.810    12469.491     3596.013        8.754        1.555      378.528       50.872        0.018      347.709       26.870      861.042
07/14/2013  21:27:00     -249.422       14.878      -18.673       96.414       86.033       54.582     9295.652     7401.704     2979.226        4.123        0.984      249.866       53.234        0.045      347.709       26.870      861.035
07/14/2013  21:28:00     -156.891        5.483      -16.054       71.027       63.397       38.024     5044.825     4019.198     1445.829        1.770        0.525      156.987       36.592        0.054      347.700       26.857      861.015
07/14/2013  21:29:00      -95.607      -23.111       13.068      103.111       75.949       50.537    10631.804     5768.268     2553.973        1.440        0.948       98.360       52.833        0.289      347.627       26.732      861.039
07/14/2013  21:30:00     -126.976      -54.719        0.192       82.252       74.586       39.480     6765.329     5563.135     1558.675        1.650        0.694      138.264       36.874        0.071      347.602       26.691      861.059
07/14/2013  21:31:00     -143.326      -40.044        7.184      108.088       84.005       47.622    11682.918     7056.802     2267.858        2.160        1.050      148.815       56.466        0.144      347.584       26.658      861.059
07/14/2013  21:32:00     -298.979       11.268       -1.452      135.527      114.812       60.488    18367.506    13181.827     3658.756        6.236        1.760      299.191       62.236        0.043      347.536       26.573      861.110
07/14/2013  21:33:00     -281.497       17.824      -15.268      104.279       83.596       56.100    10874.176     6988.226     3147.258        5.040        1.050      282.061       48.333        0.029      347.523       26.551      861.146
07/14/2013  21:34:00     -244.634      -58.259        6.785      113.395       94.358       53.547    12858.428     8903.393     2867.287        4.395        1.231      251.475       56.311        0.050      347.549       26.596      861.164
07/14/2013  21:35:00     -278.727      -68.158       -8.789      132.906       89.356       53.260    17663.895     7984.502     2836.597        5.544        1.424      286.940       66.305        0.053      347.540       26.580      861.202
07/14/2013  21:36:00     -314.948      -79.020       -8.392      135.372      111.501       61.174    18325.501    12432.374     3742.270        7.000        1.725      324.709       70.317        0.047      347.559       26.613      861.215
07/14/2013  21:37:00     -237.226       -4.011      -19.888      100.978      121.188       60.826    10196.479    14686.547     3699.855        4.263        1.429      237.259       64.557        0.074      347.588       26.664      861.226
07/14/2013  21:38:00     -207.656      129.890      -29.840       88.812      103.305       52.770     7887.631    10671.867     2784.669        4.111        1.067      244.933       36.858        0.023      347.627       26.731      861.173
07/14/2013  21:39:00     -110.535       22.805       -9.903       62.819       58.148       39.498     3946.248     3381.138     1560.090        1.086        0.444      112.863       25.784        0.052      347.600       26.686      861.179
07/14/2013  21:40:00     -155.527      -43.866      -16.324       91.088       80.132       43.046     8297.020     6421.058     1852.940        2.147        0.829      161.595       41.434        0.066      347.553       26.603      861.223
07/14/2013  21:41:00     -236.862      -63.688       -8.010      110.124       91.301       51.324    12127.281     8335.813     2634.174        4.166        1.155      245.275       45.544        0.034      347.542       26.584      861.243
07/14/2013  21:42:00     -118.624      -36.375        0.965      110.223       75.025       52.208    12149.131     5628.705     2725.715        1.795        1.025      124.076       44.765        0.130      347.461       26.444      861.281
07/14/2013  21:43:00     -286.520      -63.077      -32.942      122.103       84.163       54.679    14909.128     7083.445     2989.773        5.606        1.249      293.381       49.582        0.029      347.480       26.476      861.309
07/14/2013  21:44:00     -341.618       31.171      -37.404      102.026       84.556       48.939    10409.362     7149.772     2395.074        6.951        0.998      343.037       41.541        0.015      347.504       26.519      861.317
07/14/2013  21:45:00     -101.978       -0.988        3.411       75.892       65.390       34.289     5759.662     4275.875     1175.766        1.081        0.561      101.982       36.945        0.131      347.388       26.319      861.309
07/14/2013  21:46:00     -209.504      111.884      -23.279      120.075       80.674       47.537    14417.905     6508.304     2259.727        4.006        1.159      237.508       44.749        0.035      347.449       26.424      861.294
07/14/2013  21:47:00     -155.217       33.209       -9.861       76.272      100.750       43.659     5817.355    10150.640     1906.107        2.158        0.894      158.730       15.474        0.010      347.383       26.312      861.303
07/14/2013  21:48:00     -237.949      -84.154      -12.029      136.308       79.385       46.321    18579.980     6301.993     2145.649        4.543        1.351      252.392       58.116        0.053      347.509       26.527      861.322
07/14/2013  21:49:00     -301.162       61.324      -28.830      122.577       86.968       48.107    15025.229     7563.462     2314.321        6.009        1.245      307.342       46.176        0.023      347.437       26.400      861.317
07/14/2013  21:50:00     -257.570     -116.966       -9.407      158.151       98.661       63.414    25011.668     9733.950     4021.293        5.943        1.938      282.884       69.678        0.061      347.403       26.343      861.315
07/14/2013  21:51:00     -320.616      -27.550      -30.185      107.447       91.752       47.831    11544.763     8418.383     2287.785        6.335        1.113      321.798       32.875        0.010      347.437       26.400      861.360
07/14/2013  21:52:00     -311.364     -107.167      -11.460      215.154      130.423       70.792    46291.280    17010.235     5011.557        8.842        3.416      329.291       87.645        0.071      347.452       26.427      861.342
07/14/2013  21:53:00     -273.803     -126.140      -11.717      152.525      110.308       54.876    23263.847    12167.771     3011.386        6.472        1.922      301.462       44.723        0.022      347.484       26.483      861.357
07/14/2013  21:54:00     -238.322       -0.118      -15.029      144.572       74.719       47.443    20900.942     5582.956     2250.804        4.287        1.437      238.322       52.905        0.049      347.527       26.560      861.332
07/14/2013  21:55:00     -111.847       83.862      -17.038       84.926       77.718       33.128     7212.416     6040.042     1097.459        1.709        0.717      139.794       26.195        0.035      347.467       26.456      861.307
07/14/2013  21:56:00     -287.374      -92.941      -22.587      125.951       89.049       51.454    15863.685     7929.800     2647.521        5.908        1.322      302.029       57.238        0.036      347.473       26.463      861.309
07/14/2013  21:57:00     -308.609      -79.730      -19.263      106.846       84.746       50.288    11416.128     7181.890     2528.861        6.154        1.056      318.742       45.033        0.020      347.480       26.476      861.320
07/14/2013  21:58:00     -321.535       60.862      -25.048       97.868      100.124       44.771     9578.057    10024.798     2004.467        6.466        1.080      327.244       39.387        0.014      347.437       26.401      861.350
07/14/2013  21:59:00     -247.465      -59.661      -14.244       77.117       71.516       39.012     5946.971     5114.550     1521.897        3.879        0.629      254.555       36.926        0.021      347.395       26.330      861.378
07/14/2013  22:00:00     -100.772      100.170       -7.231       81.337       84.423       51.414     6615.781     7127.197     2643.365        1.831        0.819      142.088       43.242        0.093      347.326       26.212      861.382
07/14/2013  22:01:00     -105.796       62.271        1.251       94.998       81.774       44.286     9024.545     6686.995     1961.287        1.637        0.884      122.762       45.917        0.140      347.341       26.238      861.366
07/14/2013  22:02:00      -64.408       28.181       -9.087       49.758       35.968       34.215     2475.908     1293.690     1170.647        0.498        0.247       70.303       29.849        0.180      347.322       26.207      861.369
07/14/2013  22:03:00     -128.596      115.630      -23.239       53.112       82.917       31.227     2820.914     6875.238      975.105        2.056        0.534      172.937       26.580        0.024      347.314       26.193      861.374
07/14/2013  22:04:00     -157.148      -28.442        0.323       75.524       87.714       42.622     5703.911     7693.775     1816.607        2.036        0.761      159.701       43.501        0.074      347.310       26.183      861.359
07/14/2013  22:05:00     -115.977       18.087        5.031       43.529       75.980       40.795     1894.783     5772.936     1664.250        1.157        0.467      117.379       35.155        0.090      347.303       26.176      861.347
07/14/2013  22:06:00     -133.844        3.518      -16.091       62.945       76.059       27.610     3962.124     5785.028      762.338        1.435        0.525      133.890       16.105        0.014      347.285       26.141      861.341
07/14/2013  22:07:00      -30.011       11.181        8.440       59.362       43.512       31.402     3523.799     1893.288      986.093        0.375        0.320       32.026       32.572        1.034      347.228       26.047      861.342
07/14/2013  22:08:00     -118.634       -1.759       -2.687       54.759       42.584       30.915     2998.535     1813.370      955.745        0.992        0.288      118.647       18.132        0.023      347.306       26.179      861.358
07/14/2013  22:09:00     -102.346       18.797      -18.887       38.231       59.426       22.629     1461.642     3531.456      512.092        0.834        0.275      104.058       13.489        0.017      347.295       26.161      861.387
07/14/2013  22:10:00      -62.394       31.423       -3.959       46.094       57.800       36.943     2124.700     3340.834     1364.764        0.586        0.342       69.860       22.842        0.107      347.266       26.109      861.375
07/14/2013  22:11:00     -105.933       71.537      -16.217       55.405       48.250       29.965     3069.692     2328.064      897.891        1.145        0.315      127.825       27.040        0.045      347.231       26.050      861.387
07/14/2013  22:12:00     -113.073      136.093      -14.964       35.626       73.900       28.778     1269.192     5461.211      828.170        1.954        0.378      176.937       21.249        0.014      347.183       25.966      861.392
07/14/2013  22:13:00      -96.129       97.125      -11.956       68.505       67.220       40.519     4692.952     4518.471     1641.774        1.483        0.543      136.653       42.041        0.095      347.196       25.988      861.368
07/14/2013  22:14:00      -70.190      131.520      -18.604       59.948       57.822       31.054     3593.810     3343.427      964.323        1.523        0.395      149.078       32.785        0.048      347.192       25.981      861.376
07/14/2013  22:15:00     -121.740      122.882      -25.727       78.027       86.069       41.940     6088.220     7407.927     1758.954        2.292        0.763      172.976       44.911        0.067      347.131       25.876      861.366
07/14/2013  22:16:00       -9.384       85.359      -14.828       54.989      102.948       32.528     3023.765    10598.191     1058.071        1.113        0.734       85.874       24.776        0.083      347.047       25.732      861.330
07/14/2013  22:17:00     -104.186       71.118      -20.407       46.927       67.331       29.703     2202.136     4533.411      882.280        1.197        0.381      126.145       35.076        0.077      347.085       25.800      861.320
07/14/2013  22:18:00     -228.170       35.815      -33.252       63.998       53.181       34.523     4095.732     2828.190     1191.830        3.128        0.406      230.963       17.581        0.006      347.071       25.771      861.343
07/14/2013  22:19:00     -184.928       19.043      -17.905       96.273       80.392       44.130     9268.473     6462.898     1947.477        2.628        0.884      185.906       48.368        0.068      347.035       25.709      861.334
07/14/2013  22:20:00     -150.076      -37.809      -11.811       81.768       63.288       41.459     6685.959     4005.375     1718.854        1.825        0.621      154.765       43.243        0.078      346.958       25.579      861.337
07/14/2013  22:21:00     -116.029      -46.761      -17.102       56.765       66.903       38.077     3222.292     4476.007     1449.853        1.254        0.457      125.098       29.495        0.056      346.925       25.523      861.352
07/14/2013  22:22:00     -202.313      -77.165       -9.813       60.016       57.254       33.962     3601.906     3278.045     1153.399        2.751        0.402      216.530       31.425        0.021      346.921       25.512      861.342
07/14/2013  22:23:00      -49.985       45.473        0.365       53.225       52.460       29.548     2832.898     2752.067      873.082        0.551        0.323       67.574       33.069        0.239      346.818       25.339      861.340
07/14/2013  22:24:00     -142.949      147.767      -41.161      105.380       95.170       45.112    11104.847     9057.340     2035.113        3.308        1.110      205.595       62.073        0.091      346.807       25.318      861.345
07/14/2013  22:25:00      -68.676      164.435      -14.386       81.041      102.646       53.601     6567.613    10536.188     2873.118        2.597        0.999      178.200       60.573        0.116      346.802       25.310      861.347
07/14/2013  22:26:00      -99.718      153.371      -21.636       64.926       71.708       40.917     4215.355     5142.054     1674.178        2.248        0.552      182.939       47.721        0.068      346.695       25.126      861.343
07/14/2013  22:27:00     -110.381      176.593      -26.033       59.413       85.764       45.445     3529.885     7355.407     2065.291        2.850        0.648      208.252       44.614        0.046      346.688       25.114      861.350
07/14/2013  22:28:00     -159.900      181.827      -36.458       95.542       77.816       49.136     9128.269     6055.385     2414.329        3.877        0.880      242.135       53.752        0.049      346.725       25.175      861.356
07/14/2013  22:29:00     -131.164      189.240      -34.368       62.288       77.979       45.326     3879.798     6080.689     2054.448        3.310        0.601      230.251       43.735        0.036      346.696       25.127      861.358
07/14/2013  22:30:00     -131.393      181.682      -32.425      114.433       89.402       50.262    13095.020     7992.764     2526.240        3.746        1.181      224.216       54.233        0.059      346.662       25.068      861.369
07/14/2013  22:31:00     -128.096      150.539      -25.836       74.192       96.762       43.620     5504.475     9362.931     1902.671        2.825        0.839      197.663       55.954        0.080      346.638       25.029      861.374
07/14/2013  22:32:00     -125.998      153.225      -22.992       65.717       75.551       42.114     4318.753     5708.028     1773.604        2.584        0.590      198.377       43.665        0.048      346.623       25.000      861.365
07/14/2013  22:33:00     -194.479      104.916      -29.656       71.927       80.824       43.176     5173.515     6532.517     1864.193        3.164        0.679      220.974       44.057        0.040      346.695       25.124      861.374
07/14/2013  22:34:00      -99.534       32.503        0.350       92.726       42.639       37.345     8598.200     1818.079     1394.653        1.138        0.591      104.706       42.449        0.164      346.649       25.047      861.354
07/14/2013  22:35:00      -64.183      -14.224       -2.013       78.527       56.905       30.891     6166.481     3238.143      954.273        0.734        0.518       65.740       28.617        0.189      346.647       25.045      861.355
07/14/2013  22:36:00     -170.062      -66.045       -7.321       52.679       60.243       29.046     2775.123     3629.245      843.652        2.029        0.362      182.436       21.838        0.014      346.626       25.009      861.372
07/14/2013  22:37:00     -248.171       37.222      -27.049       86.711       73.108       44.123     7518.752     5344.797     1946.821        3.926        0.741      250.946       48.886        0.038      346.544       24.865      861.384
07/14/2013  22:38:00     -194.460       21.743      -32.852       65.843       62.370       35.229     4335.266     3889.981     1241.066        2.441        0.473      195.672       28.542        0.021      346.524       24.831      861.376
07/14/2013  22:39:00     -133.629       18.129      -22.486       99.455       65.658       42.197     9891.226     4310.966     1780.617        1.733        0.799      134.854       33.045        0.060      346.508       24.805      861.375
07/14/2013  22:40:00     -172.594      -10.309      -12.717       65.027       80.880       33.307     4228.560     6541.631     1109.378        2.097        0.594      172.901       30.433        0.031      346.413       24.642      861.370
07/14/2013  22:41:00     -171.727      -11.856       -9.561       77.379      105.540       43.662     5987.573    11138.631     1906.358        2.437        0.952      172.136       38.702        0.051      346.427       24.664      861.376
07/14/2013  22:42:00     -162.512       12.930       -6.724       88.042       78.698       35.593     7751.393     6193.407     1266.861        2.091        0.761      163.026       29.430        0.033      346.479       24.755      861.374
07/14/2013  22:43:00     -232.882      -63.723      -18.581       90.016       73.342       39.093     8102.942     5379.002     1528.297        3.682        0.751      241.443       43.710        0.033      346.459       24.718      861.387
07/14/2013  22:44:00     -240.167      -31.565      -21.367       70.180       46.227       40.619     4925.205     2136.895     1649.880        3.392        0.436      242.232       38.300        0.025      346.453       24.707      861.386
07/14/2013  22:45:00     -186.014      -17.883      -16.390       79.794       73.023       45.631     6367.095     5332.367     2082.179        2.448        0.689      186.871       38.222        0.042      346.440       24.686      861.376
07/14/2013  22:46:00      -86.000       49.811      -11.751       65.619       49.103       27.227     4305.806     2411.084      741.326        0.874        0.373       99.384       31.341        0.099      346.329       24.498      861.388
07/14/2013  22:47:00     -153.247       21.330      -24.195       53.742       73.448       30.851     2888.168     5394.572      951.771        1.688        0.462      154.725       28.653        0.034      346.333       24.504      861.408
07/14/2013  22:48:00     -106.693      -37.515       -7.851       87.912       62.882       39.310     7728.434     3954.150     1545.252        1.304        0.661      113.096       35.904        0.101      346.343       24.521      861.428
07/14/2013  22:49:00     -135.077        6.290      -12.941       65.772       39.476       32.326     4325.944     1558.376     1044.960        1.269        0.346      135.224       32.747        0.059      346.353       24.538      861.440
07/14/2013  22:50:00     -152.310       17.737      -14.754       44.707       35.477       21.544     1998.744     1258.652      464.135        1.373        0.186      153.340       19.412        0.016      346.391       24.605      861.450
07/14/2013  22:51:00     -156.521        1.842      -20.599       59.789       46.150       23.940     3574.729     2129.853      573.146        1.560        0.314      156.532       17.104        0.012      346.388       24.599      861.455
07/14/2013  22:52:00     -205.829      -72.416      -12.959       59.392       72.667       36.371     3527.444     5280.536     1322.852        2.895        0.507      218.196       30.083        0.019      346.405       24.626      861.482
07/14/2013  22:53:00     -194.476      -63.445      -10.100       45.118       47.300       29.476     2035.618     2237.277      868.832        2.354        0.257      204.563       21.992        0.012      346.392       24.605      861.487
07/14/2013  22:54:00     -164.318       -6.713      -15.190       50.528       85.625       32.617     2553.034     7331.573     1063.853        1.911        0.547      164.455       29.985        0.033      346.361       24.552      861.487
07/14/2013  22:55:00     -137.874       71.153      -14.320       72.145      110.914       47.169     5204.837    12301.905     2224.896        2.200        0.987      155.152       45.968        0.088      346.329       24.497      861.493
07/14/2013  22:56:00      -56.483      128.893      -11.795       47.466       48.404       29.917     2253.026     2342.994      895.040        1.272        0.275      140.726       19.395        0.019      346.324       24.489      861.466
07/14/2013  22:57:00     -129.325       77.053      -23.095       50.023       70.554       31.395     2502.295     4977.890      985.636        1.583        0.423      150.540       25.440        0.029      346.359       24.547      861.484
07/14/2013  22:58:00     -147.012      119.237      -31.313       84.155       48.106       32.714     7082.075     2314.160     1070.185        2.364        0.523      189.289       28.704        0.023      346.409       24.633      861.481
07/14/2013  22:59:00     -139.962      131.027      -28.699       58.950       74.745       35.817     3475.107     5586.859     1282.844        2.396        0.517      191.722       31.989        0.028      346.472       24.744      861.478
07/14/2013  23:00:00     -178.610      -47.375      -11.270       81.201       55.204       41.961     6593.670     3047.479     1760.730        2.284        0.570      184.787       43.661        0.056      346.386       24.595      861.503
07/14/2013  23:01:00     -216.061      -64.846       -7.898       77.767       71.598       42.658     6047.677     5126.340     1819.699        3.197        0.650      225.583       33.092        0.022      346.303       24.450      861.511
07/14/2013  23:02:00     -186.532       35.885      -11.160       87.335      113.747       44.013     7627.355    12938.347     1937.158        2.935        1.125      189.952       41.552        0.048      346.274       24.400      861.519
07/14/2013  23:03:00     -208.527       56.975      -28.375       61.640       58.559       32.893     3799.428     3429.126     1081.947        2.792        0.416      216.170       20.465        0.009      346.279       24.409      861.512
07/14/2013  23:04:00     -120.162       57.993      -14.547       78.653       71.059       45.661     6186.336     5049.391     2084.926        1.566        0.666      133.425       51.312        0.148      346.275       24.403      861.518
07/14/2013  23:05:00     -178.657      109.283      -21.668       68.242      107.020       38.178     4656.914    11453.357     1457.555        3.095        0.878      209.430       19.485        0.009      346.321       24.483      861.519
07/14/2013  23:06:00      -66.872      148.170       -8.265       48.894       65.907       36.992     2390.652     4343.670     1368.402        1.730        0.405      162.561       33.984        0.044      346.266       24.389      861.483
07/14/2013  23:07:00     -137.764       86.109      -19.529      103.807      102.800       33.186    10775.958    10567.848     1101.325        2.461        1.122      162.461       34.476        0.045      346.415       24.642      861.472
07/14/2013  23:08:00     -301.263      -24.756      -15.585      104.381       86.463       50.965    10895.413     7475.883     2597.455        5.629        1.048      302.278       43.658        0.021      346.237       24.335      861.537
07/14/2013  23:09:00     -189.626       86.851      -38.599       60.651       95.897       38.257     3678.523     9196.323     1463.635        2.966        0.717      208.569       37.408        0.032      346.192       24.260      861.538
07/14/2013  23:10:00     -141.759       49.045      -28.330       66.414       73.158       44.757     4410.775     5352.092     2003.212        1.753        0.588      150.004       38.447        0.066      346.177       24.236      861.552
07/14/2013  23:11:00     -135.919      175.643      -35.014       55.018       70.956       35.320     3026.946     5034.731     1247.537        2.993        0.465      222.091       23.833        0.012      346.125       24.143      861.518
07/14/2013  23:12:00     -135.802      201.311      -31.801       63.569       58.729       38.714     4041.037     3449.037     1498.758        3.448        0.449      242.834       31.151        0.016      346.169       24.218      861.495
07/14/2013  23:13:00      -19.814      110.339      -13.766       33.221       43.294       26.293     1103.649     1874.349      691.322        0.821        0.183      112.104       19.583        0.031      346.352       24.539      861.471
07/14/2013  23:14:00     -138.237       89.962      -24.523       50.088       39.140       28.328     2508.815     1531.959      802.503        1.632        0.242      164.933       24.756        0.023      346.235       24.337      861.511
07/14/2013  23:15:00     -160.325       95.962      -19.916       66.332       82.908       37.012     4399.913     6873.722     1369.900        2.397        0.632      186.850       27.471        0.022      346.199       24.273      861.517
07/14/2013  23:16:00      -95.288      125.844      -15.284       57.779       97.134       41.175     3338.443     9435.078     1695.402        1.981        0.723      157.850       34.897        0.049      346.189       24.255      861.516
07/14/2013  23:17:00      -74.007      212.545      -26.591       54.539       68.568       46.574     2974.458     4701.585     2169.147        3.060        0.492      225.061       32.531        0.021      346.174       24.227      861.491
07/14/2013  23:18:00      -87.699      247.003      -26.891       63.263      103.874       38.636     4002.162    10789.891     1492.721        4.285        0.814      262.110       35.016        0.018      346.146       24.181      861.466
07/14/2013  23:19:00     -121.860      151.270      -28.371       55.931      105.510       34.590     3128.312    11132.445     1196.490        2.699        0.773      194.248       24.847        0.016      346.336       24.507      861.456
07/14/2013  23:20:00      -74.712      127.477      -24.416       39.912       61.144       29.465     1592.936     3738.624      868.205        1.431        0.310      147.758       27.490        0.035      346.378       24.583      861.452
07/14/2013  23:21:00      -84.109       51.280      -13.651       53.262       83.633       31.016     2836.844     6994.430      962.003        1.034        0.540       98.508       21.681        0.048      346.386       24.596      861.430
07/14/2013  23:22:00     -121.875      100.458      -15.421       62.764      133.649       48.104     3939.380    17861.939     2313.991        2.464        1.206      157.941       39.138        0.061      346.379       24.581      861.444
07/14/2013  23:23:00     -149.253      254.752      -32.736       68.162       78.063       48.860     4646.006     6093.908     2387.253        5.068        0.656      295.254       44.932        0.023      346.235       24.332      861.421
07/14/2013  23:24:00     -157.521      209.072      -36.139       66.867       67.202       42.565     4471.175     4516.176     1811.778        4.031        0.540      261.771       39.510        0.023      346.306       24.455      861.404
07/14/2013  23:25:00     -123.046      125.222      -23.987       55.932       64.473       35.179     3128.422     4156.786     1237.546        1.996        0.426      175.558       28.884        0.027      346.372       24.572      861.416
07/14/2013  23:26:00     -143.801       86.232      -25.112       41.968       41.084       28.082     1761.309     1687.855      788.610        1.649        0.212      167.674       19.589        0.014      346.388       24.598      861.424
07/14/2013  23:27:00      -82.326       92.717      -15.474       45.899       56.167       31.772     2106.756     3154.688     1009.463        1.094        0.314      123.992       27.078        0.048      346.377       24.581      861.428
07/14/2013  23:28:00     -125.258      135.410      -22.544       55.163       49.658       30.889     3042.910     2465.927      954.119        2.050        0.323      184.460       24.517        0.018      346.381       24.585      861.425
07/14/2013  23:29:00     -173.767       92.243      -22.137       50.792       54.425       37.093     2579.787     2962.103     1375.921        2.305        0.346      196.733       28.896        0.022      346.376       24.576      861.438
07/14/2013  23:30:00     -119.935       67.977      -15.692       61.958       40.249       35.028     3838.772     1619.950     1226.938        1.297        0.334      137.860       33.329        0.058      346.285       24.422      861.463
07/14/2013  23:31:00      -72.499      251.569      -16.702       60.954      103.201       47.181     3715.368    10650.409     2226.059        4.270        0.830      261.808       53.854        0.042      346.269       24.391      861.462
07/14/2013  23:32:00      -88.455      149.725      -12.582       58.643       70.603       42.665     3438.980     4984.820     1820.298        2.032        0.512      173.902       41.217        0.056      346.158       24.203      861.480
07/14/2013  23:33:00     -161.221      182.807      -40.400       59.677      106.507       44.970     3561.393    11343.823     2022.284        3.898        0.846      243.743       47.850        0.039      346.155       24.195      861.501
07/14/2013  23:34:00     -123.441      195.443      -28.786       69.970       88.185       43.733     4895.754     7776.670     1912.541        3.442        0.729      231.162       47.065        0.041      346.093       24.089      861.490
07/14/2013  23:35:00     -110.692      239.271      -33.901       75.896       77.227       41.651     5760.137     5964.032     1734.772        4.205        0.673      263.635       40.530        0.024      346.070       24.049      861.474
07/14/2013  23:36:00     -139.958      319.929      -32.293       74.657       85.742       46.862     5573.696     7351.704     2196.074        6.905        0.756      349.203       47.747        0.019      346.057       24.027      861.476
07/14/2013  23:37:00     -126.579      255.711      -33.403       55.159       74.281       40.321     3042.512     5517.699     1625.770        4.635        0.509      285.325       37.283        0.017      346.066       24.043      861.467
07/14/2013  23:38:00     -132.205      193.590      -26.817       62.112       86.652       38.902     3857.891     7508.485     1513.392        3.427        0.644      234.425       40.556        0.030      346.074       24.055      861.486
07/14/2013  23:39:00     -118.880      163.405      -27.754       48.500       71.422       36.920     2352.235     5101.032     1363.065        2.521        0.441      202.074       39.305        0.038      346.102       24.105      861.503
07/14/2013  23:40:00     -137.328      157.665      -30.288       87.496       76.362       39.881     7655.584     5831.197     1590.469        2.985        0.754      209.086       44.983        0.046      346.107       24.114      861.506
07/14/2013  23:41:00      -73.691       75.044       -3.838       54.842       67.138       34.937     3007.672     4507.546     1220.612        0.990        0.437      105.175       30.941        0.087      345.975       23.889      861.542
07/14/2013  23:42:00      -95.826       85.244      -21.311      102.131       69.559       39.457    10430.829     4838.391     1556.841        1.686        0.841      128.255       54.772        0.182      345.991       23.915      861.553
07/14/2013  23:43:00      -77.922       70.009       -6.675       56.547       75.346       38.920     3197.601     5676.966     1514.778        1.070        0.519      104.752       21.418        0.042      345.903       23.766      861.553
07/14/2013  23:44:00     -122.508      143.156      -22.509       76.420       51.464       37.831     5840.024     2648.561     1431.196        2.296        0.496      188.419       41.683        0.049      345.898       23.756      861.564
07/14/2013  23:45:00     -152.670      165.573      -34.309       66.051       68.856       41.914     4362.785     4741.123     1756.746        3.138        0.543      225.217       36.050        0.026      345.939       23.826      861.555
07/14/2013  23:46:00      -91.807      127.757        1.029       84.197       70.706       43.027     7089.124     4999.327     1851.307        1.934        0.697      157.323       40.761        0.067      345.854       23.681      861.556
07/14/2013  23:47:00      -87.590      164.958      -12.604       63.908       94.833       48.508     4084.203     8993.209     2353.020        2.523        0.772      186.770       50.132        0.072      345.858       23.688      861.556
07/14/2013  23:48:00     -115.334      152.976      -22.505       69.567       94.183       34.635     4839.525     8870.417     1199.554        2.606        0.745      191.582       35.335        0.034      345.904       23.764      861.546
07/14/2013  23:49:00     -118.657      103.420      -19.724       74.172       60.815       30.849     5501.479     3698.453      951.631        1.766        0.508      157.401       29.793        0.036      345.861       23.692      861.567
07/14/2013  23:50:00     -100.644       97.102      -15.276       51.863       54.167       29.440     2689.776     2934.040      866.706        1.314        0.325      139.849       32.047        0.053      345.827       23.634      861.564
07/14/2013  23:51:00      -82.646      111.579       -9.268       70.038       66.947       43.319     4905.390     4481.871     1876.539        1.531        0.563      138.854       44.665        0.103      345.824       23.630      861.545
07/14/2013  23:52:00      -52.637      180.686      -12.158       36.725       91.619       37.396     1348.743     8394.042     1398.489        2.335        0.557      188.196       33.818        0.032      345.821       23.624      861.533
07/14/2013  23:53:00      -94.833       32.876      -24.457       30.023       22.571       22.444      901.378      509.466      503.732        0.629        0.096      100.370       14.595        0.021      345.858       23.690      861.529
07/14/2013  23:54:00      -59.785       20.080      -15.762       28.681       22.350       16.353      822.579      499.525      267.423        0.291        0.079       63.067       12.345        0.038      345.924       23.802      861.521
07/14/2013  23:55:00      -82.800       52.135      -13.146       25.828       35.402       23.698      667.109     1253.335      561.591        0.611        0.124       97.847       22.977        0.055      345.911       23.779      861.532
07/14/2013  23:56:00     -112.404       71.453      -21.433       26.339       40.748       28.462      693.760     1660.408      810.084        1.068        0.158      133.192       23.111        0.030      345.995       23.924      861.539
07/14/2013  23:57:00      -60.182       17.520        1.521       27.273       28.810       17.861      743.834      830.007      319.021        0.291        0.095       62.681       14.861        0.056      345.965       23.875      861.536
07/14/2013  23:58:00      -93.694      -25.194      -11.495       45.186       21.357       19.726     2041.762      456.111      389.130        0.622        0.144       97.022       21.520        0.049      345.898       23.758      861.548
07/14/2013  23:59:00     -125.306        3.333       -9.511       24.797       24.485       18.891      614.877      599.526      356.858        0.869        0.079      125.350       13.390        0.011      345.874       23.716      861.554
